           , 1.998,  2.145,  2.293,  2.441,  2.589,  2.736,  2.884,  3.032,  3.179,  3.327,  3.475,  3.623,  3.770,  3.918,  4.066,  4.213,  4.361,  4.509,  4.657,  4.804,  4.952,  5.100,  5.248,  5.395,  5.543,  5.691,  5.838,  5.986,  6.134,  6.282,  6.429,  6.577,  6.725,  6.872,  7.020,  7.168,  7.316,  7.463,  7.611,  7.759,  7.907,  8.054,  8.202,  8.350,  8.497,  8.645,  8.793,  8.941,  9.088,  9.236,  9.384,  9.531,  9.679,  9.827,  9.975, 10.122, 10.270, 10.418, 10.565, 10.713, 10.861, 11.009, 11.156, 11.304, 11.452, 11.600, 11.747, 11.895, 12.043, 12.190, 12.338, 12.486, 12.634, 12.781, 12.929, 13.077, 13.224, 13.372, 13.520, 13.668, 13.815, 13.963, 14.111, 14.259, 14.406, 14.554, 14.702, 14.849, 14.997, 15.145, 15.293, 15.440, 15.588, 15.736, 15.883, 16.031, 16.179, 16.327, 16.474, 16.622, 16.770, 16.917, 17.065, 17.213, 17.361, 17.508, 17.656, 17.804, 17.952, 18.099, 18.247, 18.395, 18.542, 18.690, 18.838, 18.986, 19.133, 19.281, 19.429, 19.576
2000/08/31 00:05,  -15.2,  -15.5,  -15.5,  -14.4,  -15.3,  -15.2,  -15.2,  -12.2,  -12.1,  -12.7,  -12.0,  -10.8,   -7.0,   -5.7,   -5.1,   -3.5,  999.0,  999.0,  999.0,  999.0,  999.0,   -4.7,  999.0,   -4.6,   -2.8,   -7.5,   -7.1,   -8.7,   -8.3,   -7.8,   -8.0,   -7.6,   -5.2,   -4.0,   -2.9,   -1.5,   -1.5,   -0.9,   -1.4,   -1.9,   -2.9,   -2.0,    1.3,    1.4,    0.1,   -0.2,    0.2,    0.2,    1.7,    1.3,    2.4,    1.7,    1.5,   -0.1,   -1.9,  999.0,  999.0,  999.0,  999.0,  999.0,  999.0,    0.2,  999.0,  999.0,  999.0,  999.0,    0.2,    2.0,    5.1,    5.2,    9.1,  999.0,   13.4,   14.6,   14.5,   16.7,   18.6,  999.0,   20.7,   17.0,   16.4,   15.5,   13.6,   12.7,   11.9,    9.4,    9.8,    9.6,    8.5,  999.0,    6.7,  999.0,    3.5,    3.3,    4.8,    4.2,  999.0,  999.0,  999.0,  999.0,  999.0,  999.0,  999.0,    0.8,  999.0,  999.0,    3.0,  999.0,    9.5,  999.0,   -4.0,   -4.1,   -6.9,   -3.3,  999.0,  999.0,  999.0,  999.0,  999.0,  999.0
2000/08/31 00:15,  -12.4,  -12.3,  -11.8,  -13.2,  -12.3,  -11.5,   -9.6,   -9.8,  -10.9,  -10.0,   -9.4,   -9.8,   -8.4,   -7.3,   -6.6,   -5.6,   -5.3,   -5.0,   -7.3,   -7.5,   -8.5,  999.0,  -16.1,  -11.5,   -8.0,   -7.9,   -7.3,   -6.0,   -5.3,   -5.1,   -4.9,   -4.1,   -4.4,   -3.5,   -3.0,   -1.9,   -1.3,   -0.6,   -2.0,   -2.5,   -2.1,   -1.2,    1.1,    0.3,   -0.9,   -0.4,    0.3,   -0.2,    0.4,    1.5,    2.0,    1.9,    1.3,    0.9,    0.5,  999.0,   -2.1,  999.0,  999.0,  999.0,  999.0,  999.0,  999.0,  999.0,  999.0,  999.0,   -2.6,    1.9,    3.2,    4.4,   -1.9,  999.0,    8.4,    1.9,   13.7,   13.9,   15.3,   17.9,   17.3,   11.8,   16.1,   14.7,   15.1,  999.0,    6.9,   10.2,    9.7,    7.9,    7.1,  999.0,    1.9,  999.0,  999.0,    1.2,    2.3,  999.0,   -0.5,  999.0,  999.0,  999.0,  999.0,  999.0,  999.0,  999.0,  999.0,  999.0,  999.0,  999.0,    0.4,   -4.2,   -2.9,   -4.7,    2.3,  999.0,   -1.6,  999.0,  999.0,  999.0,  999.0,  999.0
2000/08/31 00:25,  -11.3,  -11.1,  -10.5,  -11.7,  -12.2,  -12.0,  -11.0,   -9.8,   -9.9,   -8.0,   -7.5,   -4.6,   -5.4,   -5.6,   -6.4,   -5.1,   -5.1,   -9.1,   -6.8,   -9.6,   -7.6,   -5.5,   -5.5,   -5.1,   -4.7,   -4.7,   -5.2,   -4.9,   -5.1,   -5.5,   -6.5,   -5.7,   -5.6,   -4.9,   -3.8,   -2.2,   -2.3,   -2.1,   -3.0,   -3.9,   -4.2,   -3.2,    0.7,    1.0,   -0.4,   -0.3,   -0.1,   -0.1,    1.0,    1.7,    2.7,    2.7,    0.9,   -0.3,   -1.2,  999.0,  999.0,  999.0,  999.0,  999.0,  999.0,  999.0,  999.0,  999.0,  999.0,  999.0,   -0.5,    0.5,    2.3,    4.4,    5.7,  999.0,    6.4,  999.0,  999.0,   14.1,  999.0,   20.3,  999.0,  999.0,   16.5,   16.4,   15.1,   13.3,   11.3,    9.7,    9.9,    9.7,    7.2,    8.1,  999.0,    5.2,    1.6,    2.9,    1.8,    3.6,    4.5,  999.0,  999.0,  999.0,  999.0,  999.0,  999.0,  999.0,  999.0,  999.0,  999.0,  999.0,   -0.5,   -2.8,   -4.0,   -5.7,   -9.1,  999.0,  999.0,  999.0,  999.0,  999.0,  999.0,  -11.2
2000/08/31 00:35,  -12.1,  -10.9,  -11.2,  -11.1,  -10.9,  -10.1,  -10.3,  -10.3,  -10.6,   -9.8,  -10.4,   -9.5,   -8.2,   -6.5,   -5.4,   -6.5,   -5.1,   -4.0,   -3.3,   -3.2,   -3.3,   -3.3,   -3.1,   -2.3,   -2.9,   -3.7,   -4.2,   -4.6,   -4.9,   -4.9,   -5.3,   -5.4,   -4.7,   -4.2,   -3.0,   -1.4,   -1.3,   -1.8,   -2.8,   -3.6,   -3.0,   -0.7,    0.6,   -0.6,   -2.0,   -2.0,   -1.2,   -0.6,    0.8,    1.9,    3.1,    2.8,    1.7,    0.8,  999.0,  999.0,  999.0,  999.0,  999.0,  999.0,  999.0,  999.0,  999.0,  999.0,    1.9,    0.9,    1.0,   -1.3,    3.0,    6.2,  999.0,  999.0,  999.0,  999.0,   13.9,  999.0,   15.4,  999.0,   18.4,   -6.8,  999.0,   16.2,   15.1,   13.4,   11.9,   10.6,   10.2,  999.0,    7.6,    7.4,    7.0,    4.7,  999.0,  999.0,    3.7,    4.2,  999.0,  999.0,  999.0,  999.0,  999.0,  999.0,  999.0,  999.0,  999.0,  999.0,  999.0,  999.0,   -2.5,   -4.8,   -4.6,   -8.5,  999.0,   -8.9,  999.0,  999.0,  999.0,  999.0,  999.0,  999.0
2000/08/31 00:45,  -11.7,  -12.0,  -11.4,  -11.3,  -10.4,  -10.1,  -10.7,  -10.1,   -9.7,   -9.2,   -9.1,   -9.1,   -8.2,   -8.3,   -6.6,   -4.5,   -4.4,   -5.2,   -5.5,   -4.1,   -3.9,   -6.0,   -4.9,   -4.3,   -4.2,   -3.7,   -3.4,   -3.0,   -3.7,   -4.1,   -4.4,   -4.8,   -3.7,   -2.8,   -2.5,   -0.6,   -0.3,   -0.9,   -2.2,   -2.8,   -2.0,    0.1,    1.4,    0.8,   -0.1,   -0.3,    0.1,    0.3,    1.4,    2.2,    2.5,    1.9,   -0.0,   -1.4,   -0.8,  999.0,  999.0,  999.0,  999.0,  999.0,  999.0,  999.0,  999.0,  999.0,    0.7,   -1.0,   -0.4,    0.1,    0.9,    4.0,    6.3,    9.6,   10.6,  999.0,  999.0,   11.5,   15.9,   16.8,   19.4,  999.0,  999.0,  999.0,   14.9,   13.3,   11.5,   10.7,    9.8,    9.3,    7.3,    7.2,    7.6,    3.6,    2.5,  999.0,    3.6,    4.7,    4.9,  999.0,  999.0,  999.0,    6.9,  999.0,  999.0,  999.0,  999.0,  999.0,    3.9,    1.4,   -3.8,   -6.1,   -6.9,   -9.0,   -9.9,   -0.6,  999.0,  999.0,  999.0,  999.0,  999.0,  999.0
2000/08/31 00:55,  -15.0,  -13.3,  -12.6,  -12.5,  -11.7,  -11.1,  -11.2,  -12.2,  -12.2,  -11.5,   -9.1,   -8.8,   -8.4,   -5.6,   -7.0,   -6.3,   -7.0,   -4.5,   -3.0,   -2.6,   -3.8,   -4.2,   -3.4,   -3.9,   -5.1,   -5.1,   -4.5,   -3.6,   -3.2,   -2.9,   -2.8,   -2.4,   -1.7,   -0.5,    0.5,    1.3,    0.8,    0.2,   -2.7,   -3.6,   -2.0,    1.3,    1.5,    0.4,   -0.9,   -0.2,    0.2,   -0.1,    1.9,    2.8,    3.2,    1.9,    0.2,   -0.6,   -1.6,   -0.9,   -3.7,  999.0,   -1.0,  999.0,  999.0,  999.0,  999.0,  999.0,    0.4,    0.1,   -0.2,    0.9,    2.5,    1.8,    6.2,   -1.3,    8.9,   12.4,   -0.1,    1.5,  999.0,  999.0,    7.8,   -2.4,   17.7,  999.0,  999.0,  999.0,  999.0,   10.9,    9.1,    8.1,    8.1,    6.8,    6.6,   -2.7,    2.7,  999.0,    2.3,    3.7,    2.4,  999.0,    0.9,    3.7,  999.0,  999.0,   -2.3,  999.0,   -1.9,  999.0,    1.8,   -0.6,   -4.0,   -4.8,   -5.3,   -7.9,   -8.4,    0.4,  999.0,  999.0,    1.0,  999.0,  999.0,  999.0
2000/08/31 01:05,  -13.3,  -12.3,  -11.0,  -10.8,  -11.3,  -11.3,  -11.9,  -11.8,  -11.0,  -10.5,  -10.4,  -10.9,  -10.3,   -9.6,   -8.2,   -8.7,   -7.6,   -6.2,   -5.1,   -3.0,   -2.6,   -3.0,   -3.3,   -4.1,   -4.3,   -4.3,   -4.8,   -3.6,   -3.4,   -3.1,   -2.6,   -2.8,   -1.5,   -1.1,   -0.6,    0.9,    1.2,    0.7,   -1.1,   -2.1,   -2.3,    0.3,    1.1,    0.2,   -1.3,   -0.2,    0.5,    0.8,    2.4,    3.8,    3.8,    1.7,   -2.1,   -0.8,  999.0,    0.2,  999.0,    1.2,  999.0,  999.0,    0.1,  999.0,    1.9,    1.6,   -0.5,   -1.1,    0.4,    1.6,    0.6,    4.8,    7.2,    7.6,  999.0,   12.1,    6.6,  999.0,   15.4,   17.5,   18.8,   19.2,   20.6,   19.6,   -1.8,   -2.9,  999.0,  999.0,  999.0,    6.1,    8.8,    7.1,   -1.9,    5.3,    1.8,  999.0,    3.6,    4.9,    4.1,  999.0,  999.0,  999.0,  999.0,  999.0,  999.0,  999.0,  999.0,  999.0,  999.0,  999.0,   -4.3,   -6.0,   -6.8,   -8.1,   -8.2,   -5.7,  999.0,  999.0,  999.0,  999.0,  999.0,  999.0
2000/08/31 01:15,  -11.6,  -11.4,  -11.8,  -12.2,  -12.0,  -12.2,  -12.1,  -11.4,  -10.7,  -10.0,   -9.9,   -9.6,   -9.7,   -8.2,   -7.6,   -7.0,   -6.9,   -4.8,   -4.7,   -4.3,   -3.6,   -3.9,   -4.3,   -4.7,   -5.7,   -6.3,   -6.2,   -6.4,   -4.9,   -4.3,   -3.7,   -2.9,   -1.4,    0.0,    1.5,    1.7,    1.2,    0.8,   -0.6,   -1.7,   -1.4,    1.2,    1.4,   -0.1,   -0.3,    0.8,    0.9,    1.1,    3.0,    3.7,    3.8,    1.8,   -0.2,   -1.2,  999.0,    0.7,  999.0,   -1.1,  999.0,  999.0,  999.0,  999.0,    1.2,    1.8,    1.4,    0.7,    0.1,    1.7,    3.1,    3.7,    6.0,  999.0,  999.0,   11.3,   13.8,  999.0,  999.0,  999.0,  999.0,   18.2,   18.5,    1.0,  999.0,  999.0,    9.7,    9.3,    8.2,    8.1,    7.5,    6.4,  999.0,  999.0,  999.0,    2.0,    3.8,    4.0,    3.7,  999.0,  999.0,  999.0,  999.0,  999.0,  999.0,  999.0,  999.0,  999.0,  999.0,  999.0,  999.0,   -7.4,   -8.0,   -7.1,   -8.9,   -4.0,  999.0,  999.0,  999.0,  999.0,  999.0,  999.0
2000/08/31 01:25,  -12.8,  -13.8,  -13.4,  -13.7,  -13.2,  -13.4,  -12.3,  -12.1,  -11.0,  -10.6,  -10.9,  -10.1,   -8.6,   -7.2,   -6.0,   -5.6,   -4.1,   -2.8,   -2.9,   -3.7,   -4.0,   -3.9,   -4.6,   -5.5,   -5.9,   -6.2,   -6.6,   -6.9,   -6.2,   -4.5,   -4.1,   -3.0,   -2.5,   -1.4,   -0.8,    0.1,   -0.1,   -0.6,   -1.6,   -2.0,   -2.3,    1.3,    0.9,   -0.7,    0.6,    1.3,    1.4,    2.8,    4.9,    5.1,    5.0,    4.1,    1.4,    1.2,  999.0,    1.3,   -6.4,    1.7,    2.0,   -1.2,    0.8,  999.0,    1.5,    3.1,    2.0,    1.6,    0.5,    2.0,    3.1,    5.1,    7.1,  999.0,  999.0,   11.1,  999.0,  999.0,  999.0,  999.0,  999.0,   19.3,    9.4,    0.5,  999.0,  999.0,    4.9,    6.4,    6.7,    8.2,    7.0,  999.0,    5.1,    4.3,    0.6,  999.0,    3.7,    4.2,    4.0,    1.6,  999.0,  999.0,   -0.3,  999.0,   -2.9,  999.0,  999.0,  999.0,  999.0,   -1.9,   -6.4,   -5.9,   -5.4,   -6.2,   -6.7,  999.0,  999.0,  999.0,  999.0,  999.0,   -8.7,  999.0
2000/08/31 01:35,  -15.7,  -17.1,  -17.5,  -16.2,  -15.6,  -17.4,  -16.4,  -15.8,  -14.7,  -12.7,  -14.5,  -13.3,  -15.6,  -13.6,  -12.2,  -10.1,   -9.8,   -7.4,   -8.4,   -7.6,   -5.5,   -6.0,   -6.9,   -6.8,   -5.9,   -6.4,   -6.1,   -5.7,   -5.4,   -4.4,   -3.1,   -1.9,   -0.9,   -1.3,   -1.3,   -0.3,    0.1,   -0.4,   -1.3,   -2.1,   -0.5,    0.9,    0.6,    0.9,    1.9,    2.2,    3.7,    6.2,    7.2,    5.8,    5.2,    2.4,    1.2,    0.5,    0.8,    1.3,    0.5,  999.0,  999.0,  999.0,  999.0,    0.8,    1.9,    2.2,    1.1,    0.7,   -0.3,   -1.2,    1.1,    3.2,  999.0,    4.3,  999.0,  999.0,  999.0,  999.0,  999.0,  999.0,   14.4,   16.8,   16.8,   13.5,   11.8,  999.0,    6.9,    7.0,  999.0,    7.0,    4.5,  999.0,  999.0,  999.0,  999.0,  999.0,    3.2,    3.7,    2.6,    1.4,    0.7,  999.0,  999.0,    1.1,  999.0,    0.9,  999.0,  999.0,    1.8,  999.0,   -5.0,   -5.5,   -5.3,   -6.4,   -8.0,   -4.3,  999.0,  999.0,  999.0,  999.0,  999.0,  999.0
2000/08/31 01:45,  -16.2,  -15.5,  -14.7,  -13.1,  -12.5,  -13.2,  -12.8,  -13.5,  -11.2,   -9.7,   -9.3,   -8.5,   -7.7,   -9.2,   -7.7,   -7.0,   -5.5,   -1.1,   -4.1,   -5.0,   -3.6,  999.0,   -6.8,   -6.4,   -6.5,   -6.3,   -6.5,   -6.3,   -5.4,   -4.4,   -1.7,    0.5,    1.4,    0.2,   -1.1,   -0.7,    0.4,   -1.2,   -1.5,   -2.7,   -1.5,    0.8,    0.1,    1.6,    2.0,    2.3,    4.1,    6.1,    7.0,    6.1,    5.0,    2.1,    0.1,   -1.9,   -0.3,  999.0,    3.7,    0.4,  999.0,  999.0,  999.0,  999.0,    0.5,    1.4,    1.4,    0.6,   -0.5,    0.0,    2.2,    3.8,    4.9,    3.7,  999.0,   -1.3,   13.4,  999.0,  999.0,  999.0,   16.0,   17.8,   16.6,   14.8,   11.2,   11.3,    8.9,    7.8,    6.7,    7.0,    5.1,  999.0,  999.0,  999.0,  999.0,  999.0,    3.8,    4.7,    3.3,  999.0,  999.0,  999.0,   -2.0,  999.0,  999.0,  999.0,  999.0,  999.0,  999.0,  999.0,  999.0,   -5.5,   -5.3,   -6.4,   -7.6,   -7.0,  999.0,  999.0,   -3.3,  999.0,   -8.5,   -6.1
2000/08/31 01:55,  -12.0,  -12.6,  -13.1,  -13.0,  -12.9,  -12.6,  -12.7,  -12.2,  -12.7,  -12.3,  -11.5,  -10.7,   -9.5,   -8.2,   -6.3,   -4.7,   -3.3,   -3.0,   -3.4,   -2.4,   -4.2,   -5.2,   -5.9,   -5.7,   -5.8,   -6.0,   -6.0,   -6.0,   -5.1,   -2.7,    0.6,    1.8,    2.1,    1.1,    0.7,    0.5,    0.4,   -1.1,   -1.6,   -1.6,   -1.2,    1.0,    0.6,   -0.2,    0.5,    1.0,    1.7,    2.9,    4.7,    5.7,    4.4,    2.6,    0.5,   -1.6,   -3.4,  999.0,  999.0,   -0.2,   -0.3,    0.0,    1.0,    1.3,    1.5,    1.4,    1.3,    0.0,   -0.1,   -1.1,    3.4,    3.9,    5.0,    6.9,   11.5,   12.0,  999.0,   12.3,  999.0,  999.0,   10.5,   19.2,   16.8,   15.7,   12.6,   10.9,    5.0,    8.3,    7.4,    6.0,    6.6,  999.0,  999.0,   -2.0,  999.0,  999.0,    3.6,    4.0,   -3.5,  999.0,  999.0,  999.0,  999.0,  999.0,    1.0,  999.0,  999.0,  999.0,  999.0,  999.0,  999.0,   -5.7,   -4.5,   -6.7,   -7.2,  999.0,  999.0,   -2.7,  999.0,  999.0,   -8.9,  999.0
2000/08/31 02:05,  -15.9,  -13.6,  -13.0,  -12.2,  -13.3,  -13.0,  -11.8,  -10.7,  -10.8,  -10.0,   -9.2,   -8.5,   -8.3,   -5.7,   -4.7,   -2.3,   -0.7,   -1.6,   -2.2,   -1.7,   -2.2,   -3.8,   -4.9,   -6.2,   -6.9,   -6.4,   -6.3,   -5.8,   -4.7,   -1.9,    0.1,    1.2,    1.7,    1.0,    0.6,    0.2,   -0.2,    0.3,    0.7,    0.1,    0.7,    2.8,    5.9,    5.4,    3.0,    2.2,    2.7,    2.9,    3.0,    4.8,    4.2,    3.8,    0.4,   -0.6,   -2.8,   -0.6,   -0.8,   -2.4,   -1.5,   -0.8,   -0.0,   -0.6,    1.0,    0.1,   -0.7,   -1.4,   -2.1,   -0.9,    1.7,    3.2,    4.4,    3.8,    9.9,  999.0,   11.6,   12.7,  999.0,  999.0,   14.9,   17.1,   16.0,  999.0,   13.1,  999.0,    7.4,    6.6,    6.4,    5.2,    4.7,  999.0,  999.0,  999.0,    0.0,   -1.4,    2.4,    3.5,    2.2,  999.0,  999.0,  999.0,    0.7,  999.0,  999.0,  999.0,  999.0,  999.0,  999.0,  999.0,   -4.2,   -4.4,  999.0,   -6.3,   -7.1,    1.5,  999.0,  999.0,   -1.5,  999.0,  999.0,  999.0
2000/08/31 02:15,  -14.3,  -13.8,  -14.3,  -13.0,  -13.3,  -12.4,  -12.5,  -11.0,  -10.2,   -9.8,   -8.5,   -6.3,   -5.3,   -5.5,   -5.2,   -3.6,   -1.0,   -0.2,   -0.4,    0.2,    0.0,   -1.1,   -2.3,   -3.4,   -4.8,   -5.8,   -5.4,   -4.6,   -2.6,   -0.0,    2.3,    4.7,    4.9,    3.0,    1.7,    0.4,    0.1,    0.1,   -1.1,   -1.2,   -0.6,    1.1,    0.7,   -1.6,    0.3,    0.2,    0.8,    3.3,    4.7,    2.0,   -1.2,   -2.7,   -0.7,   -4.3,   -2.9,   -2.2,   -4.2,  999.0,   -1.4,   -2.5,   -0.9,   -0.2,   -0.1,   -1.2,   -2.0,   -2.4,   -1.2,   -0.9,    0.4,    2.8,    5.6,   11.2,   12.8,  999.0,  999.0,    1.8,   -3.0,  999.0,   14.6,   16.5,   17.0,   15.3,  999.0,  999.0,  999.0,  999.0,    5.5,    6.0,    5.2,  999.0,   -2.8,  999.0,  999.0,  999.0,  999.0,    3.3,    3.8,   -1.4,  999.0,   -2.9,  999.0,  999.0,  999.0,    0.6,   -3.4,  999.0,  999.0,  999.0,  999.0,  999.0,  999.0,   -6.3,   -6.6,  999.0,  999.0,  999.0,  999.0,  999.0,  999.0,  999.0
2000/08/31 02:25,  -14.1,  -13.9,  -13.2,  -12.5,  -12.7,  -11.7,  -11.2,  -10.4,  -10.7,   -8.7,   -6.2,   -6.0,   -4.0,   -3.0,   -2.7,   -1.3,   -1.1,   -0.8,   -0.6,   -0.3,    0.1,   -0.7,   -2.0,   -3.2,   -4.6,   -5.0,   -5.3,   -4.4,   -3.2,   -1.5,    0.8,    2.5,    3.6,    2.9,    1.0,   -0.5,   -0.7,   -0.8,   -1.6,   -0.8,    0.7,    2.8,    2.0,   -0.4,   -0.6,    0.7,    1.7,    2.1,    4.4,    3.1,   -1.5,   -2.9,   -2.2,   -1.6,   -0.7,   -0.6,    0.4,   -0.5,   -1.1,   -2.2,    0.6,    3.4,    1.9,    0.2,   -0.5,   -1.6,   -1.2,    0.8,    2.0,    4.0,    8.9,   10.5,   10.2,    0.7,    0.9,    0.9,  999.0,  999.0,  999.0,   16.5,   18.4,    1.1,  999.0,  999.0,   -2.1,    1.4,    6.7,    6.0,    4.1,    4.1,  999.0,   -3.6,  999.0,  999.0,  999.0,   -0.7,  999.0,   -1.2,  999.0,  999.0,   -1.0,  999.0,  999.0,  999.0,  999.0,  999.0,  999.0,    4.2,  999.0,  999.0,  999.0,   -4.8,  999.0,   -4.5,  999.0,    0.2,  999.0,  999.0,  999.0,  999.0
2000/08/31 02:35,  -13.2,  -12.8,  -13.4,  -12.8,  -11.9,  -11.9,  -12.3,  -11.1,   -9.7,   -9.5,   -8.7,   -6.3,   -4.9,   -3.5,   -1.3,    0.5,    0.9,    2.2,    2.1,    1.2,    1.0,    0.2,   -1.2,   -2.4,   -3.9,   -4.4,   -4.5,   -3.0,   -1.7,    0.4,    3.0,    4.4,    4.1,    2.9,    1.3,   -0.1,   -0.6,   -0.8,   -1.1,   -0.4,    0.6,    0.9,   -0.3,   -1.6,   -1.4,   -0.7,   -0.1,    0.6,    1.2,   -1.4,   -2.6,   -3.5,   -2.1,   -0.6,    0.3,   -0.2,   -0.3,    0.0,    1.2,    3.6,    4.0,    3.2,    1.1,   -0.0,   -0.8,   -1.2,    0.6,    1.6,    2.5,    6.4,    9.4,   12.5,   12.8,  999.0,   12.6,   14.0,  999.0,  999.0,  999.0,   16.8,   18.1,   14.8,   13.1,  999.0,    8.1,    7.6,    5.9,    5.6,    4.6,  999.0,  999.0,    0.0,   -1.5,  999.0,  999.0,    2.8,    2.4,    2.0,  999.0,  999.0,  999.0,   -1.4,  999.0,  999.0,  999.0,  999.0,  999.0,  999.0,  999.0,   -5.8,  999.0,  999.0,   -6.3,    0.4,  999.0,  999.0,  999.0,  999.0,  999.0,  999.0
2000/08/31 02:45,  -15.3,  -15.7,  -14.9,  -14.4,  -14.3,  -13.7,  -12.4,  -12.8,  -11.5,  -11.0,   -9.5,   -8.0,   -6.1,   -4.6,   -1.7,    0.1,    1.3,    1.0,    0.9,   -0.3,   -1.2,   -1.9,   -1.8,   -1.5,   -2.7,   -4.4,   -4.8,   -4.2,   -2.4,   -0.2,    1.2,    2.8,    2.4,    1.5,   -0.3,   -0.4,   -0.0,   -0.2,   -0.3,    0.4,    0.9,    1.6,    0.5,   -0.1,   -1.2,   -1.2,    0.2,    0.9,    1.7,   -0.2,   -2.3,   -2.5,   -1.6,   -0.9,   -1.0,   -0.9,   -0.9,   -0.7,    0.9,    1.0,    2.2,    1.1,    0.0,   -1.2,   -2.5,   -2.6,   -0.5,    1.3,    2.0,    6.0,    9.4,   11.4,   12.8,  999.0,   12.7,  999.0,   12.9,  999.0,  999.0,   13.7,   16.0,   12.5,   10.1,  999.0,    5.4,    5.2,    4.5,    3.9,    3.5,    1.4,   -1.6,  999.0,  999.0,   -3.8,    1.0,    3.5,  999.0,    1.3,  999.0,  999.0,  999.0,  999.0,  999.0,  999.0,    2.9,  999.0,  999.0,  999.0,  999.0,   -4.9,   -5.7,   -6.1,   -6.4,  999.0,   -1.9,  999.0,  999.0,  999.0,  999.0,  999.0
2000/08/31 02:55,  -11.5,  -11.6,  -11.4,  -11.4,  -12.3,  -12.3,  -10.6,   -9.9,  -10.0,  -11.0,  -10.5,   -7.9,   -6.0,   -2.2,   -0.0,    0.5,    0.5,    0.8,    1.2,    1.0,    0.3,   -0.2,   -0.1,   -0.4,   -2.6,   -4.3,   -5.0,   -3.8,   -2.4,   -0.5,    0.4,    1.8,    2.4,    0.9,   -0.5,   -1.1,   -0.6,    0.0,   -0.1,    0.3,    1.8,    2.0,    0.1,   -1.1,   -1.9,   -1.5,   -0.1,    1.0,    1.4,   -1.3,   -2.1,   -1.7,    1.7,   -1.0,    0.2,   -0.0,    0.6,    1.2,    3.3,    3.0,    1.9,    0.4,   -0.5,   -1.8,   -2.4,   -1.0,    1.0,    1.8,    3.0,    6.2,    8.2,    7.9,   12.6,  999.0,   12.7,  999.0,    0.7,  999.0,   13.2,   16.0,   15.5,   14.3,   12.0,    7.0,    8.7,    4.2,    4.9,    4.8,    4.3,  999.0,    2.3,  999.0,   -1.2,  999.0,  999.0,    3.1,    3.3,  999.0,  999.0,  999.0,  999.0,  999.0,  999.0,  999.0,  999.0,  999.0,  999.0,    0.9,   -5.4,   -5.5,   -4.8,  999.0,   -3.4,   -1.6,  999.0,  999.0,  999.0,  999.0,  999.0,  999.0
2000/08/31 03:05,  -13.8,  -13.3,  -11.8,  -11.6,  -10.7,  -10.6,  -10.2,   -9.7,  -10.1,   -9.7,   -8.5,   -6.7,   -3.8,   -1.8,   -0.7,    0.1,   -0.2,    0.5,    0.8,    0.9,   -0.2,   -1.0,   -1.4,   -1.4,   -2.8,   -4.3,   -4.8,   -3.9,   -2.1,   -0.7,    0.4,    0.6,    0.9,    0.9,    0.8,    0.0,   -0.2,    0.2,    1.6,    2.0,    3.8,    2.9,    1.9,    0.3,    0.2,    1.0,    2.0,    1.2,   -0.7,   -1.9,   -1.3,   -0.9,   -0.7,   -0.6,   -0.2,    0.6,   -0.4,    0.5,    0.9,    1.0,    0.2,   -0.9,   -2.7,   -2.4,   -3.2,   -2.0,   -0.4,    0.8,    1.7,    2.7,    6.2,    8.8,   11.3,   10.9,  999.0,  999.0,   -1.0,   -3.4,  999.0,  999.0,   14.4,   14.3,   13.3,  999.0,    7.5,    5.0,    5.3,    4.4,    3.7,    0.0,    2.4,    1.4,    0.2,   -1.1,  999.0,    4.1,    3.3,    2.9,    2.3,  999.0,  999.0,    0.7,    2.0,    2.0,  999.0,  999.0,  999.0,  999.0,  999.0,   -4.8,  999.0,   -0.3,  999.0,  999.0,  999.0,  999.0,  999.0,  999.0,  999.0,  999.0
2000/08/31 03:15,  -14.1,  -13.5,  -13.5,  -11.9,  -11.0,  -10.2,  -10.3,  -10.5,   -9.1,   -8.2,   -7.4,   -5.3,   -2.6,   -1.6,    0.1,    0.9,    1.0,    1.3,    1.3,    1.0,   -1.1,   -0.9,   -1.5,   -2.1,   -2.5,   -4.2,   -5.4,   -4.8,   -3.0,   -1.8,   -0.6,   -0.2,   -1.0,    0.1,    0.0,   -1.0,   -0.9,    0.8,    1.8,    2.6,    3.4,    1.9,    0.3,   -0.9,   -0.4,    0.8,    0.5,   -0.9,   -2.0,   -3.1,   -2.7,   -1.8,   -1.0,    0.1,   -0.9,    0.1,   -0.2,    0.5,    1.4,    0.5,   -0.2,   -1.1,   -2.2,   -3.2,   -4.0,   -2.3,   -0.2,    0.8,    2.0,    4.5,    6.9,    9.5,   11.2,   12.9,   12.2,  999.0,   66.2,  999.0,  999.0,  999.0,  999.0,   14.9,   12.2,    8.4,    6.7,    4.5,    5.0,    4.3,    4.5,  999.0,   -0.7,  999.0,  999.0,  999.0,  999.0,  999.0,    5.0,    3.9,  999.0,  999.0,  999.0,  999.0,   -3.3,    2.9,  999.0,  999.0,  999.0,  999.0,  999.0,   -5.5,   -5.8,  999.0,  999.0,  999.0,  999.0,  999.0,  999.0,  999.0,  999.0,  999.0
2000/08/31 03:25,  -14.4,  -13.0,  -14.7,  -13.0,  -10.6,  -10.8,  -11.1,   -8.9,   -8.6,   -8.3,   -7.1,   -4.7,   -1.8,   -2.1,   -0.1,    0.2,    0.2,   -0.3,   -0.1,   -0.4,   -1.6,   -1.9,   -1.7,   -2.4,   -3.2,   -4.5,   -4.1,   -2.8,   -1.1,    0.4,    1.4,    2.0,    1.5,    1.8,    2.0,   -0.3,   -0.4,    0.3,    1.2,    2.7,    2.9,    2.1,    0.4,   -0.4,    0.0,    1.0,    0.4,   -1.0,   -1.7,   -1.3,   -0.2,   -0.7,    0.1,   -0.6,    0.4,   -0.6,   -0.5,    1.1,    1.4,    0.6,   -0.5,   -1.7,   -2.6,   -3.6,   -3.9,   -3.3,   -1.4,   -0.8,   -0.0,    2.5,    4.5,    7.2,   10.2,    4.8,  999.0,  999.0,   -0.2,  999.0,  999.0,  999.0,   12.8,   12.0,  999.0,  999.0,  999.0,    4.7,    4.1,    3.1,    2.9,    2.0,  999.0,  999.0,  999.0,  999.0,  999.0,    4.6,    4.2,    2.2,  999.0,  999.0,  999.0,    2.9,  999.0,    2.1,  999.0,  999.0,  999.0,  999.0,   -4.0,   -4.8,  999.0,   -1.9,  999.0,  999.0,  999.0,  999.0,  999.0,  999.0,  999.0,  999.0
2000/08/31 03:35,  -13.0,  -14.7,  -13.8,  -12.1,  -12.3,  -11.0,  -10.3,   -9.9,   -7.4,   -7.5,   -5.2,   -2.9,   -1.6,    0.2,    0.1,    0.4,    1.3,    0.1,   -0.7,   -2.0,   -2.4,   -2.2,   -1.6,   -2.4,   -2.9,   -4.2,   -4.3,   -3.4,   -1.8,   -1.2,   -1.0,   -0.3,   -0.2,    0.1,    0.2,   -0.1,   -0.7,   -0.8,    0.7,    1.5,    2.0,    1.2,    0.1,   -0.4,   -0.3,    0.4,    0.2,   -1.2,   -1.5,   -1.2,   -1.3,   -0.8,   -0.2,   -0.1,    1.0,    0.5,    2.3,    2.9,    2.3,    2.0,    1.5,   -0.5,   -1.7,   -2.5,   -3.0,   -2.2,   -0.6,   -0.0,    0.6,    3.1,    5.2,    7.9,   10.8,   12.2,    2.0,  999.0,  999.0,  999.0,  999.0,  999.0,   13.4,  999.0,  999.0,   -2.4,    6.0,    4.6,    4.1,    3.7,    3.0,    3.0,  999.0,    1.2,   -1.0,   -0.5,  999.0,    5.8,    3.8,  999.0,  999.0,  999.0,  999.0,  999.0,  999.0,  999.0,    1.3,  999.0,    1.3,  999.0,   -4.9,  999.0,  999.0,  999.0,  999.0,  999.0,  999.0,  999.0,  999.0,  999.0,  999.0,  999.0
2000/08/31 03:45,  -12.5,  -12.1,  -11.9,  -10.4,  -10.8,   -9.4,   -8.2,   -7.5,   -6.5,   -6.6,   -4.5,   -3.1,   -2.8,   -1.4,   -0.9,   -1.7,   -1.8,   -1.9,   -2.6,   -3.4,   -3.5,   -3.5,   -2.6,   -2.3,   -3.5,   -5.7,   -5.3,   -3.7,   -2.6,   -1.4,   -0.9,   -1.0,   -0.6,   -0.7,    0.3,   -0.4,    0.4,    0.3,    1.0,    1.5,    2.0,    1.1,   -0.0,   -1.0,   -0.7,    0.5,    0.6,   -0.7,   -1.6,   -1.7,   -1.3,   -0.8,   -1.4,   -0.7,   -0.5,    0.3,    1.1,    1.6,    1.9,    1.3,    1.4,   -0.3,   -1.8,   -3.3,   -3.9,   -3.5,   -1.4,   -1.1,   -0.5,    5.3,    3.5,    9.1,    8.5,   10.1,   12.1,   11.0,  999.0,    8.0,  999.0,   11.2,   11.0,    9.9,    6.5,    4.3,    1.1,    2.8,    2.1,    2.7,    2.1,    2.2,  999.0,  999.0,   -2.7,   -3.7,  999.0,    5.5,    5.1,    3.7,  999.0,  999.0,  999.0,  999.0,  999.0,   -1.6,  999.0,  999.0,  999.0,  999.0,   -4.9,   -6.0,  999.0,  999.0,  999.0,  999.0,  999.0,  999.0,  999.0,  999.0,  999.0,  999.0
2000/08/31 03:55,  -15.7,  -15.6,  -14.8,  -12.2,  -11.9,   -9.5,   -8.7,   -7.0,   -7.2,   -7.0,   -5.4,   -4.1,   -3.2,   -1.7,   -1.0,   -2.0,   -2.2,   -2.4,   -1.3,   -1.7,   -1.7,   -1.9,   -2.4,   -2.3,   -2.7,   -4.6,   -3.9,   -2.2,   -0.2,    0.6,    0.6,    0.1,   -0.1,   -0.3,   -0.1,   -0.4,    0.1,   -0.1,    0.7,    1.3,    1.0,   -0.0,   -1.5,   -2.0,   -0.6,    0.5,    0.6,   -0.9,   -1.2,   -1.0,   -0.7,   -0.9,   -0.6,   -0.2,    0.6,    0.5,    2.1,    2.4,    2.0,    0.8,    1.1,   -0.9,   -1.9,   -3.0,   -2.2,   -0.4,   -0.4,    1.0,    2.2,    4.3,    6.4,    8.4,   10.8,   13.0,  999.0,  999.0,  999.0,  999.0,   10.0,   13.8,   14.1,   13.0,  999.0,  999.0,    4.6,    4.2,    4.0,    3.1,    2.4,    2.3,  999.0,  999.0,   -1.7,  999.0,  999.0,    5.8,    5.2,  999.0,  999.0,    6.4,  999.0,  999.0,  999.0,   -0.9,  999.0,  999.0,  999.0,  999.0,   -5.5,   -6.8,   -5.0,   -5.0,  999.0,  999.0,  999.0,  999.0,   58.0,  999.0,  999.0,  999.0
2000/08/31 04:05,  -14.2,  -12.7,  -11.7,  -12.5,  -12.0,  -10.8,  -10.4,   -9.0,   -7.7,   -7.1,   -6.3,   -6.6,   -5.3,   -4.1,   -3.6,   -2.8,   -2.9,   -3.0,   -3.1,   -2.4,   -2.8,   -1.8,   -2.4,   -2.2,   -2.3,   -3.9,   -3.2,   -1.3,    0.7,    0.8,    0.4,   -0.3,   -0.8,   -0.6,   -0.2,    0.1,    0.3,    0.7,    0.4,    0.3,   -0.5,   -2.5,   -2.9,   -2.5,   -1.0,    0.7,    1.0,   -0.1,   -0.0,    0.1,    0.1,   -0.4,    0.2,   -0.1,    0.6,    1.5,    2.5,    2.2,    0.7,    1.4,   -1.5,   -2.4,   -3.9,   -4.2,   -1.9,   -0.7,   -0.1,    1.2,    2.7,    4.9,    7.1,    9.8,   12.4,  999.0,  999.0,  999.0,  999.0,  999.0,  999.0,   13.7,   14.8,   10.8,    8.7,    6.5,    5.3,    4.5,    4.5,    4.1,    2.7,    2.6,    3.1,    2.3,   -0.7,  999.0,  999.0,    6.6,    6.6,  999.0,  999.0,  999.0,    8.8,  999.0,  999.0,  999.0,  999.0,  999.0,    2.2,    2.6,   -5.2,   -7.8,  999.0,  999.0,  999.0,  999.0,  999.0,  999.0,  999.0,  999.0,  999.0,  999.0
2000/08/31 04:15,  -12.0,  -12.1,  -13.0,  -13.0,  -11.6,  -11.3,  -10.7,   -9.8,   -8.1,   -7.9,   -7.8,   -6.7,   -5.1,   -4.6,   -3.5,   -2.6,   -2.1,   -2.5,   -3.6,   -3.4,   -3.1,   -3.1,   -1.9,   -1.8,   -1.9,   -2.8,   -3.6,   -1.6,   -0.3,    0.4,    0.4,    0.1,   -1.0,   -1.2,   -0.5,    0.3,    0.7,    0.4,    0.8,    0.0,   -1.0,   -2.3,   -3.0,   -2.7,   -1.6,    0.3,    0.2,    0.2,   -0.3,   -0.3,   -0.1,   -0.3,    0.5,   -0.1,    1.2,    6.5,    2.9,    2.4,    0.7,   -0.3,   -2.4,   -3.4,    1.6,   -2.3,   -0.2,   -1.0,    0.9,    1.9,    2.9,    5.1,    7.7,   10.3,   12.6,  999.0,  999.0,  999.0,  999.0,  999.0,    8.9,   12.2,   13.2,   11.2,    8.3,    6.6,    4.8,    4.4,    4.3,    4.2,    3.6,    3.0,    3.3,    1.2,   -0.3,  999.0,  999.0,    5.6,    6.7,  999.0,  999.0,  999.0,  999.0,  999.0,  999.0,  999.0,  999.0,  999.0,   61.9,  999.0,  999.0,  999.0,  999.0,  999.0,  999.0,  999.0,  999.0,  999.0,  999.0,  999.0,  999.0,  999.0
2000/08/31 04:25,  -13.1,  -12.7,  -12.4,  -11.6,  -11.2,  -10.5,  -10.6,  -10.1,   -9.1,   -8.0,   -8.0,   -7.0,   -6.5,   -6.2,   -5.9,   -4.8,   -4.8,   -2.0,   -1.7,   -1.8,   -1.7,   -1.7,   -2.0,   -1.8,   -2.1,   -2.8,   -3.0,   -2.2,   -0.9,    0.3,    0.7,    0.6,   -1.0,   -1.5,   -0.9,    0.2,    0.9,    0.4,    0.2,    0.1,   -0.4,   -1.3,   -1.6,   -1.4,   -0.0,    1.0,    0.4,    0.1,    0.0,   -0.2,   -0.3,    0.4,   -0.0,   -0.2,    0.1,    1.2,    1.2,   -0.6,   -1.0,   -2.6,   -3.1,   -4.9,   -1.2,   -3.4,   -1.7,   -2.6,    3.4,   -0.1,    0.6,    3.7,    6.1,    9.0,   10.5,  999.0,  999.0,   28.7,  999.0,  999.0,   11.5,   13.5,   13.1,   10.8,   10.2,    8.6,  999.0,    3.6,    2.7,    2.5,    3.0,    5.8,    2.1,    7.2,    0.1,  999.0,  999.0,    6.6,    7.3,    4.4,  999.0,  999.0,  999.0,  999.0,  999.0,  999.0,  999.0,  999.0,  999.0,   -4.4,   -7.3,   -8.9,    8.1,   -5.1,  999.0,  999.0,  999.0,  999.0,  999.0,  999.0,  999.0,  999.0
2000/08/31 04:35,  -14.6,  -13.6,  -13.0,  -13.2,  -12.8,  -12.2,  -12.0,  -11.2,   -9.4,   -8.5,   -7.3,   -7.0,   -6.7,   -6.1,   -5.2,   -5.3,   -4.9,   -3.3,   -2.7,   -1.7,   -1.8,   -2.8,   -3.1,   -2.6,   -2.4,   -2.4,   -1.6,    0.1,    0.9,    1.3,    1.3,    0.3,   -1.9,   -1.3,   -0.7,   -0.4,    0.5,    0.0,    0.0,   -0.2,   -1.0,   -2.2,   -2.4,   -1.6,    0.2,    0.7,   -0.1,   -0.1,    0.4,    0.7,    0.3,    4.1,    0.0,    0.2,    0.5,    1.5,    1.1,    1.1,   -1.6,   -1.7,   -3.3,   -4.0,   -4.5,   -2.7,   -1.2,   -0.3,   -0.1,    0.6,    1.4,    5.1,   11.6,   10.3,  999.0,  999.0,  999.0,  999.0,   12.6,   19.1,   15.8,   18.9,   16.2,   13.1,    9.6,    7.2,    4.9,    4.8,    3.8,    4.4,    3.6,    3.3,   10.0,    4.2,  999.0,   -0.3,  999.0,    7.0,    7.6,  999.0,  999.0,  999.0,  999.0,  999.0,  999.0,  999.0,  999.0,  999.0,  999.0,  999.0,   -7.1,   -8.1,  999.0,   -4.6,  999.0,  999.0,  999.0,  999.0,  999.0,  999.0,  999.0,  999.0
2000/08/31 04:45,  -16.1,  -15.0,  -13.2,  -12.6,  -12.1,  -11.0,  -10.3,  -10.2,   -9.7,   -8.0,   -7.5,   -7.3,   -6.5,   -6.4,   -6.1,   -5.8,   -5.5,   -4.1,   -3.6,   -1.6,   -1.1,   -1.3,   -1.0,   -0.8,   -0.3,   -1.5,   -1.8,   -2.1,   -1.2,   -0.3,   -0.2,   -0.9,   -1.6,   -1.1,   -0.3,   -0.4,    0.0,    0.2,    0.0,   -0.6,   -2.7,   -3.5,   -3.1,   -1.9,   -0.4,   -0.2,   -1.7,   -2.3,   -1.6,   -1.6,   -1.4,   -0.7,   -0.3,    0.2,    0.6,    1.6,    6.0,    1.0,   -0.9,   -2.0,   -2.6,   -3.6,   -3.9,   -1.4,   -1.0,   -0.5,    5.0,    6.1,    2.8,   10.0,    8.2,   10.9,  999.0,  999.0,  999.0,  999.0,   12.4,   14.9,   17.2,   19.9,   17.5,   15.5,   12.5,  999.0,    6.7,    5.7,    6.5,    3.9,    4.3,    4.4,    3.2,    2.7,  999.0,  999.0,  999.0,  999.0,    6.1,    4.0,  999.0,  999.0,  999.0,  999.0,  999.0,  999.0,  999.0,  999.0,  999.0,  999.0,   -7.8,   -7.4,   -5.1,   -3.8,  999.0,  999.0,  999.0,  999.0,  999.0,  999.0,   24.7,  999.0
2000/08/31 04:55,  -15.8,  -14.1,  -13.8,  -12.6,  -13.1,  -12.3,  -11.5,  -10.7,   -9.6,   -8.8,   -8.2,   -8.6,   -8.2,   -7.2,   -6.1,   -5.1,   -4.7,   -3.4,   -2.9,   -1.8,   -1.9,   -2.0,   -0.5,   -0.5,   -0.8,   -1.2,   -1.4,   -1.8,   -1.3,   -0.6,   -0.9,   -1.2,   -1.5,   -1.1,   -1.3,   -0.9,    0.2,    0.6,    0.7,   -0.3,   -0.9,   -0.9,   -0.2,    1.7,    2.1,    1.2,    0.7,    0.7,    0.7,   -0.2,   -0.2,    0.1,    0.2,    0.5,    1.4,    6.2,    0.4,   -0.5,   -2.2,   -2.8,   -3.3,   -4.4,    2.6,   -2.5,   -1.9,   -1.3,    7.7,    5.0,    5.6,    4.5,    7.4,    9.8,  999.0,  999.0,  999.0,  999.0,   10.8,   13.4,   15.3,   17.3,   16.4,   12.5,   10.1,    8.3,   36.6,    6.3,    4.2,    2.6,    3.2,    2.7,    2.5,    2.4,    1.5,  999.0,  999.0,  999.0,    5.4,   17.8,    2.2,  999.0,  999.0,  999.0,  999.0,  999.0,  999.0,  999.0,  999.0,   -5.7,   -5.9,   -7.0,  999.0,   -3.6,  999.0,  999.0,  999.0,  999.0,  999.0,  999.0,  999.0,  999.0
2000/08/31 05:05,  -16.5,  -15.2,  -15.3,  -13.9,  -13.0,  -12.1,  -10.9,   -9.8,  -10.2,   -9.6,   -9.6,   -9.2,   -8.8,   -8.8,   -7.5,   -6.9,   -6.4,   -5.5,   -4.1,   -1.9,   -0.7,   -0.5,   -1.3,   -2.0,   -2.2,   -2.0,   -0.6,   -0.4,   -0.5,    0.0,    0.8,    0.3,    0.1,   -0.2,   -0.8,    0.2,   -0.1,    0.2,   -0.5,   -2.7,   -2.5,   -2.7,   -1.8,    0.0,    0.8,   -0.3,   -0.2,   -0.4,   -0.7,   -0.9,    0.3,    0.6,  999.0,  999.0,    2.6,    2.2,   14.4,   -0.8,  999.0,   -2.4,   10.7,  999.0,   -5.2,   -2.0,   -2.0,   -2.0,   12.5,   -1.3,   -0.0,    3.4,    6.3,  999.0,  999.0,  999.0,  999.0,  999.0,  999.0,   11.6,   20.6,   16.2,   16.7,   12.2,   10.4,    7.9,  999.0,  999.0,    3.9,    3.3,    2.8,    2.4,    2.5,    2.3,  999.0,  999.0,  999.0,  999.0,    4.6,  999.0,   23.9,  999.0,    6.8,  999.0,  999.0,  999.0,  999.0,  999.0,  999.0,   -5.3,  999.0,   -7.7,  999.0,   -2.9,  999.0,  999.0,  999.0,  999.0,  999.0,  999.0,  999.0,  999.0
2000/08/31 05:15,  -14.2,  -14.3,  -12.8,  -13.2,  -12.9,  -11.9,  -10.9,  -10.8,   -9.4,   -8.6,   -8.1,   -7.9,   -7.2,   -5.8,   -5.4,   -5.4,   -4.5,   -4.7,   -4.9,   -3.9,   -2.3,   -1.1,   -0.9,   -0.9,   -1.3,   -1.3,   -1.8,   -0.7,   -0.5,   -0.2,    0.4,    0.1,   -0.8,   -1.5,   -2.9,   -0.4,    0.1,   -0.1,   -1.7,   -1.7,   -1.8,   -1.3,   -0.4,    0.8,    0.8,   -0.1,   -0.4,   -0.3,   -0.3,    0.0,   -0.2,    0.2,   -0.0,    0.1,    2.3,    1.4,    1.0,   -0.3,   -2.7,   -3.9,   -4.6,   -5.3,   -4.2,   -2.5,    6.4,   -1.4,    7.1,   -0.4,    1.2,    4.1,    6.7,  999.0,  999.0,  999.0,  999.0,    9.0,   10.3,   12.2,   15.1,   17.9,  999.0,  999.0,   11.4,  999.0,  999.0,    4.3,  999.0,    2.8,    2.8,   23.9,    3.8,    3.1,  999.0,  999.0,  999.0,    6.8,    6.6,    6.2,  999.0,  999.0,  999.0,  999.0,  999.0,  999.0,  999.0,  999.0,  999.0,  999.0,  999.0,  999.0,  999.0,  999.0,   -3.5,  999.0,  999.0,  999.0,  999.0,  999.0,  999.0,  999.0
2000/08/31 05:25,  -13.8,  -13.9,  -15.0,  -15.7,  -14.0,  -13.7,  -12.5,  -10.4,  -10.8,   -9.8,   -7.1,   -8.1,   -7.6,   -7.1,   -6.2,   -5.9,   -5.5,   -4.8,   -5.5,   -5.3,   -3.6,   -1.8,   -1.3,   -1.0,   -0.8,   -1.0,   -1.2,    0.0,   -0.4,   -0.4,    0.2,    0.3,   -1.2,   -2.0,   -1.6,    0.1,    0.2,   -1.3,   -3.0,   -2.8,   -3.4,   -1.7,   -0.7,    1.2,    0.7,   -0.2,    0.2,   -0.0,    0.9,    0.1,    0.3,    0.3,    0.1,    2.5,    1.8,    0.7,    1.1,  999.0,   -2.0,   -3.5,   -5.5,   -5.8,   -2.9,    6.4,   -3.1,   -1.7,   -2.5,   -1.8,   -0.1,   13.5,    6.0,  999.0,  999.0,  999.0,  999.0,  999.0,  999.0,   12.8,   14.4,   16.5,  999.0,  999.0,   48.0,  999.0,    5.5,    3.9,  999.0,    2.1,    2.4,    1.5,    2.0,    1.8,  999.0,  999.0,  999.0,  999.0,    5.4,    5.7,  999.0,  999.0,    6.1,  999.0,  999.0,  999.0,  999.0,  999.0,  999.0,  999.0,  999.0,  999.0,  999.0,   -2.1,   -1.9,  999.0,  999.0,  999.0,  999.0,  999.0,  999.0,  999.0
2000/08/31 05:35,  -14.7,  -13.8,  -14.1,  -13.2,  -13.3,  -11.7,  -11.3,   -9.4,   -9.2,   -7.9,   -7.5,   -7.2,   -5.9,   -8.3,   -4.4,   -5.3,   -4.7,   -4.4,   -5.6,   -5.8,   -3.9,   -2.8,   -0.4,   -0.8,   -0.7,    0.0,   -0.8,   -0.5,   -0.8,   -1.0,   -0.7,   -0.6,   -1.9,   -2.4,   -2.3,   -0.7,   -0.3,   -2.4,   -3.7,   -3.3,   -3.1,   -1.7,   -1.1,    0.4,    1.4,    0.8,    0.2,    0.7,    0.0,   -0.1,    0.6,    0.0,    0.7,  999.0,    1.1,    1.5,  999.0,   -3.0,    7.6,   -3.4,   -6.7,   -7.7,   -4.2,   -2.9,    9.8,   -1.4,   -1.8,   -1.3,    0.8,    4.0,    5.7,  999.0,  999.0,   48.2,  999.0,   30.9,  999.0,  999.0,   16.1,   16.6,  999.0,  999.0,  999.0,  999.0,  999.0,    5.0,    3.5,  999.0,    2.5,    3.7,    3.0,    3.5,  999.0,  999.0,  999.0,  999.0,    6.5,   29.1,  999.0,  999.0,    6.9,  999.0,  999.0,  999.0,  999.0,  999.0,  999.0,  999.0,  999.0,  999.0,  999.0,  999.0,   39.3,  999.0,  999.0,  999.0,   -6.7,  999.0,  999.0,  999.0
2000/08/31 05:45,  -14.5,  -13.0,  -13.2,  -13.6,  -12.3,  -11.2,  -10.5,  -10.9,  -10.7,   -7.1,   -7.6,   -8.3,   -7.0,   -6.2,   -6.2,   -6.0,   -5.0,   -6.1,   -5.5,   -5.2,   -3.9,   -1.9,   -1.1,   -1.2,   -1.5,   -0.7,   -0.5,   -0.0,   -0.6,   -1.6,   -1.1,   -1.3,   -2.2,   -2.2,   -3.1,   -1.4,    0.5,    0.3,   -2.2,   -1.9,   -2.1,   -1.4,   -0.5,    0.5,    0.5,    0.6,    0.3,    0.3,   -0.0,    0.3,    1.4,   16.2,    0.6,    2.1,    1.4,   14.7,    1.7,   13.4,   -5.6,  999.0,  999.0,   -7.1,   -5.4,   -4.4,  999.0,   -2.0,   -2.5,   -3.0,    0.2,   13.6,    5.9,  999.0,  999.0,  999.0,  999.0,  999.0,  999.0,   11.7,   13.3,   15.8,   14.8,  999.0,  999.0,  999.0,  999.0,  999.0,  999.0,  999.0,  999.0,    2.5,    2.8,    4.5,    3.1,  999.0,  999.0,  999.0,    4.9,  999.0,  999.0,  999.0,  999.0,  999.0,  999.0,  999.0,  999.0,  999.0,   49.5,  999.0,  999.0,  999.0,  999.0,  999.0,  999.0,  999.0,  999.0,  999.0,   40.3,  999.0,  999.0,  999.0
2000/08/31 05:55,  -16.7,  -15.1,  -14.6,  -13.1,  -13.0,  -13.1,  -13.0,  -12.3,  -12.5,  -12.0,  -12.0,  -11.0,   -9.9,  -10.5,   -9.3,   -7.8,   -6.3,   -6.2,   -5.9,   -5.4,   -4.5,   -3.3,   -0.8,   -1.1,   -1.3,   -0.9,    0.1,   -0.9,   -2.1,   -1.1,   -0.6,   -1.1,   -1.3,   -1.1,   -1.9,   -1.1,    1.0,    1.0,   -1.4,   -2.2,   -2.3,   -0.8,   -0.7,   -0.1,    0.1,    0.3,    0.3,    0.5,   -0.1,    0.6,    1.0,    0.1,    1.9,    2.7,    0.7,   24.7,   -5.2,   -2.1,   -3.3,   -3.7,   -5.3,   -5.0,   -5.4,   -4.9,   -3.8,   -1.4,   -1.9,   -1.4,    0.9,   12.0,    5.5,  999.0,   10.0,  999.0,  999.0,  999.0,  999.0,   11.6,   24.3,   16.8,   15.8,   13.4,  999.0,    8.4,    8.1,    5.4,  999.0,    0.5,    1.3,   16.8,    3.5,    3.4,    3.5,  999.0,  999.0,    3.6,    5.4,  999.0,  999.0,  999.0,  999.0,  999.0,  999.0,  999.0,  999.0,  999.0,  999.0,  999.0,  999.0,  999.0,  999.0,  999.0,  999.0,  999.0,  999.0,  999.0,  999.0,  999.0,  999.0,  999.0
2000/08/31 06:05,  -15.5,  -14.9,  -14.5,  -13.1,  -12.3,  -11.0,  -12.2,  -12.5,  -11.9,  -11.8,  -11.5,  -11.4,  -11.6,  -11.4,  -10.2,   -5.9,   -5.7,   -6.0,   -5.2,   -4.2,   -2.3,   -2.3,   -1.1,   -2.2,   -1.4,   -0.7,   -0.2,   -0.8,   -1.3,   -1.4,   -1.3,   -1.8,   -0.7,   -1.5,   -2.0,   -1.1,    0.1,    0.1,   -2.2,   -3.4,   -3.2,   -2.5,   -1.1,   -0.8,    0.7,    0.7,    0.3,    0.1,   -0.5,    0.2,    0.8,  999.0,    0.8,    0.9,    1.5,   14.7,   -2.4,   -4.0,   -3.5,   -4.9,   -5.3,   18.7,   -6.3,  999.0,   -3.8,  999.0,   -3.4,   -1.9,    0.8,    2.5,    6.1,   47.6,    8.8,  999.0,  999.0,  999.0,  999.0,   11.9,   13.3,   15.7,   14.9,   13.6,  999.0,    6.6,    6.9,    3.4,  999.0,  999.0,    1.0,    1.6,    2.9,    2.4,  999.0,  999.0,  999.0,  999.0,    5.1,  999.0,  999.0,  999.0,  999.0,  999.0,  999.0,  999.0,  999.0,  999.0,  999.0,  999.0,  999.0,  999.0,  999.0,  999.0,  999.0,   48.9,  999.0,  999.0,  999.0,  999.0,  999.0,  999.0
2000/08/31 06:15,  -16.8,  -18.1,  -17.8,  -15.0,  -14.5,  -14.2,  -13.8,  -13.6,  -12.7,  -12.2,   -9.9,   -9.7,   -9.9,   -8.5,   -9.1,   -6.7,   -4.4,   -2.7,   -2.3,   -2.2,   -2.3,   -2.4,   -2.2,   -1.8,   -0.2,    1.3,    0.8,   -0.5,   -0.6,   -0.4,   -0.6,   -1.3,   -2.1,   -2.6,   -2.6,    0.1,    0.6,   -0.2,   -1.9,   -2.8,   -2.8,   -1.2,   -0.7,   -0.3,    0.3,    0.2,    0.2,    0.4,    0.0,    0.1,    0.8,    0.6,    0.5,    1.4,    1.0,   -0.5,   -1.3,   -3.0,   -3.4,   -4.4,   -4.7,   -4.8,   -5.7,   -3.1,   -2.6,   -3.0,   -2.7,   -0.3,    2.0,    5.1,    7.8,    8.2,    8.9,  999.0,  999.0,  999.0,    9.8,  999.0,   14.7,   14.7,   13.8,   11.3,    8.9,  999.0,    5.2,    1.6,  999.0,    1.0,    0.8,    1.0,    0.9,    1.4,  999.0,  999.0,  999.0,  999.0,    4.4,  999.0,  999.0,  999.0,  999.0,  999.0,  999.0,  999.0,  999.0,  999.0,  999.0,  999.0,  999.0,  999.0,  999.0,  999.0,   41.8,   32.5,  999.0,  999.0,   -7.8,  999.0,  999.0,  999.0
2000/08/31 06:25,  -17.2,  -16.0,  -14.7,  -14.2,  -13.5,  -13.0,  -13.2,  -12.9,  -12.4,  -12.8,  -11.9,  -11.1,  -11.6,  -10.6,  -11.3,  -10.1,   -6.7,   -6.2,   -5.0,   -4.3,   -2.8,   -2.5,   -2.1,   -1.5,   -2.0,   -0.7,   -0.6,   -0.7,   -1.2,   -1.0,   -0.9,   -1.3,   -1.6,   -2.1,   -2.3,   -0.6,    0.0,   -0.5,   -2.8,   -3.0,   -3.0,   -2.1,   -1.4,   -1.0,    0.0,   -0.2,   -0.1,   -0.4,   -0.7,   -1.2,   -0.4,    0.1,    0.5,    1.5,    0.1,   -0.8,   -1.5,   -2.8,   -3.5,    6.8,    5.1,   -4.1,   -4.3,   -3.2,   -2.9,    7.7,   -2.2,    0.3,    9.4,    4.7,   14.9,   45.6,  999.0,  999.0,  999.0,  999.0,    9.7,  999.0,  999.0,   14.6,   15.6,   13.0,    6.9,  999.0,    6.9,    2.8,  999.0,  999.0,  999.0,  999.0,    0.4,    0.7,  999.0,  999.0,  999.0,  999.0,  999.0,    2.9,  999.0,  999.0,  999.0,  999.0,  999.0,  999.0,  999.0,  999.0,  999.0,  999.0,  999.0,  999.0,  999.0,  999.0,   40.8,  999.0,  999.0,  999.0,   -8.0,  999.0,  999.0,  999.0
2000/08/31 06:35,  -14.2,  -11.6,  -11.9,  -11.9,  -12.1,  -13.1,  -13.0,  -12.6,  -12.2,  -12.2,  -13.6,  -13.5,  -12.4,  -12.0,  -11.3,   -9.8,   -8.5,   -8.0,   -6.1,   -4.6,   -2.4,   -1.5,   -1.4,   -1.5,   -1.0,    0.2,   -1.5,   -3.2,   -3.2,   -2.7,   -2.8,   -3.0,   -3.3,   -3.0,   -3.0,   -1.0,   -0.4,   -0.6,   -3.2,   -3.0,   -2.9,    4.0,   -1.7,    4.4,    0.2,    0.2,   -0.0,    0.1,    5.8,    7.0,   -0.4,  999.0,    0.2,    6.8,    0.6,   -1.2,   -1.7,   -2.1,   -3.6,   -4.2,    2.5,   -4.6,   -4.9,   -3.0,   -3.4,   -2.9,   -2.3,   -0.2,    1.7,   11.6,   14.7,    7.9,   11.0,  999.0,  999.0,    6.3,    8.9,  999.0,  999.0,  999.0,   15.1,   13.0,    9.3,  999.0,  999.0,    4.2,  999.0,  999.0,  999.0,  999.0,    1.4,    1.1,  999.0,  999.0,  999.0,  999.0,  999.0,    2.0,  999.0,  999.0,  999.0,  999.0,  999.0,  999.0,  999.0,  999.0,  999.0,  999.0,  999.0,  999.0,  999.0,  999.0,  999.0,  999.0,  999.0,  999.0,   -8.9,  999.0,  999.0,  999.0
2000/08/31 06:45,  -14.4,  -14.2,  -11.9,  -11.5,  -12.1,  -11.8,  -11.7,  -11.3,  -11.8,  -11.2,  -12.4,  -13.4,  -13.6,  -13.4,  -11.8,  -10.6,   -9.3,   -8.8,   -7.7,   -5.4,   -3.4,   -2.7,   -2.3,   -1.7,   -1.8,   -1.3,   -2.0,   -3.1,   -3.4,   -3.1,   -2.3,   -2.3,   -2.6,   -3.3,   -2.7,   -1.1,   -0.3,   -0.2,   -2.9,   -3.1,   -3.7,   -2.9,   -0.6,    0.0,    0.7,    0.8,    1.0,    1.3,   10.1,    0.1,   -0.2,    0.8,    1.7,    2.4,    0.0,   -1.2,   -1.6,   -3.1,   -4.6,   -4.1,   -4.0,   12.4,   -4.5,  999.0,   -4.4,   -3.5,   -1.3,    1.4,    4.4,    5.4,    6.5,    9.4,  999.0,  999.0,    9.8,   10.2,   24.4,  999.0,  999.0,   14.6,   22.3,  999.0,  999.0,  999.0,  999.0,    3.6,    2.7,    2.6,  999.0,  999.0,    0.8,    0.3,   29.5,  999.0,  999.0,  999.0,  999.0,  999.0,  999.0,  999.0,  999.0,  999.0,  999.0,  999.0,  999.0,  999.0,  999.0,  999.0,  999.0,  999.0,  999.0,  999.0,  999.0,  999.0,  999.0,  999.0,   -9.3,  -11.2,  999.0,  999.0
2000/08/31 06:55,  -16.5,  -16.7,  -15.0,  -14.6,  -14.2,  -12.4,  -11.8,  -10.7,  -10.9,  -10.9,  -10.7,  -11.0,  -11.4,   -9.7,   -8.8,   -8.8,   -8.1,   -7.8,   -7.2,   -6.8,   -4.9,   -2.4,   -2.4,   -1.4,   -1.3,   -1.4,   -2.0,   -2.9,   -3.2,   -2.6,   -2.7,   -2.2,   -2.4,   -3.0,   -2.1,   -0.5,    0.3,   -0.3,   -3.1,   -3.1,   -3.3,    4.8,   -2.1,   -0.6,   -0.3,   -0.1,    0.1,   -0.2,   -0.2,   -0.3,    0.1,    0.0,    0.8,    0.4,   -0.5,  999.0,   -2.2,   -3.2,   -4.4,   -4.3,   -3.8,    4.9,   -4.0,   -3.0,   -4.1,    6.0,   -1.8,    0.4,  999.0,  999.0,    7.1,    8.2,  999.0,  999.0,    8.2,  999.0,  999.0,  999.0,  999.0,   14.6,   13.2,  999.0,  999.0,  999.0,    4.8,  999.0,  999.0,  999.0,  999.0,  999.0,    0.5,    1.2,  999.0,  999.0,  999.0,  999.0,  999.0,  999.0,  999.0,  999.0,  999.0,  999.0,  999.0,  999.0,  999.0,  999.0,  999.0,   -7.4,  999.0,  999.0,  999.0,  999.0,  999.0,  999.0,  999.0,   -6.4,   -7.5,  999.0,  999.0,  999.0
2000/08/31 07:05,  -15.1,  -14.9,  -13.7,  -13.8,  -14.4,  -13.8,  -13.7,  -11.5,  -10.6,  -10.5,  -10.8,   -9.0,   -9.9,   -8.8,   -7.9,   -7.3,   -6.6,   -5.8,   -5.5,   -6.3,   -5.2,   -2.9,   -0.4,   -1.5,   -1.5,   -1.5,   -1.5,   -1.9,   -1.2,   -1.7,   -2.1,   -2.9,   -3.5,   -4.4,   -2.7,   -1.4,   -0.2,   -1.0,   -3.2,   -3.1,   -3.4,   -2.2,   -1.0,   -0.3,    0.1,    0.3,    0.2,    6.3,    8.0,    0.8,    0.8,    0.8,    2.3,    0.9,  999.0,  999.0,   -2.5,   -3.5,    6.7,   -5.1,   -4.8,   -4.7,  999.0,   -3.6,   -3.9,   -2.2,   -0.8,  999.0,    3.8,    5.8,    7.7,  999.0,  999.0,  999.0,  999.0,   15.7,  999.0,  999.0,  999.0,  999.0,   14.5,   10.1,  999.0,    6.0,  999.0,    2.0,  999.0,  999.0,  999.0,   23.2,  999.0,    1.8,  999.0,  999.0,  999.0,  999.0,  999.0,  999.0,  999.0,  999.0,  999.0,  999.0,  999.0,  999.0,  999.0,  999.0,   36.6,  999.0,  999.0,   29.8,  999.0,  999.0,  999.0,  999.0,   -6.0,   -6.6,   -8.4,   -9.1,  999.0,  999.0
2000/08/31 07:15,  -16.4,  -16.0,  -17.0,  -17.4,  -17.6,  -16.4,  -16.5,  -15.5,  -15.9,  -13.8,  -11.8,  -11.0,  -11.2,  -10.8,   -9.8,   -8.6,   -7.5,   -7.1,   -7.1,   -5.9,   -5.4,   -3.3,   -0.8,   -0.7,   -1.1,   -1.5,   -1.9,   -1.3,   -0.9,   -1.1,   -1.6,   -2.3,   -3.3,   -3.7,   -2.0,   -1.0,   -0.3,   -1.5,   -4.2,   -3.6,   -3.7,   -2.5,   -1.7,   -0.9,   -0.4,   -0.4,   -0.4,   -0.7,   -1.1,    0.3,    0.6,    0.8,    1.5,    0.4,  999.0,    0.2,   -1.6,   -2.6,   -4.3,    4.4,    1.0,   -4.7,  999.0,   -4.1,   -3.8,   -3.3,   -2.4,   -0.5,    2.5,    4.6,    5.7,    7.8,    8.4,    9.8,    7.8,    7.7,  999.0,  999.0,  999.0,  999.0,   13.7,   11.3,    9.2,    5.1,    4.1,  999.0,  999.0,  999.0,  999.0,  999.0,  999.0,    0.8,   -0.2,  999.0,  999.0,  999.0,  999.0,  999.0,  999.0,  999.0,  999.0,  999.0,  999.0,  999.0,  999.0,  999.0,  999.0,   -9.3,  999.0,  999.0,   16.8,  999.0,  999.0,  999.0,  999.0,  999.0,  999.0,   -8.6,  999.0,  999.0
2000/08/31 07:25,  -17.1,  -16.7,  -16.2,  -16.2,  -15.1,  -14.8,  -14.0,  -13.0,  -12.6,  -13.4,  -13.3,  -12.6,  -10.9,  -10.8,   -9.1,   -7.0,   -6.5,   -5.9,   -5.7,   -5.7,   -5.4,   -3.6,   -1.6,   -2.0,   -2.1,   -2.7,   -3.5,   -4.2,   -3.2,   -2.9,   -2.6,   -2.6,   -2.8,   -3.2,   -2.1,   -0.9,   -0.0,   -0.9,   -3.7,   -3.0,   -3.1,   -2.0,   -1.5,   -1.0,   -0.8,   -0.2,    0.1,   -0.6,    0.1,    0.3,    1.1,    0.7,    0.9,   28.8,  999.0,   -2.1,   -2.3,   -3.1,   -3.6,   -4.3,    3.8,  999.0,   -4.4,   -3.5,   -3.5,   -2.9,   -1.0,    2.0,    2.3,    4.8,    6.3,  999.0,    8.5,    6.6,    7.4,  999.0,  999.0,  999.0,  999.0,  999.0,   13.2,   12.0,   10.5,  999.0,  999.0,  999.0,    3.3,  999.0,    0.3,  999.0,    1.0,    0.7,  999.0,  999.0,  999.0,  999.0,  999.0,  999.0,  999.0,  999.0,  999.0,  999.0,  999.0,  999.0,  999.0,   -2.5,  999.0,   -7.4,  999.0,   -4.9,  999.0,  999.0,  999.0,  999.0,  999.0,   -5.1,   -6.9,   -6.7,  999.0,  999.0
2000/08/31 07:35,  -15.5,  -15.7,  -15.2,  -15.2,  -15.3,  -14.8,  -13.4,  -11.6,   -9.5,  -10.6,  -11.9,  -12.7,  -13.5,  -12.8,  -10.0,   -9.0,   -6.5,   -6.1,   -4.8,   -4.4,   -3.7,   -2.5,   -2.8,   -4.0,   -4.6,   -4.4,   -5.5,   -6.2,   -5.5,   -5.2,   -3.9,   -3.4,   -3.6,   -3.7,   -2.9,   -1.7,   -0.8,   -0.7,   -3.8,   -3.1,   -3.5,   -2.1,   -1.4,   -1.0,   -0.2,    0.2,    0.5,    0.3,    0.4,    7.5,    1.4,    2.7,    2.8,    1.9,    0.9,  999.0,   -1.7,   -2.5,   -2.9,   -4.1,    1.6,   -4.8,   -4.8,   -2.6,    7.0,   -2.1,   -1.0,  999.0,  999.0,    5.1,  999.0,  999.0,    7.1,  999.0,  999.0,  999.0,  999.0,  999.0,  999.0,  999.0,   12.4,   12.5,  999.0,  999.0,  999.0,  999.0,  999.0,  999.0,  999.0,  999.0,    0.0,    0.9,  999.0,  999.0,   34.6,  999.0,  999.0,  999.0,  999.0,  999.0,  999.0,  999.0,  999.0,  999.0,  999.0,  999.0,  999.0,  999.0,  999.0,  999.0,  999.0,  999.0,  999.0,  999.0,  999.0,  999.0,   -8.7,  999.0,  999.0,  999.0
2000/08/31 07:45,  -15.4,  -15.0,  -15.0,  -14.6,  -14.6,  -13.8,  -13.1,  -12.4,  -11.0,  -10.8,   -9.5,   -9.7,  -11.5,  -11.7,  -10.4,   -8.5,   -7.2,   -6.2,   -5.8,   -5.5,   -3.7,   -3.0,   -4.4,   -5.1,   -4.4,   -3.9,   -5.0,   -6.2,   -5.3,   -4.5,   -3.2,   -3.0,   -3.3,   -3.5,   -2.3,   -1.4,   -1.0,   -2.3,   -4.2,   -4.0,   -4.6,   -3.0,   -2.2,   -2.1,   -1.3,   -0.4,   -0.7,   -0.4,   -0.0,    0.0,    0.6,    1.4,    1.9,  999.0,  999.0,  999.0,   -2.2,   -2.2,   -3.1,   -4.3,   -4.7,   -4.6,   -4.4,   -3.7,   -2.0,   -2.0,   -2.3,    1.8,    1.8,    4.8,    6.2,  999.0,    9.1,  999.0,  999.0,  999.0,  999.0,  999.0,  999.0,  999.0,   13.6,   12.1,  999.0,  999.0,  999.0,    3.5,    3.0,  999.0,  999.0,  999.0,  999.0,    0.8,  999.0,  999.0,  999.0,  999.0,  999.0,  999.0,  999.0,  999.0,  999.0,  999.0,  999.0,  999.0,  999.0,  999.0,  999.0,  999.0,  999.0,  999.0,  999.0,  999.0,  999.0,  999.0,  999.0,   -6.2,  999.0,  999.0,  999.0,  999.0
2000/08/31 07:55,  -14.2,  -11.7,  -12.6,  -11.6,  -10.7,  -10.5,  -10.1,  -10.6,  -10.4,   -9.3,   -8.9,   -7.5,   -8.8,   -8.8,   -6.9,   -5.7,   -5.3,   -6.0,   -4.8,   -3.4,   -2.3,   -1.8,   -3.6,   -4.0,   -4.2,   -5.1,   -6.0,   -7.2,   -6.3,   -5.8,   -4.8,   -4.5,   -4.9,   -4.8,   -4.3,   -2.7,   -1.3,   -2.0,   -2.9,   -3.0,   -3.2,   -3.3,   -2.4,   -2.2,   -1.3,   -0.7,   -0.2,   -0.6,    0.0,    0.2,    0.5,    0.8,    0.8,  999.0,  999.0,  999.0,  999.0,   -2.6,   -3.2,   -4.2,   -4.0,   -4.8,   -4.2,   -1.8,   -2.7,   -1.9,    0.3,    1.1,    3.4,    4.2,  999.0,    5.7,  999.0,  999.0,  999.0,  999.0,  999.0,  999.0,  999.0,  999.0,  999.0,   11.4,  999.0,  999.0,    5.7,    2.8,    2.1,    1.2,   -0.2,    0.7,    0.9,    0.7,  999.0,  999.0,  999.0,  999.0,  999.0,  999.0,  999.0,  999.0,  999.0,  999.0,  999.0,  999.0,  999.0,  999.0,   -7.5,   -7.5,  999.0,  999.0,  999.0,  999.0,  999.0,   -3.8,  999.0,  999.0,  999.0,  999.0,  999.0,  999.0
2000/08/31 08:05,  -14.0,  -13.4,  -12.0,  -11.0,  -11.4,  -10.2,   -9.3,   -8.2,   -7.9,   -8.3,   -8.6,   -7.6,   -8.2,   -8.9,   -9.0,   -6.3,   -5.6,   -6.1,   -6.0,   -5.5,   -4.9,   -4.7,   -4.2,   -4.5,   -3.5,   -4.5,   -5.3,   -6.2,   -6.6,   -5.9,   -5.0,   -4.2,   -5.1,   -4.5,   -2.8,   -2.0,   -1.2,   -2.5,   -2.9,   -2.9,   -3.1,   -2.4,   -1.9,   -0.9,   -0.6,   -0.6,   -0.4,   -0.2,    0.1,    0.6,    0.8,    8.1,    1.0,  999.0,  999.0,  999.0,   -0.9,   -2.4,   -3.3,   -3.7,   -4.3,   31.7,   32.7,   -1.2,   -0.9,   -0.7,    0.1,    1.1,  999.0,    4.1,    5.8,    6.6,    6.1,  999.0,  999.0,  999.0,  999.0,  999.0,  999.0,  999.0,   10.4,   10.7,  999.0,  999.0,  999.0,  999.0,  999.0,    0.7,    1.4,   -0.3,    0.4,    1.4,    0.5,  999.0,  999.0,  999.0,  999.0,  999.0,  999.0,  999.0,  999.0,   59.9,  999.0,  999.0,   33.0,  999.0,  999.0,  999.0,  999.0,  999.0,  999.0,  999.0,  999.0,  999.0,  999.0,   -7.8,  999.0,  999.0,  999.0,  999.0
2000/08/31 08:15,  -15.7,  -15.0,  -14.9,  -14.0,  -13.0,  -10.8,  -10.2,   -9.0,   -9.0,   -8.4,   -8.2,   -9.1,   -8.9,   -8.0,   -7.4,   -6.4,   -5.8,   -6.7,   -6.3,   -6.4,   -5.9,   -5.1,   -3.9,   -2.6,   -2.6,   -3.2,   -4.3,   -5.4,   -6.5,   -5.3,   -3.3,   -3.8,   -3.8,   -3.1,   -2.0,   -1.2,   -1.6,   -3.2,   -3.2,   -3.3,   -2.8,   -2.7,   -1.7,   -1.0,   -0.8,   -0.9,   -0.5,   -0.4,    0.3,    0.9,  999.0,    2.5,    1.8,    1.5,    0.7,  999.0,  999.0,   -2.1,   -2.0,   -4.6,   -3.5,   -3.8,  999.0,  999.0,  999.0,   -0.8,    0.2,  999.0,  999.0,    4.1,    4.6,    6.4,    7.4,    6.3,    7.3,  999.0,  999.0,  999.0,  999.0,  999.0,  999.0,   11.1,    9.5,  999.0,  999.0,  999.0,  999.0,    1.0,  999.0,  999.0,    0.4,    0.2,   -0.4,  999.0,  999.0,  999.0,  999.0,  999.0,  999.0,  999.0,  999.0,  999.0,  999.0,  999.0,  999.0,  999.0,  999.0,  999.0,  999.0,  999.0,  999.0,   -1.0,  999.0,  999.0,   -4.1,  999.0,  999.0,  999.0,  999.0,  999.0
2000/08/31 08:25,  -15.1,  -15.2,  -13.1,  -11.8,  -10.8,  -10.4,  -10.9,  -10.2,   -9.8,   -9.1,   -8.6,   -9.2,   -8.8,   -8.6,   -8.1,   -7.1,   -6.8,   -5.8,   -5.8,   -5.6,   -5.2,   -4.7,   -3.9,   -2.9,   -2.3,   -3.1,   -4.3,   -5.9,   -7.1,   -6.6,   -4.8,   -5.6,   -6.1,   -5.1,   -3.5,   -2.7,   -2.2,   -4.5,   -5.0,   -5.0,   -4.6,   -3.9,   -2.8,   -0.9,   -0.7,   -0.8,   -0.7,   -0.3,   -0.7,    0.7,    1.3,    1.7,    2.3,    2.5,  999.0,    0.8,  999.0,   -1.6,   -2.9,   -4.3,  999.0,  999.0,  999.0,  999.0,   -2.1,   -1.8,  999.0,   -0.2,    0.2,    2.0,    2.8,    5.6,    6.3,  999.0,  999.0,  999.0,  999.0,  999.0,  999.0,  999.0,  999.0,  999.0,  999.0,  999.0,  999.0,  999.0,  999.0,    0.5,    0.2,    1.3,    0.7,    0.7,  999.0,  999.0,  999.0,  999.0,  999.0,  999.0,  999.0,  999.0,  999.0,  999.0,  999.0,  999.0,  999.0,  999.0,  999.0,  999.0,  999.0,  999.0,  999.0,  999.0,  999.0,  999.0,  999.0,  999.0,  -10.2,  999.0,  999.0,  999.0
2000/08/31 08:35,  -14.5,  -14.7,  -14.9,  -14.0,  -14.1,  -13.3,  -12.7,  -11.8,  -11.5,  -11.2,  -10.2,   -8.9,   -8.4,   -8.5,   -8.0,   -6.2,   -5.0,   -4.1,   -4.3,   -4.2,   -4.9,   -4.5,   -3.6,   -2.7,   -2.4,   -2.4,   -3.8,   -5.1,   -5.5,   -5.4,   -5.4,   -5.8,   -7.0,   -7.7,   -6.0,   -3.0,   -2.7,   -4.4,   -5.1,   -5.6,   -5.5,   -4.2,   -3.2,   -1.3,   -1.1,   -0.9,   -1.3,   -1.2,   -1.1,   -0.5,    0.3,    1.4,    2.9,    1.5,  999.0,  999.0,  999.0,   -1.3,  999.0,   -3.5,   -3.6,   -2.2,   -2.3,  999.0,   -1.0,  999.0,    1.1,  999.0,  999.0,    3.7,    4.9,    6.0,    7.0,  999.0,  999.0,  999.0,  999.0,  999.0,  999.0,  999.0,  999.0,  999.0,  999.0,  999.0,  999.0,  999.0,  999.0,  999.0,  999.0,   -0.2,   -0.0,   -0.2,  999.0,  999.0,  999.0,  999.0,  999.0,  999.0,  999.0,  999.0,  999.0,  999.0,  999.0,  999.0,  999.0,  999.0,  999.0,  999.0,  999.0,  999.0,  999.0,  999.0,  999.0,  999.0,  999.0,  999.0,  999.0,  999.0,  999.0,  999.0
2000/08/31 08:45,  -14.2,  -14.0,  -13.6,  -13.1,  -14.1,  -14.7,  -14.6,  -13.5,  -12.8,  -11.0,  -11.2,  -10.6,   -8.4,   -7.3,   -6.8,   -5.7,   -5.3,   -3.4,   -2.6,   -3.3,   -2.8,   -3.2,   -3.4,   -2.4,   -1.6,   -1.8,   -2.9,   -4.9,   -5.7,   -4.8,   -3.9,   -4.6,   -4.7,   -5.4,   -4.5,   -3.1,   -3.2,   -4.2,   -4.9,   -4.9,   -3.7,   -3.4,   -1.2,    0.3,   -0.3,   -1.1,   -1.3,   -0.8,   -0.5,    0.5,    1.1,    1.9,  999.0,  -11.1,  999.0,  999.0,  999.0,   -1.5,  999.0,   -3.8,   -4.3,   -2.9,  999.0,  999.0,   -0.8,   -0.9,   -0.3,  999.0,  999.0,  999.0,    4.7,    5.2,    4.8,  999.0,  999.0,  999.0,  999.0,  999.0,  999.0,  999.0,  999.0,  999.0,  999.0,  999.0,  999.0,  999.0,  999.0,    0.2,  999.0,  999.0,    0.7,    0.3,  999.0,  999.0,  999.0,  999.0,    6.1,  999.0,  999.0,  999.0,  999.0,  999.0,  999.0,  999.0,  999.0,  999.0,  999.0,  999.0,  999.0,  999.0,  999.0,  999.0,  999.0,  999.0,  999.0,  999.0,  999.0,  999.0,  999.0,  999.0
2000/08/31 08:55,  -13.0,  -12.8,  -13.4,  -12.8,  -12.7,  -11.9,  -12.4,  -13.6,  -13.2,  -11.1,  -10.9,   -9.9,   -7.6,   -5.9,   -4.9,   -4.5,   -3.6,   -2.7,   -2.0,   -1.4,   -1.9,   -3.0,   -2.7,   -2.6,   -2.3,   -1.8,   -2.0,   -2.5,   -3.7,   -3.5,   -3.2,   -3.7,   -4.1,   -5.1,   -4.9,   -2.5,   -1.5,   -2.0,   -2.6,   -3.5,   -2.8,   -2.4,   -0.6,   -0.6,   -0.1,   -1.1,   -0.5,   -0.6,    0.5,    0.6,    1.9,    2.7,    2.6,    2.2,  999.0,  999.0,  999.0,  999.0,  999.0,   -3.2,  999.0,  999.0,  999.0,  999.0,  999.0,   -0.6,  999.0,  999.0,  999.0,    3.3,  999.0,  999.0,  999.0,  999.0,  999.0,  999.0,  999.0,  999.0,  999.0,  999.0,  999.0,  999.0,  999.0,  999.0,  999.0,  999.0,  999.0,  999.0,    0.4,  999.0,    0.9,    0.6,    0.1,  999.0,  999.0,    5.0,    4.7,  999.0,  999.0,  999.0,  999.0,  999.0,   -2.5,  999.0,  999.0,   -6.1,  999.0,  999.0,  999.0,  999.0,  999.0,  999.0,  999.0,  999.0,  999.0,   -6.0,  999.0,   -4.4,  999.0,  999.0
2000/08/31 09:05,  -14.2,  -13.0,  -11.9,  -10.6,   -8.9,   -8.8,   -8.2,   -8.3,  -10.9,  -10.9,   -9.5,   -9.0,   -8.1,   -5.0,   -3.7,   -3.8,   -4.0,   -3.2,   -2.7,   -1.1,   -1.9,   -3.6,   -2.6,   -2.9,   -2.7,   -2.5,   -2.7,   -3.2,   -2.9,   -3.0,   -2.0,   -2.1,   -3.1,   -4.1,   -5.5,   -4.3,   -2.7,   -1.5,   -1.5,   -2.4,   -2.8,   -1.5,   -1.2,   -0.4,   -0.4,   -2.1,   -1.5,   -0.0,    0.1,    0.8,    2.0,    1.9,    1.5,  999.0,  999.0,   -0.7,   -1.3,   -1.9,  999.0,  999.0,  999.0,   -2.7,  999.0,  999.0,   -0.8,  999.0,  999.0,  999.0,    2.5,    2.3,    3.7,    4.9,    5.4,  999.0,  999.0,  999.0,  999.0,  999.0,  999.0,  999.0,  999.0,  999.0,  999.0,  999.0,  999.0,  999.0,  999.0,  999.0,  999.0,  999.0,    1.4,    2.1,    0.3,  999.0,  999.0,  999.0,  999.0,  999.0,  999.0,  999.0,  999.0,  999.0,  999.0,  999.0,  999.0,   -8.0,   -9.6,  999.0,  999.0,  999.0,  999.0,  999.0,  999.0,  999.0,  999.0,  999.0,   -6.7,  999.0,  999.0,  999.0
2000/08/31 09:15,  -13.4,  -12.6,  -10.5,  -11.2,   -9.7,   -9.0,   -8.6,   -9.4,   -9.9,   -9.4,   -9.1,   -8.8,   -8.2,   -7.1,   -4.2,   -2.8,   -3.2,   -3.3,   -3.1,   -2.8,   -2.6,   -3.3,   -2.6,   -2.8,   -3.2,   -3.3,   -4.0,   -5.4,   -5.5,   -5.4,   -4.3,   -3.8,   -4.6,   -5.7,   -5.7,   -5.2,   -4.0,   -2.6,   -2.4,   -2.4,   -2.2,   -1.5,   -0.8,   -0.5,   -1.2,   -2.6,   -2.3,   -0.7,   -0.0,    0.5,    1.3,    2.5,    0.6,  999.0,  999.0,   -1.4,  999.0,   -3.8,   -4.3,  999.0,   -2.9,  999.0,   -1.3,   -0.7,  999.0,  999.0,  999.0,    1.6,    3.3,  999.0,  999.0,    5.1,    6.7,  999.0,  999.0,  999.0,  999.0,  999.0,  999.0,  999.0,  999.0,  999.0,  999.0,  999.0,  999.0,  999.0,  999.0,  999.0,  999.0,  999.0,    0.8,    0.2,  999.0,  999.0,  999.0,  999.0,  999.0,  999.0,  999.0,  999.0,  999.0,  999.0,  999.0,  999.0,  999.0,  999.0,   -8.3,  999.0,  999.0,  999.0,  999.0,  999.0,  999.0,  999.0,  999.0,  999.0,  999.0,  999.0,  999.0,  999.0
2000/08/31 09:25,  -13.4,  -13.3,  -13.9,  -11.0,  -10.2,  -10.3,  -10.0,   -9.2,   -8.1,   -7.7,   -7.4,   -7.1,   -7.8,   -6.1,   -3.4,   -3.1,   -1.7,   -1.0,   -0.7,   -1.0,   -1.2,   -1.8,   -2.3,   -2.4,   -3.5,   -3.9,   -3.7,   -4.7,   -5.3,   -5.7,   -4.5,   -2.5,   -2.9,   -4.2,   -4.9,   -4.9,   -3.9,   -3.2,   -2.8,   -2.7,   -1.6,   -1.2,   -0.5,   -1.2,   -1.9,   -2.7,   -2.1,   -0.8,   -0.1,    0.9,    1.9,    1.4,  999.0,  999.0,    0.2,  999.0,   -1.5,   -3.4,   -4.0,   -3.7,  999.0,  999.0,  999.0,    0.8,  999.0,    1.4,    1.0,    1.9,    3.4,    4.6,    5.1,    5.9,  999.0,  999.0,  999.0,  999.0,  999.0,  999.0,  999.0,  999.0,  999.0,  999.0,  999.0,  999.0,  999.0,  999.0,  999.0,  999.0,  999.0,    0.4,    0.8,   -0.3,   -0.9,  999.0,  999.0,  999.0,  999.0,  999.0,  999.0,  999.0,  999.0,  999.0,  999.0,  999.0,  999.0,  999.0,   -6.5,  999.0,  999.0,  999.0,  999.0,  999.0,  999.0,  999.0,  999.0,  999.0,  999.0,  999.0,  999.0,  999.0
2000/08/31 09:35,  -12.6,  -13.2,  -10.9,  -10.4,  -10.7,  -11.6,  -11.2,   -9.2,   -8.9,   -7.6,   -7.7,   -7.5,   -6.8,   -7.6,   -5.5,   -3.5,   -1.8,   -0.7,    0.5,   -0.2,   -1.6,   -1.9,   -2.3,   -3.0,   -3.3,   -2.9,   -3.8,   -4.8,   -5.8,   -5.5,   -4.3,   -3.6,   -2.9,   -3.9,   -4.6,   -5.0,   -4.2,   -3.6,   -3.8,   -3.3,   -2.7,   -1.1,   -0.5,   -1.1,   -1.8,   -4.1,   -2.6,   -2.2,   -1.3,    0.8,    1.2,    3.4,    2.1,  999.0,  999.0,   -2.3,  999.0,   -4.9,  999.0,  999.0,  999.0,   -3.0,  999.0,   -0.9,  999.0,    0.8,    0.6,  999.0,  999.0,  999.0,  999.0,    5.8,  999.0,  999.0,  999.0,  999.0,  999.0,  999.0,  999.0,  999.0,  999.0,  999.0,  999.0,  999.0,  999.0,  999.0,  999.0,  999.0,  999.0,   -0.3,    0.2,  999.0,  999.0,  999.0,  999.0,  999.0,  999.0,  999.0,  999.0,  999.0,  999.0,  999.0,  999.0,  999.0,  999.0,  999.0,   -8.2,  999.0,  999.0,  999.0,  999.0,  999.0,  999.0,  999.0,  999.0,  999.0,  999.0,  999.0,  999.0,  999.0
2000/08/31 09:45,  -13.2,  -13.1,  -11.5,  -11.0,  -10.5,  -10.8,  -11.0,  -10.0,   -9.2,   -8.6,   -8.4,   -6.8,   -5.8,   -6.2,   -6.1,   -4.7,   -3.2,   -1.9,   -1.4,   -0.2,   -0.2,   -0.3,   -2.1,   -3.1,   -4.0,   -4.6,   -5.4,   -6.3,   -6.2,   -6.2,   -4.6,   -3.0,   -3.8,   -4.6,   -4.7,   -4.0,   -3.7,   -4.1,   -4.7,   -4.2,   -2.1,   -0.9,    0.3,   -0.5,   -0.8,   -2.8,   -1.8,   -0.4,    0.6,    0.9,    2.2,    2.6,    0.9,  999.0,    0.5,   -1.2,  999.0,   -2.5,   -4.7,   -2.1,  999.0,  999.0,    0.8,  999.0,    0.0,    0.7,    1.0,  999.0,  999.0,  999.0,    4.2,    5.0,    4.8,  999.0,  999.0,  999.0,  999.0,  999.0,  999.0,  999.0,  999.0,  999.0,  999.0,  999.0,  999.0,   60.5,  999.0,  999.0,  999.0,   -1.1,   -0.2,  999.0,   -1.9,  999.0,  999.0,  999.0,  999.0,  999.0,  999.0,  999.0,  999.0,  999.0,  999.0,  999.0,  999.0,  999.0,  999.0,  999.0,  999.0,  999.0,  999.0,  999.0,  999.0,  999.0,  999.0,  999.0,  999.0,  999.0,  999.0,  999.0
2000/08/31 09:55,  -11.3,  -10.4,  -10.7,  -11.3,  -11.0,  -10.6,  -11.2,  -11.4,  -10.5,   -9.6,   -9.5,   -8.3,   -5.8,   -5.4,   -6.2,   -6.2,   -4.5,   -3.7,   -1.2,    0.2,    0.3,    0.3,   -1.7,   -2.3,   -2.8,   -3.1,   -3.9,   -5.5,   -5.6,   -4.8,   -3.9,   -3.0,   -3.2,   -3.8,   -3.9,   -3.5,   -2.9,   -4.9,   -5.1,   -5.0,   -2.8,   -1.7,   -0.5,   -1.3,   -1.7,   -3.4,   -2.2,   -1.5,   -1.3,    0.1,    1.0,    1.0,  999.0,   33.8,  999.0,  999.0,   -0.9,   -2.8,   -2.4,  999.0,  999.0,  999.0,  999.0,    1.0,  999.0,  999.0,  999.0,  999.0,  999.0,  999.0,    6.0,    6.6,  999.0,  999.0,  999.0,  999.0,  999.0,  999.0,  999.0,  999.0,  999.0,  999.0,  999.0,  999.0,  999.0,  999.0,  999.0,  999.0,  999.0,   -0.3,   -0.3,   -1.8,    0.4,    1.8,  999.0,  999.0,  999.0,  999.0,  999.0,  999.0,  999.0,  999.0,  999.0,  999.0,  999.0,  999.0,   -4.0,   -8.1,   -7.2,  999.0,  999.0,  999.0,  999.0,  999.0,  999.0,  999.0,  999.0,  999.0,  999.0,  999.0
2000/08/31 10:05,  -12.6,  -12.0,  -11.8,  -12.5,  -11.6,  -10.5,  -11.1,  -11.4,  -10.7,   -9.6,   -9.8,   -8.7,   -5.7,   -7.6,   -5.4,   -5.1,   -3.6,   -3.0,   -0.6,    0.9,    0.0,   -0.3,   -1.1,   -1.5,   -1.8,   -2.8,   -3.9,   -4.5,   -4.8,   -4.9,   -4.3,   -3.4,   -2.8,   -3.0,   -3.0,   -2.8,   -2.3,   -3.8,   -4.7,   -4.5,   -2.8,   -1.7,   -1.0,   -1.1,   -2.0,   -3.8,   -1.7,   -0.4,    0.3,    0.8,    1.9,    2.1,    0.5,    0.8,    0.3,  999.0,  999.0,  999.0,  999.0,   -2.0,  999.0,  999.0,  999.0,  999.0,  999.0,    0.3,  999.0,  999.0,  999.0,    5.6,    4.4,    5.6,    4.2,  999.0,  999.0,  999.0,  999.0,  999.0,  999.0,  999.0,  999.0,  999.0,  999.0,  999.0,  999.0,  999.0,    3.4,  999.0,  999.0,    2.3,    1.2,   -0.3,  999.0,  -12.8,  999.0,  999.0,  999.0,  999.0,  999.0,  999.0,  999.0,  999.0,  999.0,  999.0,  999.0,  999.0,  999.0,   -7.5,  999.0,  999.0,  999.0,  999.0,  999.0,  999.0,  999.0,  999.0,  999.0,  999.0,  999.0,  999.0
2000/08/31 10:15,  -11.3,  -11.2,  -11.2,  -11.9,  -11.5,  -11.0,  -10.7,  -10.1,   -9.6,   -8.4,   -7.7,   -7.8,   -6.7,   -6.5,   -6.3,   -5.8,   -3.6,   -2.3,   -0.9,   -1.0,   -1.1,   -2.0,   -2.7,   -3.4,   -4.0,   -3.9,   -4.5,   -5.1,   -4.9,   -5.3,   -4.3,   -3.1,   -2.3,   -2.5,   -2.5,   -2.6,   -2.3,   -3.8,   -4.7,   -4.9,   -3.7,   -2.4,   -1.4,   -1.4,   -2.0,   -3.7,   -4.0,   -2.0,   -1.7,   -0.6,    0.6,    0.9,    0.8,  999.0,   -0.9,  999.0,  999.0,   -3.3,   -3.5,   -1.5,   -2.1,  999.0,    0.7,    0.6,    0.8,  999.0,  999.0,  999.0,  999.0,    3.5,    4.3,    5.7,  999.0,  999.0,  999.0,  999.0,  999.0,  999.0,  999.0,  999.0,  999.0,  999.0,  999.0,  999.0,  999.0,  999.0,    0.6,  999.0,    0.7,    0.4,   -0.1,   -2.4,  999.0,  999.0,  999.0,  999.0,  999.0,  999.0,  999.0,  999.0,  999.0,  999.0,  999.0,  999.0,  999.0,  999.0,   -3.4,   -7.2,  999.0,  999.0,  999.0,  999.0,  999.0,  999.0,  999.0,  999.0,  999.0,  999.0,  999.0,  999.0
2000/08/31 10:25,  -11.7,  -11.9,  -12.5,  -11.7,  -11.5,  -10.7,  -10.1,   -9.7,   -9.7,   -9.6,   -7.8,   -7.7,   -7.4,   -7.0,   -7.1,   -6.1,   -3.8,   -0.9,    0.5,    0.6,    0.0,   -1.1,   -3.2,   -4.4,   -4.4,   -5.1,   -4.9,   -5.4,   -6.0,   -5.6,   -5.1,   -3.6,   -3.5,   -3.1,   -3.6,   -3.0,   -2.6,   -3.5,   -4.6,   -4.4,   -4.1,   -2.6,   -1.6,   -2.0,   -3.1,   -4.9,   -3.1,   -2.3,   -1.3,    0.7,    1.8,    2.6,    1.9,  999.0,  999.0,  999.0,  999.0,  999.0,   -2.1,   -1.2,  999.0,    0.9,    2.6,    2.2,    1.7,    1.6,  999.0,  999.0,    4.0,  999.0,    5.7,    5.4,  999.0,  999.0,  999.0,  999.0,  999.0,  999.0,  999.0,  999.0,  999.0,  999.0,  999.0,  999.0,  999.0,  999.0,  999.0,  999.0,    0.2,    0.9,    0.1,   -0.1,  999.0,  999.0,  999.0,  999.0,  999.0,  999.0,  999.0,  999.0,  999.0,  999.0,  999.0,  999.0,  999.0,  999.0,   -3.8,   -6.9,   -8.1,  999.0,  999.0,  999.0,  999.0,  999.0,  999.0,  999.0,  999.0,  999.0,  999.0,  999.0
2000/08/31 10:35,  -13.0,  -13.2,  -11.9,  -10.8,  -10.0,   -9.2,   -8.6,   -8.7,   -7.8,   -7.5,   -7.2,   -6.5,   -5.8,   -7.5,   -6.9,   -4.9,   -2.8,   -2.9,   -1.8,   -1.2,   -0.1,   -0.8,   -2.2,   -3.1,   -3.4,   -3.2,   -4.2,   -4.7,   -5.3,   -5.3,   -4.5,   -2.9,   -2.1,   -2.5,   -2.5,   -1.9,   -1.0,   -1.9,   -2.9,   -3.4,   -2.7,   -1.9,   -1.4,   -1.6,   -2.1,   -3.7,   -2.9,   -2.0,   -1.6,   -0.4,    1.4,    1.7,    2.3,    1.2,  999.0,  999.0,   -2.1,   -3.8,   -3.0,   -1.8,   -0.9,    1.4,    2.7,    2.5,    2.4,    1.9,    1.4,  999.0,  999.0,  999.0,  999.0,    4.1,   -0.0,  999.0,  999.0,  999.0,  999.0,  999.0,  999.0,  999.0,  999.0,  999.0,  999.0,  999.0,  999.0,  999.0,  999.0,  999.0,  999.0,    1.5,  999.0,  999.0,  999.0,  999.0,  999.0,  999.0,  999.0,  999.0,  999.0,  999.0,  999.0,  999.0,  999.0,  999.0,  999.0,  999.0,   -3.5,   -7.8,  999.0,  999.0,  999.0,  999.0,  999.0,  999.0,  999.0,  999.0,  999.0,  999.0,  999.0,  999.0
2000/08/31 10:45,  -11.8,  -10.1,  -11.2,  -11.2,  -10.2,  -10.3,   -9.2,   -8.6,   -8.2,   -7.7,   -7.5,   -7.3,   -7.2,   -6.1,   -5.2,   -4.3,   -2.9,   -3.5,   -3.7,   -2.1,   -1.0,    0.3,   -1.8,   -3.2,   -3.7,   -3.7,   -3.6,   -3.2,   -3.6,   -3.7,   -4.0,   -3.5,   -2.2,   -2.6,   -3.8,   -4.0,   -3.5,   -2.8,   -3.2,   -3.7,   -2.6,   -3.3,   -1.2,   -2.0,   -2.8,   -4.1,   -4.9,   -2.0,   -1.8,   -0.5,   -0.4,    2.0,   -0.1,   -1.2,   -1.7,   -2.0,  999.0,   -3.0,  999.0,   -1.3,  999.0,    1.8,    0.9,    1.0,    0.8,    1.4,  999.0,  999.0,  999.0,  999.0,    5.4,  999.0,  999.0,  999.0,  999.0,  999.0,  999.0,  999.0,  999.0,  999.0,  999.0,  999.0,  999.0,  999.0,  999.0,  999.0,  999.0,  999.0,  999.0,    0.7,   -0.1,  999.0,  999.0,  999.0,  999.0,  999.0,  999.0,  999.0,  999.0,  999.0,  999.0,  999.0,  999.0,  999.0,  999.0,  999.0,   -2.0,   -7.3,   -7.8,  999.0,  999.0,  999.0,  999.0,  999.0,  999.0,  999.0,  999.0,  999.0,  999.0,  999.0
2000/08/31 10:55,  -13.1,  -12.2,  -11.7,  -11.4,  -11.3,  -10.7,   -9.9,   -9.1,   -7.9,   -7.5,   -7.9,   -8.1,   -7.0,   -5.6,   -4.3,   -3.6,   -4.4,   -3.2,   -2.5,   -2.2,   -1.5,   -1.3,   -1.5,   -2.8,   -4.1,   -4.2,   -3.9,   -3.0,   -3.3,   -3.5,   -3.4,   -3.2,   -2.3,   -1.7,   -2.8,   -2.9,   -2.0,   -1.7,   -2.6,   -3.3,   -2.9,   -2.0,   -1.2,   -1.9,   -2.2,   -3.5,   -3.8,   -2.2,   -1.4,    0.4,    1.3,    1.7,   -1.6,    0.6,  999.0,   -1.5,   -2.7,  999.0,  999.0,    1.5,    2.6,    0.9,    2.8,    2.9,    2.8,    3.3,    3.2,  999.0,  999.0,    6.6,  999.0,  999.0,  999.0,  999.0,  999.0,  999.0,  999.0,  999.0,  999.0,  999.0,  999.0,  999.0,  999.0,  999.0,  999.0,  999.0,  999.0,  999.0,  999.0,    0.9,  999.0,  999.0,  999.0,  999.0,  999.0,  999.0,  999.0,  999.0,  999.0,  999.0,  999.0,  999.0,   -2.9,  999.0,  999.0,  999.0,   -2.7,   -6.2,  999.0,  999.0,  999.0,  999.0,  999.0,  999.0,  999.0,  999.0,  999.0,  999.0,  999.0,  999.0
2000/08/31 11:05,  -13.4,  -13.9,  -12.6,  -11.3,   -9.9,   -9.3,   -9.8,   -8.8,   -7.6,   -7.0,   -6.2,   -5.6,   -4.0,   -3.8,   -3.1,   -2.7,   -3.1,   -3.4,   -2.9,   -2.6,   -2.6,   -2.4,   -2.3,   -2.5,   -2.8,   -3.6,   -3.3,   -3.6,   -4.3,   -4.5,   -4.7,   -3.6,   -3.4,   -2.0,   -3.1,   -3.3,   -3.3,   -1.8,   -2.0,   -2.7,   -2.7,   -1.9,   -2.3,   -2.3,   -2.9,   -3.8,   -3.2,   -2.3,   -1.5,    0.1,    0.3,   -0.6,    0.2,   -0.6,  999.0,   -2.1,  999.0,   -1.4,   -0.2,    0.5,  999.0,  999.0,    1.5,    3.5,  999.0,  999.0,  999.0,  999.0,    2.4,  999.0,  999.0,  999.0,  999.0,  999.0,  999.0,  999.0,  999.0,  999.0,  999.0,  999.0,  999.0,    5.7,  999.0,  999.0,  999.0,  999.0,  999.0,  999.0,  999.0,    0.2,  999.0,  999.0,  999.0,  999.0,  999.0,  999.0,  999.0,  999.0,  999.0,  999.0,  999.0,  999.0,   -3.5,  999.0,  999.0,  999.0,   -3.1,   -6.7,  999.0,  999.0,  999.0,  999.0,  999.0,  999.0,  999.0,  999.0,  999.0,  999.0,  999.0,  999.0
2000/08/31 11:15,  -11.7,  -11.1,  -10.1,  -10.0,   -7.9,   -7.9,   -8.0,   -7.6,   -6.9,   -6.8,   -5.7,   -5.8,   -5.9,   -5.6,   -4.5,   -2.9,   -2.2,   -2.6,   -2.7,   -2.3,   -1.7,   -2.7,   -2.8,   -3.5,   -3.8,   -3.9,   -4.0,   -4.4,   -4.7,   -5.2,   -5.8,   -4.6,   -4.2,   -2.4,   -1.9,   -2.0,   -1.8,   -1.7,   -2.5,   -3.5,   -3.2,   -1.8,   -1.6,   -3.3,   -4.0,   -4.5,   -4.2,   -2.6,   -0.9,    0.1,  999.0,    0.1,    7.7,   -0.8,   -1.6,   -2.3,   -2.6,   -1.8,   -4.0,    2.0,  999.0,  999.0,    1.6,    1.9,    1.6,  999.0,  999.0,  999.0,    5.4,    7.2,  999.0,  999.0,  999.0,  999.0,  999.0,  999.0,  999.0,  999.0,  999.0,  999.0,  999.0,  999.0,  999.0,  999.0,  999.0,  999.0,  999.0,  999.0,  999.0,  999.0,  999.0,  999.0,  999.0,  999.0,  999.0,  999.0,  999.0,  999.0,  999.0,  999.0,  999.0,  999.0,   -3.3,  999.0,  999.0,  999.0,   -3.8,   -7.4,  999.0,  999.0,  999.0,  999.0,  999.0,  999.0,  999.0,  999.0,  999.0,  999.0,  999.0,  999.0
2000/08/31 11:25,  -12.2,  -11.7,  -11.0,  -10.4,   -9.8,   -9.4,   -8.6,   -8.1,   -8.3,   -7.5,   -6.9,   -6.6,   -5.9,   -4.8,   -4.6,   -3.8,   -2.5,   -1.8,   -2.9,   -2.8,   -3.1,   -2.7,   -3.2,   -3.9,   -4.0,   -3.7,   -3.1,   -2.7,   -2.9,   -4.2,   -4.7,   -4.4,   -4.9,   -4.1,   -5.6,   -5.7,   -5.0,   -4.4,   -3.7,   -5.0,   -5.6,   -4.2,   -2.6,   -3.8,   -4.1,   -4.8,   -3.7,   -2.2,    0.7,    0.8,    1.4,    0.8,    0.5,    1.1,    0.8,    1.8,   -0.7,   -1.2,    1.9,    2.8,    2.2,    3.2,    3.4,    2.1,    2.6,    2.3,    4.3,  999.0,    5.6,  999.0,  999.0,  999.0,  999.0,  999.0,  999.0,  999.0,  999.0,  999.0,  999.0,  999.0,  999.0,  999.0,  999.0,  999.0,  999.0,  999.0,  999.0,  999.0,   -1.7,   -1.8,   -0.6,  999.0,  999.0,  999.0,  999.0,  999.0,  999.0,  999.0,  999.0,  999.0,  999.0,  999.0,   -2.5,  999.0,  999.0,  999.0,   -3.2,   -6.6,  999.0,  999.0,    0.1,  999.0,  999.0,  999.0,  999.0,  999.0,  999.0,  999.0,  999.0,  999.0
2000/08/31 11:35,  -12.2,  -10.7,  -11.4,  -10.1,   -9.1,   -8.0,   -7.4,   -7.9,   -7.8,   -6.0,   -5.1,   -4.5,   -5.5,   -3.9,   -3.3,   -3.1,   -2.5,   -2.0,   -2.0,   -2.5,   -1.9,   -1.7,   -2.2,   -1.7,   -1.1,   -1.2,   -0.3,   -0.7,   -1.2,   -1.7,   -2.8,   -2.6,   -2.6,   -3.1,   -4.0,   -5.1,   -5.3,   -5.3,   -6.2,   -5.7,   -5.4,   -3.7,   -2.6,   -4.2,   -4.5,   -4.9,   -3.6,   -2.1,   -0.7,   -1.5,    1.1,    0.1,   -0.6,   -0.9,    3.5,   -1.8,   -1.1,    0.4,    0.9,   -0.2,    0.6,    1.7,    0.2,    1.3,    1.6,    0.8,  999.0,    4.2,    5.3,  999.0,  999.0,  999.0,  999.0,  999.0,  999.0,  999.0,  999.0,    7.9,  999.0,  999.0,  999.0,  999.0,  999.0,  999.0,  999.0,  999.0,  999.0,  999.0,  999.0,    0.1,  999.0,  999.0,  999.0,  999.0,  999.0,  999.0,  999.0,  999.0,  999.0,  999.0,  999.0,  999.0,   -3.8,   -4.5,  999.0,  999.0,   -3.4,   -5.9,  999.0,  999.0,  999.0,  999.0,  999.0,  999.0,  999.0,  999.0,  999.0,  999.0,  999.0,  999.0
2000/08/31 11:45,  -11.4,  -10.0,  -10.5,   -9.7,  -10.7,  -10.2,   -9.0,   -8.9,   -8.1,   -6.9,   -5.4,   -4.7,   -5.9,   -6.4,   -6.2,   -5.3,   -4.2,   -3.3,   -2.7,   -2.4,   -1.7,   -2.8,   -2.3,   -3.0,   -3.2,   -2.1,   -1.4,   -1.1,   -1.4,   -2.4,   -4.0,   -4.3,   -4.7,   -4.5,   -4.4,   -4.6,   -5.0,   -4.6,   -6.2,   -5.7,   -3.5,   -2.5,   -2.1,   -3.9,   -5.4,   -4.9,   -5.6,   -2.7,   -1.7,   -3.3,   -1.6,    0.3,   -0.3,   -2.3,   -5.2,   -3.0,   -0.4,  999.0,    1.6,    2.7,    2.7,    2.1,    2.3,    0.5,  999.0,  999.0,    3.6,    5.0,    6.5,  999.0,  999.0,  999.0,  999.0,  999.0,  999.0,  999.0,  999.0,  999.0,  999.0,  999.0,  999.0,    3.5,  999.0,  999.0,  999.0,  999.0,  999.0,  999.0,  999.0,   -1.1,  999.0,  999.0,  999.0,  999.0,  999.0,  999.0,  999.0,  999.0,  999.0,  999.0,  999.0,  999.0,   -2.8,   -3.2,  999.0,   -1.5,   -4.4,   -7.0,  999.0,  999.0,  999.0,  999.0,  999.0,  999.0,  999.0,  999.0,  999.0,  999.0,  999.0,  999.0
2000/08/31 11:55,  -11.3,  -10.4,  -10.4,   -9.4,   -9.5,   -8.5,   -7.0,   -6.3,   -7.6,   -7.0,   -6.5,   -6.4,   -5.5,   -5.6,   -6.0,   -5.3,   -4.8,   -5.0,   -4.8,   -4.4,   -3.9,   -3.4,   -3.0,   -2.6,   -2.6,   -1.7,   -1.9,   -3.3,   -3.4,   -3.0,   -3.3,   -3.7,   -4.2,   -2.9,   -2.2,   -1.8,   -2.2,   -1.6,   -3.5,   -3.2,   -2.8,   -2.6,   -3.9,   -3.2,   -4.5,   -4.6,   -4.9,   -2.9,   -1.2,    0.0,   -0.5,   -1.0,   -1.1,   -1.9,   -2.1,   -1.9,   -2.2,   -4.5,   -0.8,  999.0,    0.2,    1.4,    1.2,   -0.3,    0.3,    2.0,    3.0,    3.5,    3.6,  999.0,  999.0,  999.0,  999.0,  999.0,  999.0,  999.0,  999.0,  999.0,  999.0,  999.0,  999.0,  999.0,  999.0,  999.0,  999.0,   -0.0,  999.0,   -2.4,  999.0,   -2.3,  999.0,  999.0,  999.0,  999.0,  999.0,  999.0,  999.0,  999.0,  999.0,  999.0,  999.0,  999.0,   -4.3,  999.0,  999.0,  999.0,   -4.4,   -7.1,  999.0,  999.0,  999.0,  999.0,  999.0,  999.0,  999.0,  999.0,  999.0,  999.0,  999.0,  999.0
2000/08/31 12:05,  -11.2,  -10.7,  -10.8,   -9.9,   -8.6,   -7.3,   -6.7,   -4.7,   -1.7,   -1.0,   -1.1,   -1.1,   -1.7,   -1.7,   -2.1,   -2.9,   -4.1,   -4.3,   -4.2,   -4.4,   -3.7,   -3.5,   -3.8,   -3.9,   -4.0,   -4.2,   -3.8,   -3.9,   -4.1,   -4.5,   -4.1,   -3.6,   -4.6,   -4.4,   -3.6,   -2.9,   -2.1,   -2.9,   -3.8,   -2.5,   -3.5,   -2.4,   -1.9,   -1.2,   -2.9,   -3.9,   -3.5,   -4.3,   -2.9,    0.5,    0.3,    1.7,   -2.3,   -1.8,   -2.1,   -1.7,   -1.6,   -2.8,  999.0,    3.1,    1.7,    1.8,    1.6,  999.0,  999.0,    2.2,    2.7,    4.8,    6.5,  999.0,  999.0,  999.0,  999.0,  999.0,  999.0,  999.0,  999.0,  999.0,  999.0,  999.0,    6.0,    4.5,  999.0,  999.0,  999.0,  999.0,  999.0,  999.0,  999.0,  999.0,  999.0,  999.0,  999.0,  999.0,  999.0,  999.0,  999.0,  999.0,  999.0,  999.0,  999.0,  999.0,   -6.1,  999.0,  999.0,   -2.1,   -5.3,   -6.4,  999.0,  999.0,  999.0,  999.0,  999.0,  999.0,  999.0,  999.0,  999.0,  999.0,  999.0,  999.0
2000/08/31 12:15,  -11.3,  -11.1,  -10.5,  -10.2,  -10.1,   -9.2,   -7.5,   -6.2,   -3.0,   -2.3,   -1.3,   -2.0,   -1.9,   -0.2,    0.9,    0.5,   -0.9,   -2.4,   -3.3,   -3.9,  999.0,   -2.5,   -3.7,   -5.0,   -4.9,   -5.1,   -5.2,   -5.0,   -4.1,   -3.9,   -4.3,   -3.0,   -3.6,   -3.3,   -3.3,   -2.9,   -2.1,   -2.0,   -2.9,   -2.1,   -1.8,   -1.6,   -1.0,   -1.2,   -2.7,   -3.5,   -4.1,   -3.8,   -2.7,   -1.1,    1.3,  999.0,    3.7,   -0.8,   -2.0,   -1.2,   -0.6,    0.1,   -2.7,    3.1,    2.6,    1.8,    0.7,  999.0,  999.0,    1.4,    2.4,    3.1,  999.0,  999.0,  999.0,  999.0,  999.0,  999.0,  999.0,  999.0,  999.0,  999.0,  999.0,  999.0,  999.0,    3.7,  999.0,  999.0,  999.0,  999.0,  999.0,  999.0,  999.0,    0.2,  999.0,  999.0,  999.0,  999.0,  999.0,  999.0,  999.0,  999.0,  999.0,  999.0,  999.0,  999.0,  999.0,  999.0,  999.0,  999.0,   -4.1,   -6.1,   -5.2,  999.0,  999.0,  999.0,  999.0,  999.0,  999.0,  999.0,  999.0,  999.0,  999.0,  999.0
2000/08/31 12:25,  -11.8,  -11.1,  -10.6,   -9.2,   -8.3,   -9.1,   -8.5,   -7.2,   -5.9,   -3.4,   -1.6,   -0.7,   -0.3,   -1.4,   -0.3,    0.4,    0.4,   -0.9,   -1.8,   -3.2,   -3.7,   -4.7,   -5.3,   -4.3,   -4.1,   -3.8,   -3.5,   -3.5,   -3.5,   -3.4,   -4.2,   -4.5,   -4.3,   -4.3,   -2.2,   -1.9,   -2.1,   -2.6,   -2.3,   -1.4,   -1.5,   -1.5,   -1.2,   -0.9,   -2.3,   -3.9,   -5.9,   -4.2,   -2.8,   -1.3,   -1.9,  999.0,   -1.1,   -2.4,   -2.4,   -1.9,   -1.0,   -2.3,    2.8,  999.0,    0.2,  999.0,  999.0,  999.0,  999.0,  999.0,  999.0,    3.6,  999.0,  999.0,  999.0,  999.0,  999.0,  999.0,  999.0,  999.0,  999.0,  999.0,  999.0,  999.0,  999.0,  999.0,  999.0,  999.0,  999.0,  999.0,  999.0,  999.0,   -1.6,   -0.8,  999.0,  999.0,  999.0,  999.0,  999.0,  999.0,  999.0,  999.0,  999.0,  999.0,  999.0,  999.0,  999.0,  999.0,  999.0,  999.0,  999.0,   -6.5,  999.0,  999.0,  999.0,  999.0,  999.0,  999.0,  999.0,  999.0,  999.0,  999.0,  999.0,  999.0
2000/08/31 12:35,  -11.5,  -10.8,  -10.4,  -10.2,   -8.5,   -8.2,   -7.7,   -6.3,   -5.2,   -4.0,   -2.8,   -1.8,   -1.1,    0.4,   -0.2,    0.1,   -0.0,   -0.6,   -2.4,   -3.3,   -4.6,   -5.3,   -5.4,   -4.9,   -5.1,   -5.9,   -5.7,   -4.6,   -4.0,   -3.7,   -2.4,   -1.7,   -2.5,   -3.1,   -2.2,   -1.1,   -1.4,   -1.8,   -1.7,   -1.3,   -1.4,   -2.1,   -1.8,   -1.6,   -3.1,   -4.7,   -5.1,   -3.6,   -2.0,   -0.3,   -0.6,   -1.1,   -2.2,   -1.9,   -2.0,   -0.7,   -0.9,    4.4,    2.6,    1.2,    1.1,    0.9,   -1.1,  999.0,  999.0,    1.7,    1.9,    2.7,    4.5,  999.0,    4.0,  999.0,    4.3,    7.2,    6.9,    6.7,  999.0,  999.0,   39.3,  999.0,  999.0,    5.6,  999.0,  999.0,  999.0,  999.0,  999.0,  999.0,  999.0,    0.3,    1.5,    1.9,  999.0,  999.0,  999.0,  999.0,  999.0,  999.0,  999.0,  999.0,  999.0,  999.0,  999.0,  999.0,  999.0,  999.0,   -6.1,   -6.1,  999.0,  999.0,  999.0,  999.0,  999.0,  999.0,  999.0,  999.0,  999.0,  999.0,  999.0,  999.0
2000/08/31 12:45,   -9.4,   -9.6,   -9.4,   -8.6,   -8.4,   -6.4,   -5.9,   -5.3,   -4.6,   -3.6,   -3.2,   -3.2,   -1.5,   -0.7,   -0.6,   -0.3,    0.2,    0.8,    1.5,    0.8,   -1.4,   -2.3,   -2.3,   -2.6,   -2.3,   -3.4,   -4.1,   -4.8,   -5.5,   -5.9,   -6.0,   -5.9,   -2.6,   -1.4,   -1.0,   -0.7,   -0.0,    0.8,   -0.6,   -1.5,   -2.4,   -1.9,   -1.3,   -2.5,   -3.4,   -4.7,   -5.6,   -3.8,   -1.5,    0.4,   -0.9,   -2.4,   -0.1,   -0.2,   -0.6,    0.5,    0.3,  999.0,    1.6,    1.9,    1.9,  999.0,  999.0,  999.0,  999.0,    2.1,    2.6,    4.3,    3.7,  999.0,  999.0,  999.0,  999.0,  999.0,    5.1,  999.0,  999.0,  999.0,  999.0,  999.0,  999.0,  999.0,    1.5,  999.0,  999.0,  999.0,  999.0,  999.0,  999.0,  999.0,  999.0,  999.0,  999.0,  999.0,  999.0,  999.0,  999.0,  999.0,  999.0,  999.0,  999.0,  999.0,  999.0,  999.0,  999.0,  999.0,   -5.6,  999.0,  999.0,  999.0,  999.0,  999.0,  999.0,  999.0,  999.0,  999.0,  999.0,  999.0,  999.0,  999.0
2000/08/31 12:55,   -9.3,   -8.1,   -7.7,   -8.2,   -6.5,   -6.6,   -5.5,   -3.7,   -3.7,   -4.2,   -2.6,   -3.2,   -2.4,   -1.9,   -0.8,   -1.3,   -2.0,   -2.8,   -1.8,   -2.5,   -3.5,   -3.4,   -3.2,   -3.8,   -3.8,   -3.1,   -3.7,   -4.0,   -3.6,   -3.8,   -4.7,   -4.0,   -2.4,   -0.0,    0.9,    0.4,   -0.7,   -0.9,   -1.1,   -2.6,   -3.3,   -1.6,   -1.4,   -2.4,   -3.6,   -4.3,   -5.2,   -4.4,   -2.2,   -0.9,   -1.6,   -2.6,   -1.2,   -1.5,   -1.2,   -0.6,   -1.0,  999.0,    2.8,    1.3,   -0.6,  999.0,  999.0,  999.0,  999.0,    0.9,    2.0,    3.7,    5.7,    6.3,  999.0,  999.0,  999.0,  999.0,  999.0,  999.0,    9.1,    8.0,  999.0,  999.0,    5.8,    4.3,  999.0,  999.0,  999.0,  999.0,  999.0,  999.0,  999.0,  999.0,    1.5,  999.0,    4.3,  999.0,  999.0,  999.0,  999.0,  999.0,  999.0,  999.0,  999.0,  999.0,  999.0,  999.0,  999.0,  999.0,   -5.7,   -5.7,  999.0,  999.0,  999.0,  999.0,  999.0,  999.0,  999.0,  999.0,  999.0,  999.0,  999.0,  999.0
2000/08/31 13:05,   -8.9,   -8.3,   -8.0,   -7.0,   -5.9,   -5.9,   -5.3,   -5.3,   -5.3,   -4.2,   -3.4,   -2.7,   -2.9,   -2.4,   -1.2,   -0.9,   -0.5,   -1.0,   -1.7,   -2.4,   -2.5,   -2.6,   -2.9,   -3.5,   -3.2,   -3.1,   -3.3,   -3.4,   -3.4,   -3.4,   -3.7,   -4.5,   -4.2,   -3.3,   -1.1,   -0.3,   -1.2,   -2.1,   -2.3,   -3.2,   -4.5,   -3.8,   -1.8,   -2.8,   -3.1,   -4.0,   -4.9,   -3.6,   -1.9,   -0.4,    0.3,   -1.5,   -0.2,   -0.3,   -0.4,    0.2,   15.0,    2.5,    1.8,    1.8,  999.0,  999.0,    1.4,  999.0,    1.9,    2.3,    3.3,    5.0,    5.7,  999.0,  999.0,  999.0,    5.2,  999.0,  999.0,    6.8,    8.1,  999.0,  999.0,  999.0,    3.8,    3.5,  999.0,  999.0,  999.0,  999.0,  999.0,  999.0,  999.0,  999.0,    1.2,  999.0,  999.0,  999.0,  999.0,  999.0,  999.0,  999.0,  999.0,  999.0,  999.0,  999.0,  999.0,  999.0,  999.0,  999.0,   -5.4,   -4.6,  999.0,  999.0,  999.0,  999.0,  999.0,  999.0,  999.0,  999.0,  999.0,  999.0,  999.0,  999.0
2000/08/31 13:15,   -6.1,   -5.3,   -6.2,   -7.0,   -6.5,   -4.9,   -3.4,   -2.6,   -0.9,   -1.4,   -2.4,   -1.6,   -2.0,   -1.3,   -0.1,    0.4,   -0.3,   -1.0,   -1.4,   -1.6,   -2.9,   -2.4,   -3.5,   -3.4,   -3.6,   -3.1,   -2.7,   -2.7,   -3.4,   -3.8,   -4.1,   -4.4,   -4.0,   -3.0,   -2.3,   -1.7,   -0.9,   -1.5,   -1.6,   -1.5,   -2.8,   -2.9,   -1.8,   -1.0,   -1.7,   -2.6,   -3.8,   -2.5,   -1.0,    1.2,    1.1,    2.7,   -0.8,   -1.4,   -2.2,    0.0,    1.9,    2.1,    0.5,    1.3,  999.0,  999.0,  999.0,   -0.1,    1.1,    0.7,    2.2,    3.1,    2.6,  999.0,  999.0,  999.0,    5.4,  999.0,  999.0,    7.1,    8.4,    9.6,  999.0,  999.0,    4.7,    3.5,    0.3,  999.0,  999.0,  999.0,  999.0,  999.0,  999.0,  999.0,  999.0,  999.0,  999.0,  999.0,  999.0,  999.0,  999.0,  999.0,  999.0,  999.0,  999.0,  999.0,  999.0,  999.0,  999.0,  999.0,   -6.5,  999.0,  999.0,  999.0,  999.0,  999.0,  999.0,  999.0,   57.1,  999.0,  999.0,  999.0,  999.0,  999.0
2000/08/31 13:25,   -6.4,   -5.8,   -5.7,   -6.3,   -4.8,   -3.7,   -2.2,   -1.3,   -1.0,   -1.8,   -2.5,   -3.2,   -2.5,   -1.1,    0.1,    0.5,    0.1,   -0.5,   -2.2,   -3.6,   -3.3,   -2.6,   -3.5,   -3.1,   -3.6,   -4.3,   -3.9,   -3.4,   -3.0,   -3.2,   -3.2,   -3.2,   -2.8,   -1.8,   -2.1,   -0.7,   -0.4,   -0.5,   -0.8,   -0.9,   -1.0,   -2.3,   -2.0,   -0.9,   -2.3,   -3.7,   -5.0,   -3.2,   -2.7,    0.9,    0.8,    2.7,    0.4,    0.2,    1.2,    1.0,    0.7,  999.0,    1.4,  999.0,  999.0,  999.0,  999.0,  999.0,   -1.6,   -0.3,    1.9,    2.7,  999.0,  999.0,    2.6,    4.4,  999.0,    6.2,    4.8,  999.0,  999.0,  999.0,  999.0,  999.0,  999.0,    1.7,  999.0,  999.0,  999.0,  999.0,  999.0,   -2.3,  999.0,  999.0,    3.4,    2.0,  999.0,  999.0,  999.0,  999.0,  999.0,  999.0,  999.0,  999.0,  999.0,  999.0,  999.0,  999.0,  999.0,  999.0,  999.0,  999.0,  999.0,  999.0,  999.0,  999.0,  999.0,  999.0,  999.0,  999.0,  999.0,  999.0,  999.0,  999.0
2000/08/31 13:35,   -7.8,   -8.2,   -5.5,   -6.0,   -5.4,   -3.9,   -2.6,   -0.5,   -1.2,   -1.3,   -1.8,   -1.4,   -0.8,   -0.6,   -0.1,    0.4,    0.7,    0.7,   -1.2,   -2.5,   -3.3,   -3.2,   -2.3,   -2.4,   -2.6,   -2.6,   -2.6,   -2.9,   -3.0,   -2.8,   -2.9,   -2.0,   -2.0,   -0.8,   -0.9,   -1.9,   -1.3,    0.1,   -0.7,   -0.8,   -1.3,   -1.6,   -1.7,   -1.2,   -2.4,   -4.0,   -4.4,   -3.6,   -1.9,    0.0,   -1.0,   -1.0,   -0.6,   -1.1,    0.1,  999.0,  999.0,    6.0,    1.2,    1.1,  999.0,  999.0,  999.0,  999.0,   -1.5,   -0.1,    1.1,    3.2,    3.3,    3.9,  999.0,    3.3,    3.7,    6.4,    7.3,    8.9,  999.0,  999.0,  999.0,    7.1,    5.9,    4.8,  999.0,  999.0,  999.0,  999.0,  999.0,  999.0,  999.0,  999.0,    2.1,  999.0,  999.0,  999.0,  999.0,  999.0,  999.0,  999.0,  999.0,  999.0,  999.0,  999.0,  999.0,  999.0,  999.0,  999.0,   -6.2,  999.0,   -3.4,  999.0,  999.0,  999.0,  999.0,  999.0,  999.0,  999.0,  999.0,  999.0,  999.0,  999.0
2000/08/31 13:45,   -8.1,   -7.7,   -6.9,   -6.3,   -5.4,   -3.4,   -2.1,   -1.3,   -0.7,    0.2,    0.9,    0.9,   -0.1,   -1.8,   -2.0,   -0.6,    0.0,    0.0,   -0.6,   -1.3,   -1.9,   -2.2,   -1.6,   -1.8,   -2.3,   -2.5,   -2.7,   -2.9,   -3.1,   -3.5,   -3.9,   -2.7,   -2.3,   -1.7,   -1.0,   -0.9,   -0.8,    1.1,    1.7,    0.9,    0.6,   -0.6,   -1.2,   -1.8,   -3.0,   -4.8,   -5.1,   -4.3,   -2.6,   -1.3,   -0.6,   -0.1,   -0.2,    0.0,   -0.7,    1.3,    4.2,    5.7,    2.5,    1.0,  999.0,  999.0,  999.0,   -2.6,   -0.8,   -0.1,    0.8,    2.4,  999.0,    2.0,    2.4,  999.0,    4.1,    5.1,    5.7,  999.0,  999.0,  999.0,  999.0,  999.0,  999.0,  999.0,  999.0,  999.0,  999.0,  999.0,  999.0,  999.0,  999.0,  999.0,  999.0,    3.7,    2.8,  999.0,  999.0,  999.0,  999.0,  999.0,  999.0,  999.0,  999.0,   -3.9,   -4.6,  999.0,  999.0,   -7.1,  999.0,  999.0,   -2.3,  999.0,  999.0,  999.0,  999.0,  999.0,  999.0,  999.0,  999.0,  999.0,  999.0,  999.0
2000/08/31 13:55,   -7.4,   -6.4,   -6.1,   -6.0,   -6.1,   -4.9,   -3.8,   -2.6,   -1.7,   -0.6,   -0.0,    1.0,    1.2,    0.1,   -0.4,   -0.4,    0.9,   -0.4,   -1.7,   -2.1,   -2.7,   -2.8,   -2.6,   -1.6,   -2.1,   -2.6,   -2.4,   -2.7,   -2.7,   -2.8,   -2.7,   -2.2,   -1.0,    0.1,    1.4,    1.0,    0.3,    1.1,    2.2,    1.9,    0.9,   -1.2,   -2.3,   -2.9,   -4.4,   -4.8,   -3.5,   -5.3,   -4.7,   -2.6,   -0.4,    0.3,   -0.1,    0.0,   -0.1,    0.3,   -0.9,  999.0,    2.8,    1.4,  999.0,    0.7,  999.0,  999.0,   -0.0,    2.1,    3.0,    3.7,    4.1,    3.6,  999.0,    4.0,    5.4,    6.4,    8.2,    9.5,   11.2,  999.0,   10.6,  999.0,    7.9,    6.7,    5.6,  999.0,  999.0,  999.0,  999.0,  999.0,  999.0,  999.0,  999.0,    6.2,  999.0,  999.0,  999.0,  999.0,  999.0,  999.0,  999.0,  999.0,  999.0,   -4.3,   -4.5,  999.0,  999.0,  999.0,  999.0,  999.0,  999.0,  999.0,  999.0,  999.0,  999.0,  999.0,  999.0,  999.0,  999.0,  999.0,  999.0,  999.0
2000/08/31 14:05,   -6.9,   -6.4,   -6.5,   -6.6,   -6.2,   -5.5,   -4.1,   -2.6,   -1.9,   -0.7,   -0.0,    0.3,    1.2,    2.1,    1.9,    0.6,   -0.7,   -1.8,   -1.8,   -0.1,   -0.3,   -1.3,   -1.4,   -1.6,   -1.7,   -2.2,   -2.5,   -2.2,   -2.7,   -2.5,   -3.0,   -3.0,   -2.0,   -1.2,   -0.2,    1.4,    0.9,    0.2,    0.7,    1.1,   -0.1,   -1.1,   -1.7,   -2.2,   -3.6,   -3.3,   -3.7,   -3.5,   -2.1,    0.7,    0.9,    1.8,    0.9,    0.8,    0.3,   -0.6,    0.3,  999.0,    0.8,    1.2,   -0.4,  999.0,  999.0,   -1.8,   -1.2,   -0.0,    0.7,    1.5,    2.0,    3.0,    3.5,    2.6,  999.0,    5.3,    8.5,  999.0,  999.0,    8.6,  999.0,    8.6,  999.0,  999.0,    4.8,  999.0,  999.0,  999.0,  999.0,  999.0,  999.0,  999.0,  999.0,  999.0,  999.0,  999.0,  999.0,  999.0,  999.0,  999.0,  999.0,  999.0,  999.0,   -5.2,  999.0,  999.0,  999.0,  999.0,   -8.1,  999.0,   -4.1,  999.0,  999.0,  999.0,  999.0,  999.0,  999.0,  999.0,  999.0,  999.0,  999.0,  999.0
2000/08/31 14:15,   -6.7,   -6.3,   -6.7,   -6.6,   -6.4,   -5.7,   -4.4,   -5.4,   -4.1,   -1.2,   -1.0,    0.6,    0.9,    0.6,    0.3,   -0.6,   -0.9,   -1.7,   -0.9,   -0.0,   -0.6,   -1.8,   -2.1,   -2.0,   -3.0,   -3.0,   -3.6,   -4.0,   -3.7,   -2.9,   -3.6,   -2.7,   -2.7,   -2.4,   -0.6,    0.2,    1.6,    1.2,    1.2,    1.1,   -0.8,   -0.7,   -1.1,   -1.9,   -2.7,   -3.8,   -3.4,   -3.4,   -2.2,   -0.2,    0.7,    1.4,    1.0,    0.8,    1.1,    1.1,   -0.6,  999.0,    2.6,  999.0,  999.0,  999.0,  999.0,  999.0,    0.8,    1.2,    3.1,    3.5,  999.0,  999.0,  999.0,    2.5,    5.3,  999.0,  999.0,  999.0,    9.2,  999.0,  999.0,  999.0,  999.0,  999.0,  999.0,  999.0,  999.0,  999.0,  999.0,  999.0,  999.0,  999.0,  999.0,    5.4,    6.4,  999.0,  999.0,  999.0,  999.0,  999.0,  999.0,  999.0,   -2.7,   -4.9,   -5.8,  999.0,  999.0,  999.0,   -8.0,   -6.0,  999.0,  999.0,  999.0,  999.0,  999.0,  999.0,  999.0,  999.0,  999.0,  999.0,  999.0,  999.0
2000/08/31 14:25,   -7.1,   -5.2,   -4.8,   -5.4,   -5.7,   -5.0,   -4.2,   -4.4,   -3.1,   -2.3,   -0.7,   -1.5,   -1.4,   -1.6,   -0.8,   -1.5,   -2.1,   -2.6,   -2.0,   -2.3,   -2.5,   -2.9,   -2.8,   -3.1,   -3.3,   -3.7,   -3.1,   -2.9,   -2.6,   -1.9,   -1.4,   -2.4,   -2.1,   -2.5,   -2.1,   -0.8,    0.4,    1.6,    1.0,    0.5,   -0.5,    0.1,   -0.8,   -2.6,   -3.7,   -3.0,   -2.5,   -1.1,    1.3,    2.4,    2.4,    1.9,    1.7,    1.9,    1.8,  999.0,    3.3,    1.9,    1.7,    3.1,  999.0,  999.0,   -0.4,   -0.2,  999.0,  999.0,    2.4,    3.2,  999.0,  999.0,  999.0,  999.0,    5.1,    6.1,  999.0,  999.0,    7.8,    7.4,    8.7,    6.1,    4.9,    4.4,    2.9,  999.0,  999.0,  999.0,  999.0,  999.0,  999.0,  999.0,  999.0,  999.0,  999.0,  999.0,  999.0,  999.0,  999.0,  999.0,  999.0,  999.0,  999.0,   -6.1,   -6.5,  999.0,  999.0,  999.0,   -8.0,  999.0,   -1.9,  999.0,  999.0,  999.0,  999.0,  999.0,  999.0,  999.0,  999.0,  999.0,  999.0,  999.0
2000/08/31 14:35,   -6.8,   -6.2,   -4.9,   -5.7,   -6.0,   -5.6,   -4.5,   -3.5,   -2.1,   -1.5,   -0.9,   -0.1,    0.1,    0.7,    0.7,    0.6,    0.3,   -0.3,   -0.5,   -2.0,   -2.1,   -2.3,   -2.3,   -3.1,   -3.4,   -3.7,   -4.8,   -4.8,   -4.5,   -4.1,   -4.3,   -4.3,   -3.1,   -3.3,   -3.0,   -1.6,    0.5,    1.0,    0.7,    0.4,   -1.0,   -0.2,   -1.4,   -2.9,   -4.5,   -4.6,   -3.3,   -2.5,    1.0,    0.7,    1.6,    1.7,    1.4,    1.3,    2.5,    0.9,  999.0,    2.0,    2.3,    2.1,  999.0,  999.0,   -1.7,  999.0,    1.0,    0.8,    1.9,    1.9,  999.0,    2.9,    2.2,  999.0,  999.0,    5.7,  999.0,  999.0,    6.2,    8.6,    8.8,    4.5,    5.4,    5.2,    2.7,  999.0,  999.0,  999.0,  999.0,  999.0,  999.0,  999.0,  999.0,  999.0,  999.0,  999.0,  999.0,  999.0,  999.0,  999.0,  999.0,  999.0,  999.0,   -5.1,  999.0,   -3.0,  999.0,  999.0,   -8.8,  999.0,  999.0,  999.0,  999.0,  999.0,  999.0,  999.0,  999.0,  999.0,  999.0,  999.0,  999.0,  999.0
2000/08/31 14:45,   -5.1,   -5.5,   -4.0,   -3.9,   -3.2,   -3.3,   -4.6,   -4.0,   -3.1,   -1.9,   -0.8,   -0.7,   -0.3,   -0.4,    0.1,    0.8,    1.6,    1.2,    0.9,   -0.1,   -0.7,   -1.2,   -1.9,   -2.2,   -2.0,   -2.2,   -3.9,   -4.1,   -3.5,   -4.6,   -3.8,   -4.7,   -4.8,   -3.4,   -2.6,   -1.3,    0.6,    1.2,    0.3,   -0.6,   -1.3,   -0.4,   -0.6,   -2.4,   -3.3,   -3.1,   -1.9,   -1.2,    1.3,    2.0,    2.0,    1.4,    1.3,    1.1,    0.7,    2.0,  999.0,    2.2,    2.8,    1.1,  999.0,  999.0,   -0.8,    0.1,    0.3,    1.0,    1.5,    1.8,    2.2,  999.0,    2.0,  999.0,  999.0,  999.0,  999.0,  999.0,   10.1,    8.8,    6.7,    4.9,  999.0,  999.0,  999.0,  999.0,  999.0,  999.0,  999.0,  999.0,  999.0,  999.0,  999.0,  999.0,  999.0,  999.0,  999.0,  999.0,  999.0,  999.0,  999.0,  999.0,  999.0,   -4.1,   -5.3,  999.0,  999.0,  999.0,  999.0,  999.0,  999.0,  999.0,  999.0,  999.0,  999.0,  999.0,  999.0,  999.0,  999.0,  999.0,   -8.5,  999.0
2000/08/31 14:55,   -7.0,   -6.7,   -5.7,   -3.9,   -3.7,   -3.0,   -3.2,   -5.1,   -5.0,   -2.1,   -1.3,   -1.5,   -1.9,   -2.4,   -1.1,    0.3,    0.8,    0.4,    0.8,    0.7,   -1.3,   -1.9,   -2.7,   -2.8,   -2.0,   -1.5,   -1.4,   -0.9,   -0.9,   -1.4,   -2.5,   -2.9,   -4.0,   -3.3,   -2.8,   -2.2,   -0.9,   -0.2,   -0.4,   -0.4,   -1.1,   -0.5,   -0.0,   -1.9,   -3.5,   -3.7,   -2.8,   -1.3,    1.8,    2.1,    1.7,    0.7,    0.8,    0.7,  999.0,  999.0,    2.2,  999.0,    3.9,    1.9,  999.0,  999.0,   -1.1,   -1.2,   -0.5,  999.0,    0.8,    1.1,  999.0,  999.0,  999.0,  999.0,  999.0,  999.0,  999.0,    8.2,    7.7,    7.9,    7.8,    4.9,    4.5,    3.8,    1.9,  999.0,  999.0,  999.0,  999.0,  999.0,  999.0,  999.0,  999.0,  999.0,  999.0,  999.0,  999.0,  999.0,  999.0,  999.0,  999.0,  999.0,  999.0,   -5.8,  999.0,   -3.3,  999.0,  999.0,   -9.2,  999.0,  999.0,  999.0,  999.0,  999.0,  999.0,  999.0,  999.0,  999.0,  999.0,  999.0,  999.0,   -9.1
2000/08/31 15:05,   -5.5,   -3.9,   -3.6,   -2.6,   -2.6,   -3.6,   -3.8,   -2.9,   -3.0,   -2.2,   -2.3,   -2.3,   -2.6,   -1.7,   -1.8,   -1.1,    0.0,    0.5,    0.9,    0.8,   -1.0,   -1.8,   -2.3,   -3.4,   -3.9,   -3.2,   -2.3,   -1.7,   -1.6,   -2.2,   -2.5,   -2.8,   -3.0,   -2.6,   -2.0,   -1.7,   -0.9,   -0.0,   -0.0,   -0.6,   -1.6,   -1.5,   -2.5,   -4.0,   -5.1,   -5.4,   -2.9,   -0.9,    1.1,    0.9,    0.8,    0.8,    0.8,    2.2,    1.5,    4.8,  999.0,  999.0,    3.2,    1.2,  999.0,  999.0,   -1.1,  999.0,    0.5,    0.8,    1.7,    0.7,  999.0,  999.0,  999.0,  999.0,  999.0,    2.8,    4.9,    7.5,    8.8,    9.4,    8.3,    5.3,    2.2,    1.2,   -1.0,  999.0,  999.0,  999.0,  999.0,  999.0,  999.0,  999.0,  999.0,  999.0,  999.0,  999.0,  999.0,  999.0,  999.0,  999.0,  999.0,  999.0,  999.0,   -5.8,  999.0,   -3.4,  999.0,  999.0,   -8.6,  999.0,  999.0,  999.0,  999.0,  999.0,  999.0,  999.0,  999.0,  999.0,  999.0,  999.0,   -7.1,   -7.6
2000/08/31 15:15,   -5.0,   -4.7,   -4.3,   -2.8,   -2.3,   -1.4,   -1.5,   -1.4,   -1.4,   -1.6,   -0.3,   -1.1,   -1.8,   -1.6,   -1.4,   -1.4,   -1.5,   -0.3,    0.6,   -0.1,   -0.6,   -1.4,   -2.1,   -2.2,   -3.2,   -2.7,   -2.2,   -1.2,   -0.8,   -1.1,   -1.8,   -2.4,   -2.3,   -2.5,   -1.9,   -1.7,   -1.1,   -0.5,   -0.7,   -1.6,   -1.9,   -1.3,   -1.2,   -1.8,   -3.2,   -3.9,   -2.0,    0.7,    3.1,    2.5,    2.1,    1.6,    2.1,    2.5,    0.9,  999.0,  999.0,    1.9,    2.9,    3.0,  999.0,  999.0,    0.1,  999.0,    0.4,    1.0,    0.8,    0.9,  999.0,  999.0,  999.0,  999.0,  999.0,    3.6,    5.7,    8.4,  999.0,    9.6,  999.0,    5.3,    4.2,    2.7,   -0.8,  999.0,  999.0,  999.0,  999.0,  999.0,  999.0,  999.0,  999.0,  999.0,  999.0,  999.0,  999.0,  999.0,  999.0,  999.0,  999.0,  999.0,  999.0,  999.0,  999.0,  999.0,  999.0,  999.0,  999.0,  999.0,  999.0,  999.0,  999.0,  999.0,  999.0,  999.0,  999.0,  999.0,  999.0,  999.0,   -6.7,  999.0
2000/08/31 15:25,   -5.6,   -5.0,   -2.8,   -2.5,   -2.3,   -1.0,    0.1,   -0.1,   -0.9,   -0.1,    1.1,    0.4,   -1.0,   -0.7,   -0.3,   -0.7,   -1.8,   -2.8,   -1.6,   -0.2,    0.6,    0.7,   -0.3,   -0.4,   -1.4,   -1.2,   -1.5,   -1.8,   -1.3,   -1.0,   -1.7,   -1.7,   -1.7,   -1.7,   -1.0,   -1.0,   -0.4,   -1.1,   -1.0,   -1.2,   -1.8,   -1.4,   -1.7,   -2.3,   -3.3,   -3.8,   -2.8,   -1.3,    0.6,    0.9,    0.5,    0.3,    1.0,  999.0,    1.4,  999.0,  999.0,    1.6,    1.7,   -0.1,  999.0,  999.0,   -0.8,  999.0,   -0.3,   -0.1,    0.2,  999.0,  999.0,  999.0,  999.0,  999.0,  999.0,    4.6,    3.9,    6.2,  999.0,  999.0,    8.8,    7.5,    5.5,    2.9,    1.9,  999.0,  999.0,  999.0,  999.0,  999.0,  999.0,  999.0,  999.0,  999.0,  999.0,  999.0,  999.0,  999.0,  999.0,  999.0,  999.0,  999.0,  999.0,   -2.7,  999.0,  999.0,  999.0,  999.0,  999.0,  999.0,  999.0,  999.0,  999.0,  999.0,  999.0,  999.0,  999.0,  999.0,  999.0,  999.0,  999.0,  999.0
2000/08/31 15:35,   -3.7,   -3.7,   -3.4,   -3.2,   -2.8,   -2.0,   -1.3,   -1.5,   -2.5,   -2.1,   -2.3,   -1.6,   -1.4,   -1.1,    0.1,   -0.7,   -0.2,   -1.3,   -1.0,   -0.2,   -0.0,    0.1,    0.6,    0.2,   -0.3,   -0.8,   -0.6,   -1.6,   -2.1,   -1.6,   -1.9,   -2.0,   -1.9,   -1.0,   -0.9,   -1.3,   -0.9,   -1.2,   -1.4,   -2.0,   -2.7,   -2.5,   -1.7,   -1.9,   -2.5,   -3.5,   -2.7,   -1.3,   -0.2,    1.0,    0.7,    1.6,    0.9,    2.2,  999.0,  999.0,  999.0,    3.1,    2.0,  999.0,  999.0,  999.0,  999.0,    1.6,   -1.1,   -0.8,   -1.0,    2.4,  999.0,  999.0,  999.0,    0.9,    2.2,  999.0,  999.0,  999.0,  999.0,  999.0,  999.0,    7.3,  999.0,  999.0,  999.0,  999.0,  999.0,  999.0,  999.0,  999.0,  999.0,  999.0,  999.0,  999.0,  999.0,  999.0,  999.0,  999.0,  999.0,  999.0,  999.0,  999.0,  999.0,   -5.1,  999.0,   -3.4,  999.0,  999.0,  999.0,  999.0,  999.0,  999.0,  999.0,  999.0,  999.0,  999.0,  999.0,  999.0,   -5.0,  999.0,  999.0,  999.0
2000/08/31 15:45,   -3.3,   -2.2,   -2.7,   -2.1,   -2.5,   -2.0,   -2.0,   -1.9,   -2.4,   -2.1,   -1.9,   -2.8,   -2.5,   -2.2,   -1.3,   -0.9,   -0.1,    1.1,    0.6,    0.8,    1.8,    2.2,    1.1,    1.2,    1.7,    0.3,   -1.1,   -1.4,   -2.3,   -2.5,   -2.4,   -2.5,   -2.2,   -1.6,   -0.9,   -0.4,   -0.2,   -0.6,   -1.5,   -2.5,   -2.6,   -2.3,   -1.7,   -1.8,   -2.8,   -3.4,   -2.5,   -0.6,    1.2,    1.2,    2.0,    2.0,    1.5,    2.5,  999.0,  999.0,  999.0,  999.0,    2.8,  999.0,  999.0,  999.0,  999.0,    0.4,    0.6,   -0.4,   -0.8,  999.0,    0.8,  999.0,  999.0,    1.2,  999.0,  999.0,  999.0,  999.0,  999.0,  999.0,  999.0,    4.4,  999.0,  999.0,  999.0,  999.0,  999.0,  999.0,  999.0,  999.0,  999.0,  999.0,  999.0,    4.9,    5.4,  999.0,  999.0,  999.0,  999.0,    2.2,    0.5,  999.0,  999.0,   -5.5,  999.0,  999.0,  999.0,  999.0,  999.0,  999.0,  999.0,  999.0,  999.0,  999.0,  999.0,  999.0,  999.0,  999.0,  999.0,  999.0,  999.0,  999.0
2000/08/31 15:55,   -3.3,   -1.8,   -1.2,   -1.0,   -1.6,   -0.6,   -1.1,   -1.7,   -2.0,   -3.7,   -4.2,   -4.4,   -3.9,   -3.8,   -2.3,   -2.1,   -1.5,    0.5,    1.4,    2.1,    1.9,    2.2,    1.7,    1.8,    1.0,    0.5,   -0.2,   -1.6,   -2.1,   -2.4,   -2.2,   -2.2,   -1.9,   -1.6,   -1.3,   -0.7,   -0.2,   -0.6,   -0.8,   -1.9,   -2.4,   -2.1,   -1.2,   -1.7,   -2.7,   -3.9,   -1.9,   -1.2,    0.3,    0.6,    1.2,    1.8,    1.3,    1.5,  999.0,  999.0,  999.0,  999.0,  999.0,  999.0,  999.0,  999.0,   -0.8,   -0.1,    0.0,   -0.4,    0.3,    1.2,    1.4,  999.0,  999.0,  999.0,  999.0,  999.0,  999.0,  999.0,  999.0,  999.0,  999.0,  999.0,  999.0,  999.0,  999.0,  999.0,  999.0,  999.0,  999.0,  999.0,  999.0,  999.0,  999.0,  999.0,    7.3,  999.0,  999.0,  999.0,  999.0,  999.0,  999.0,  999.0,  999.0,  999.0,  999.0,  999.0,  999.0,  999.0,  999.0,  999.0,  999.0,  999.0,  999.0,  999.0,  999.0,  999.0,  999.0,  999.0,  999.0,  999.0,  999.0,   -7.3
2000/08/31 16:05,   -3.7,   -2.7,   -0.5,   -0.6,   -0.7,    0.0,    0.3,   -1.1,   -1.4,   -2.7,   -3.2,   -3.7,   -3.4,   -2.6,   -2.3,   -3.3,   -1.5,   -0.6,    0.7,    0.8,    0.7,    0.6,    0.3,    0.5,    0.6,    0.6,    0.4,   -0.6,   -1.4,   -1.6,   -2.2,   -2.2,   -1.8,   -1.4,   -1.0,   -0.9,   -1.3,   -1.1,   -1.0,   -1.3,   -2.3,   -2.0,   -1.6,   -2.1,   -3.1,   -3.5,  999.0,    0.6,    1.4,    1.4,    2.2,    3.1,    1.7,    2.5,    3.7,  999.0,  999.0,  999.0,  999.0,  999.0,  999.0,  999.0,  999.0,    0.0,    0.0,   -0.1,    0.3,    1.9,    1.1,    0.2,  999.0,  999.0,    3.4,    4.5,  999.0,  999.0,  999.0,  999.0,  999.0,    7.2,  999.0,  999.0,  999.0,  999.0,  999.0,  999.0,  999.0,  999.0,  999.0,  999.0,  999.0,  999.0,    8.2,    8.9,  999.0,  999.0,  999.0,  999.0,  999.0,  999.0,  999.0,  999.0,  999.0,  999.0,  999.0,  999.0,  999.0,  999.0,  999.0,  999.0,  999.0,  999.0,  999.0,  999.0,  999.0,  999.0,  999.0,  999.0,  999.0,  999.0
2000/08/31 16:15,   -4.6,   -3.3,   -3.3,   -2.4,   -1.3,   -0.9,   -0.6,   -0.8,   -1.2,   -1.6,   -1.7,   -2.9,   -2.3,   -1.2,  999.0,   -0.3,   -0.5,   -0.8,    0.8,    0.9,    1.0,    1.7,    0.4,    0.0,    0.2,   -0.2,   -0.1,   -0.5,   -1.0,   -0.9,   -0.7,   -1.0,   -1.4,   -1.6,   -1.4,   -1.2,   -1.5,   -0.9,   -1.1,   -1.2,   -1.7,   -1.4,   -0.9,   -1.2,   -1.8,   -1.7,   -0.4,    1.1,    1.3,    1.1,    1.2,    2.1,    1.2,    1.8,  999.0,    3.6,  999.0,  999.0,  999.0,  999.0,  999.0,  999.0,  999.0,   -1.5,   -0.5,   -0.0,   -0.2,  999.0,    0.9,  999.0,  999.0,    1.9,  999.0,  999.0,  999.0,  999.0,  999.0,  999.0,  999.0,    6.3,    4.5,  999.0,    0.2,  999.0,  999.0,  999.0,  999.0,  999.0,  999.0,  999.0,  999.0,  999.0,  999.0,  999.0,  999.0,  999.0,  999.0,  999.0,  999.0,  999.0,  999.0,  999.0,  999.0,  999.0,  999.0,  999.0,  999.0,  999.0,  999.0,  999.0,  999.0,  999.0,  999.0,  999.0,  999.0,  999.0,  999.0,  999.0,  999.0,  999.0
2000/08/31 16:25,   -3.9,   -3.2,   -3.3,   -3.3,   -1.9,   -3.4,   -2.2,   -1.8,   -2.2,   -1.7,   -1.4,   -0.6,   -0.9,   -0.9,    1.6,   -0.2,    0.0,    0.0,   -0.1,    0.3,    0.7,    1.3,    1.1,    1.3,    0.3,   -0.2,   -0.6,   -1.0,   -0.8,   -0.7,   -1.2,   -2.2,   -3.2,   -3.4,   -2.9,   -1.9,   -1.7,   -1.1,   -1.1,   -1.9,   -2.2,   -1.8,   -1.9,   -2.1,   -3.2,   -3.7,   -0.6,    0.7,    0.9,    0.0,    0.6,    2.0,    1.6,  999.0,  999.0,  999.0,  999.0,  999.0,  999.0,  999.0,   -1.0,  999.0,    0.1,    0.3,   -0.1,   -0.0,  999.0,  999.0,  999.0,  999.0,  999.0,  999.0,  999.0,  999.0,  999.0,  999.0,  999.0,  999.0,  999.0,  999.0,  999.0,    1.1,  999.0,  -12.4,  999.0,  999.0,  999.0,  999.0,  999.0,    2.2,  999.0,  999.0,    7.9,    8.9,  999.0,  999.0,  999.0,  999.0,  999.0,  999.0,  999.0,  999.0,  999.0,  999.0,  999.0,  999.0,  999.0,  999.0,  999.0,  999.0,  999.0,  999.0,  999.0,  999.0,  999.0,  999.0,   -5.6,  999.0,  999.0,  999.0
2000/08/31 16:35,   -4.8,   -5.0,   -4.1,   -4.2,   -3.6,   -3.2,   -3.0,   -2.0,   -1.5,   -1.7,   -1.6,   -1.5,   -1.7,    0.3,    1.0,   -0.0,    0.3,    0.6,    1.2,    1.1,    1.1,    0.8,    0.7,    0.5,   -0.3,   -1.5,   -2.0,   -2.4,   -1.8,   -1.9,   -1.9,   -2.6,   -2.5,   -2.1,   -1.9,   -1.7,   -1.5,   -0.7,   -0.6,   -1.8,   -2.1,   -1.9,   -2.6,   -2.8,   -2.8,   -3.8,   -0.0,    1.6,    2.0,    1.5,    2.2,    2.9,  999.0,    1.4,    2.4,  999.0,    3.5,  999.0,  999.0,  999.0,  999.0,  999.0,   -0.2,   -0.7,   -1.2,   -0.2,    1.0,  999.0,  999.0,  999.0,  999.0,  999.0,  999.0,    5.0,  999.0,  999.0,  999.0,  999.0,  999.0,  999.0,  999.0,  999.0,  999.0,  999.0,  999.0,  999.0,  999.0,  999.0,  999.0,  999.0,    3.8,  999.0,    9.0,   11.0,  999.0,  999.0,  999.0,  999.0,  999.0,  999.0,  999.0,  999.0,  999.0,  999.0,  999.0,  999.0,  999.0,  999.0,  999.0,  999.0,  999.0,  999.0,  999.0,  999.0,  999.0,  999.0,  999.0,  999.0,   -7.1,  999.0
2000/08/31 16:45,   -4.4,   -3.7,   -4.1,   -4.0,   -2.9,   -2.1,   -2.3,   -1.2,   -1.1,   -0.5,   -0.7,   -1.3,   -1.1,    0.1,    0.0,   -0.1,    0.8,    1.2,    0.7,   -0.1,    0.5,    1.2,    1.9,    1.7,    0.5,   -0.5,   -0.3,   -0.4,   -0.6,   -0.4,    0.0,   -1.3,   -1.1,   -1.8,   -1.4,   -1.7,   -1.3,   -1.2,   -1.0,   -1.6,   -1.7,   -1.6,   -1.8,   -1.4,   -2.0,   -3.1,   -1.1,    1.1,    1.0,    1.6,    2.3,    2.5,    1.5,    4.0,    3.0,    3.5,    6.2,  999.0,  999.0,  999.0,  999.0,  999.0,    0.1,    0.3,    0.3,    0.4,    2.0,    1.3,  999.0,  999.0,  999.0,  999.0,  999.0,    5.9,    7.2,  999.0,  999.0,  999.0,  999.0,    5.9,    3.0,    1.2,  999.0,  999.0,  999.0,  999.0,  999.0,  999.0,  999.0,  999.0,  999.0,    7.0,  999.0,  999.0,  999.0,  999.0,  999.0,  999.0,  999.0,  999.0,  999.0,  999.0,  999.0,  999.0,  999.0,  999.0,  999.0,  999.0,  999.0,  999.0,  999.0,  999.0,  999.0,  999.0,  999.0,  999.0,  999.0,  999.0,  999.0,  999.0
2000/08/31 16:55,   -4.3,   -5.0,   -4.3,   -3.9,   -3.2,   -2.7,   -3.0,   -1.3,   -1.3,   -1.7,   -1.4,   -2.4,   -1.7,    0.2,    0.9,    1.1,    2.2,    2.4,    2.3,    1.6,    2.4,    3.0,    2.9,    2.4,    1.4,    0.2,   -0.6,   -0.6,   -0.6,   -0.9,   -1.6,   -1.9,   -2.1,   -2.4,   -1.8,   -1.8,   -1.5,   -1.0,   -0.6,   -0.8,   -0.7,   -0.9,   -0.9,   -1.6,   -2.2,   -3.2,   -2.7,   -0.3,    0.4,    0.8,    1.3,    2.4,    2.5,    2.9,    2.7,    2.2,    4.6,  999.0,  999.0,  999.0,  999.0,  999.0,   -0.3,   -0.3,   -0.6,   -0.1,    2.6,  999.0,  999.0,   -1.1,  999.0,  999.0,  999.0,    4.0,    4.1,    6.3,  999.0,  999.0,  999.0,    6.7,    2.9,    2.4,  999.0,  999.0,  999.0,  999.0,  999.0,  999.0,  999.0,  999.0,    3.9,    7.1,    8.8,  999.0,    9.1,  999.0,  999.0,  999.0,  999.0,  999.0,  999.0,  999.0,  999.0,  999.0,  999.0,  999.0,  999.0,  999.0,  999.0,  999.0,  999.0,  999.0,  999.0,  999.0,  999.0,  999.0,  999.0,  999.0,  999.0,  999.0
2000/08/31 17:05,   -0.7,   -1.3,   -1.9,   -2.3,   -2.7,   -2.5,   -1.9,   -1.9,   -0.4,   -0.2,   -0.1,   -1.4,   -1.4,   -0.4,    0.8,    1.5,    2.2,    1.2,    0.5,    0.3,    0.6,    1.0,    1.5,    1.9,    0.9,    0.8,    0.6,   -0.1,   -0.3,   -0.7,   -0.9,   -2.2,   -2.5,   -2.0,   -1.7,   -1.3,   -1.3,   -0.6,   -0.7,   -0.9,   -1.0,   -0.5,   -0.8,   -1.2,   -2.0,   -3.6,   -2.6,   -0.1,    0.8,    0.9,    1.2,    3.2,    3.0,    2.5,  999.0,    6.3,    4.3,    6.5,  999.0,  999.0,  999.0,    0.8,    0.5,    0.5,    0.4,    1.1,  999.0,  999.0,  999.0,  999.0,  999.0,  999.0,  999.0,    4.6,    5.7,    8.0,  999.0,  999.0,  999.0,    4.8,  999.0,  999.0,  999.0,  999.0,  999.0,  999.0,  999.0,  999.0,  999.0,  999.0,  999.0,    6.2,    8.0,  999.0,    8.6,    8.2,    5.8,  999.0,  999.0,  999.0,  999.0,  999.0,  999.0,  999.0,  999.0,  999.0,   -7.0,  999.0,  999.0,  999.0,  999.0,  999.0,  999.0,  999.0,  999.0,  999.0,  999.0,  999.0,  999.0,  999.0
2000/08/31 17:15,   -0.4,   -1.2,   -1.1,   -1.9,   -2.6,   -3.1,   -3.6,   -3.1,   -3.3,   -3.7,   -3.2,   -3.3,   -1.2,   -0.0,    0.4,    0.9,    1.4,    1.3,    1.4,    1.3,    1.5,    1.9,    1.4,    0.6,   -0.5,    0.6,    0.5,   -0.2,   -0.6,   -0.7,   -1.0,   -1.0,   -1.8,   -0.8,   -0.9,   -0.9,   -0.9,   -1.0,   -0.8,   -0.9,   -0.8,    0.2,   -0.1,   -1.2,   -2.1,   -3.2,   -1.8,    0.1,    1.4,    1.7,    1.9,    3.9,    3.7,    2.7,  999.0,    4.7,    6.7,    6.3,  999.0,  999.0,    1.4,    1.4,    0.6,    0.1,   -0.0,  999.0,  999.0,  999.0,  999.0,  999.0,  999.0,    2.5,    3.1,    4.2,    6.0,    7.4,  999.0,  999.0,  999.0,  999.0,    4.2,    2.3,  999.0,  999.0,  999.0,  999.0,  999.0,  999.0,  999.0,  999.0,    3.3,    6.7,    9.5,  999.0,  999.0,    9.6,  999.0,  999.0,  999.0,  999.0,  999.0,  999.0,  999.0,  999.0,  999.0,  999.0,  999.0,  999.0,  999.0,  999.0,  999.0,  999.0,  999.0,  999.0,  999.0,  999.0,  999.0,  999.0,  999.0,  999.0
2000/08/31 17:25,   -0.4,   -1.0,   -1.6,   -3.5,   -4.6,   -5.2,   -4.8,   -4.5,   -3.2,   -3.1,   -3.5,   -2.5,   -1.0,    0.2,    0.3,    0.3,    0.7,    1.0,    1.7,    1.4,    1.8,    2.0,    1.2,    0.3,    1.8,    3.1,    2.6,    0.9,   -0.2,   -1.4,   -2.5,   -2.5,   -2.6,   -1.5,   -1.0,   -1.3,   -0.9,   -1.0,   -0.6,   -0.3,   -0.2,    0.6,    0.4,   -0.4,   -1.7,   -2.5,   -0.8,    0.0,    1.3,    1.7,    1.9,    2.9,    2.7,    2.1,    4.0,    6.5,    7.1,  999.0,  999.0,  999.0,  999.0,    0.1,    0.7,   -0.4,   -1.8,  999.0,   -0.2,   -0.4,  999.0,  999.0,   -0.1,    1.1,    3.5,    4.7,    5.4,    5.5,  999.0,  999.0,  999.0,    5.5,    4.2,  999.0,  999.0,  999.0,  999.0,  999.0,  999.0,  999.0,  999.0,  999.0,    3.3,    5.5,    8.2,  999.0,  999.0,    8.3,    2.9,  999.0,  999.0,  999.0,  999.0,  999.0,  999.0,  999.0,  999.0,  999.0,  999.0,  999.0,  999.0,  999.0,  999.0,  999.0,  999.0,  999.0,  999.0,  999.0,  999.0,  999.0,  999.0,  999.0
2000/08/31 17:35,   -2.0,   -1.8,   -2.0,   -1.9,   -1.9,   -1.4,   -1.5,   -1.7,   -2.4,   -2.8,   -2.2,   -2.1,   -1.1,   -1.4,   -1.1,   -0.6,    0.0,    1.0,    1.6,    2.2,    1.2,    0.8,    0.7,    0.1,    1.6,    2.0,    1.9,    1.4,   -0.1,   -1.1,   -2.3,   -3.2,   -3.6,   -3.1,   -1.7,   -2.1,   -1.7,   -1.6,   -0.6,   -0.7,   -0.6,    0.6,    0.6,   -0.3,   -1.4,   -2.9,   -1.5,    0.4,    1.1,    2.0,    3.0,    2.9,    3.3,    3.5,    3.5,    6.2,  999.0,    7.8,    3.0,    4.7,    0.9,   -0.0,    0.5,   -0.6,   -1.5,    0.4,    2.3,   -0.3,  999.0,  999.0,   -1.2,   -1.5,    1.4,    2.3,    5.2,    4.6,  999.0,  999.0,  999.0,    5.2,    4.1,    2.1,    0.8,  999.0,  999.0,  999.0,  999.0,  999.0,  999.0,  999.0,  999.0,  999.0,  999.0,  999.0,  999.0,    6.4,  999.0,  999.0,  999.0,  999.0,  999.0,  999.0,  999.0,  999.0,  999.0,  999.0,  999.0,  999.0,  999.0,  999.0,  999.0,  999.0,  999.0,  999.0,  999.0,  999.0,  999.0,  999.0,  999.0,  999.0
2000/08/31 17:45,   -1.6,   -1.6,   -1.3,   -1.6,   -1.7,   -1.6,   -0.5,    0.3,    0.9,   -0.2,   -0.3,   -1.4,   -1.9,   -1.3,   -0.6,   -0.6,    0.1,    0.5,    0.7,    0.5,    0.3,    0.0,    0.2,    0.2,    0.9,    0.7,    0.8,    0.2,   -1.0,   -2.2,   -2.8,   -3.8,   -4.3,   -3.3,   -2.2,   -1.7,   -1.7,   -1.5,   -0.4,   -0.3,    0.3,    1.2,    1.5,    0.5,   -0.5,   -1.3,    0.7,    1.8,    3.2,    3.6,    4.1,    3.8,    3.6,    2.1,    2.0,    4.5,    4.8,    5.3,    2.1,    2.5,  999.0,    0.5,    0.1,   -1.2,   -0.6,    1.6,    0.6,  999.0,  999.0,   -1.7,   -1.7,   -0.2,    0.7,    2.2,    3.7,    4.3,  999.0,    4.2,  999.0,    5.6,    3.9,    3.6,  999.0,  999.0,  999.0,  999.0,  999.0,  999.0,  999.0,  999.0,    3.0,    5.2,    8.3,  999.0,    7.8,  999.0,  999.0,    0.5,  999.0,  999.0,  999.0,  999.0,  999.0,  999.0,  999.0,  999.0,  999.0,  999.0,  999.0,  999.0,  999.0,  999.0,  999.0,  999.0,  999.0,  999.0,  999.0,  999.0,  999.0,  999.0
2000/08/31 17:55,   -2.8,   -3.1,   -2.7,   -2.4,   -2.0,   -2.2,   -2.2,   -2.0,   -0.7,   -0.5,   -0.3,   -0.2,   -0.2,   -1.0,   -0.8,   -0.6,   -0.6,   -0.3,   -0.4,   -0.9,   -0.9,   -0.5,   -0.3,   -0.2,   -0.0,    1.1,    0.8,    0.4,   -0.5,   -1.4,   -1.8,   -2.4,   -2.8,   -1.6,   -1.0,   -1.1,   -0.8,   -0.9,   -0.5,   -0.5,    0.1,    1.5,    1.8,    0.4,   -1.4,   -2.7,   -0.3,    1.2,    1.9,    2.8,    2.7,  999.0,    2.6,    5.2,    3.2,    4.6,    4.7,    4.3,    4.9,    3.2,    0.5,    0.2,   -0.1,   -1.0,   -1.5,    1.0,    0.1,    1.1,   -2.2,  999.0,   -2.7,  999.0,    1.6,    3.1,    2.9,    2.5,    4.2,  999.0,  999.0,    3.4,  999.0,    4.6,  999.0,    2.1,  999.0,  999.0,  999.0,  999.0,  999.0,  999.0,  999.0,  999.0,    7.6,    9.7,  999.0,    6.4,    2.5,   -2.1,  999.0,  999.0,  999.0,  999.0,   -8.6,  999.0,  999.0,  999.0,  999.0,  999.0,  999.0,  999.0,  999.0,  999.0,  999.0,  999.0,  999.0,  999.0,  999.0,  999.0,  999.0,  999.0
2000/08/31 18:05,    0.3,   -0.8,   -0.4,   -1.5,   -1.3,   -0.2,   -0.1,   -0.2,   -0.1,    0.1,   -0.5,   -0.4,   -0.5,   -0.8,   -1.1,   -1.0,   -1.6,   -0.7,   -0.2,   -0.1,   -0.1,    0.7,    0.7,    0.6,    0.8,    2.2,    2.2,    1.5,    0.1,   -0.4,   -0.5,   -1.2,   -0.3,   -0.2,   -0.9,   -1.2,   -1.7,   -1.8,   -2.2,   -2.3,   -1.9,    0.2,    0.5,   -1.0,   -2.2,   -2.5,   -1.9,    0.1,    1.7,    3.0,    2.4,    3.0,    3.6,    3.7,    4.4,    5.1,    4.9,    4.2,    3.6,    3.0,    1.7,    0.9,    0.3,   -0.9,   -1.6,    0.6,  999.0,   -0.2,   -2.2,   -0.4,  999.0,    0.7,    1.2,    2.7,    2.9,    3.3,    1.4,    2.4,    3.1,  999.0,  999.0,  999.0,    1.5,  999.0,  999.0,  999.0,  999.0,  999.0,  999.0,  999.0,  999.0,  999.0,  999.0,    9.6,    7.1,  999.0,  999.0,   -1.6,  999.0,  999.0,  999.0,   -7.9,   -9.2,  999.0,  999.0,  999.0,  999.0,  999.0,  999.0,  999.0,  999.0,  999.0,  999.0,  999.0,  999.0,  999.0,  999.0,  999.0,  999.0,  999.0
2000/08/31 18:15,    0.6,    0.6,    0.4,   -0.2,   -0.4,   -0.3,    0.2,    0.8,    2.4,    1.0,    0.4,    0.3,   -0.7,   -0.9,   -1.5,   -1.1,   -0.6,   -0.7,   -0.6,   -0.9,   -0.6,   -0.2,   -0.3,   -0.6,    0.1,    1.1,    1.9,    2.0,    0.9,    0.4,    0.8,    1.4,    1.8,    1.1,    0.9,   -0.2,   -0.3,    0.1,   -0.2,   -0.5,   -0.4,    0.4,    0.1,   -1.0,   -1.9,   -1.8,   -0.2,    0.0,    0.6,    1.4,    0.9,    1.3,    2.0,    2.1,    1.7,    2.4,    3.3,    2.3,    3.3,    2.4,    1.0,    0.2,   -0.3,   -1.2,   -1.3,  999.0,    0.8,   -1.5,   -1.3,  999.0,   -0.7,   -2.1,  999.0,    2.0,    2.9,    3.8,    1.0,    1.7,    1.2,  999.0,  999.0,  999.0,  999.0,  999.0,  999.0,  999.0,  999.0,  999.0,  999.0,  999.0,  999.0,  999.0,  999.0,    8.4,    9.7,    3.7,    4.5,   -1.3,  999.0,  999.0,  999.0,   -8.5,   -9.8,  999.0,  999.0,  999.0,  999.0,  999.0,  999.0,  999.0,  999.0,  999.0,  999.0,  999.0,  999.0,  999.0,  999.0,  999.0,   -7.7,  999.0
2000/08/31 18:25,    0.7,    0.6,    0.9,    0.5,    0.7,    0.5,    0.8,    0.8,    1.6,    0.8,    0.9,    1.0,    1.7,    1.8,    1.8,    1.6,    1.9,    1.0,    0.3,    0.1,    0.4,    0.6,    0.1,   -0.2,    0.3,    0.8,    1.3,    1.6,    1.0,    0.2,    0.7,    1.4,    0.7,    0.4,    0.3,   -1.6,   -3.0,   -2.1,   -1.8,   -0.9,   -0.6,    0.1,    0.4,   -0.0,   -0.7,   -2.1,   -0.2,    0.0,    0.1,    1.1,    0.6,    0.4,    0.9,    1.1,    1.4,    2.5,    2.9,    3.5,    3.2,    2.4,    1.9,    2.3,    0.4,   -0.5,   -0.2,    2.5,    1.7,  999.0,  999.0,  999.0,  999.0,  999.0,    3.3,    3.7,    4.1,    4.0,    3.0,    2.3,    3.4,    2.9,    2.0,    2.4,  999.0,  999.0,  999.0,  999.0,  999.0,  999.0,  999.0,  999.0,  999.0,  999.0,  999.0,    7.4,    7.2,    4.3,    1.9,   -2.1,  999.0,  999.0,  999.0,  999.0,   -9.1,  999.0,  999.0,  999.0,  999.0,  999.0,  999.0,  999.0,  999.0,  999.0,  999.0,  999.0,  999.0,  999.0,  999.0,  999.0,  999.0,   -6.7
2000/08/31 18:35,    1.7,    1.3,    1.5,    1.0,    0.9,    1.2,    1.0,    2.1,    1.4,    0.6,    0.5,    1.4,    2.2,    1.6,    1.0,    0.9,    1.2,    1.3,    1.3,    0.6,   -0.1,   -0.1,    0.2,    0.1,    0.4,    1.2,    1.4,    1.5,    1.3,    0.8,    1.7,    1.5,    1.0,    1.3,    0.8,    0.5,   -0.7,   -2.3,   -3.1,   -4.0,   -2.1,    0.0,    1.1,    0.6,   -0.5,   -1.9,   -1.8,   -0.6,   -0.8,   -0.9,   -0.9,   -1.4,   -1.2,   -1.2,   -0.5,    0.8,    1.4,    1.8,    0.4,    0.9,    1.3,    0.8,   -0.2,   -1.0,   -0.2,    2.1,  999.0,    1.3,  999.0,  999.0,  999.0,  999.0,  999.0,    2.3,    3.1,    3.5,    3.2,    2.7,    2.8,    3.3,    2.9,    4.2,  999.0,  999.0,  999.0,  999.0,  999.0,  999.0,  999.0,  999.0,  999.0,  999.0,  999.0,    7.0,    7.3,    4.9,    0.8,  999.0,   -6.3,  999.0,  999.0,  999.0,  999.0,  999.0,  999.0,  999.0,  999.0,  999.0,  999.0,  999.0,  999.0,  999.0,  999.0,  999.0,  999.0,  999.0,  999.0,  999.0,   -9.3,  999.0
2000/08/31 18:45,    2.4,    1.7,    1.9,    1.0,    1.0,    1.5,    1.1,    1.4,    0.6,   -0.1,    1.0,    0.9,    0.5,    0.0,    0.5,    0.3,    0.6,    0.6,    0.8,    0.6,    0.5,    1.0,    1.3,    1.1,    1.0,    1.1,    1.2,    1.1,    1.2,    0.6,    1.4,    1.1,   -0.1,   -1.0,   -0.3,    0.2,    0.3,   -0.1,   -0.7,   -1.3,   -0.3,    0.5,    1.2,    1.0,   -0.1,   -1.2,   -1.7,   -0.3,   -0.4,   -0.7,   -0.3,   -0.1,   -0.9,   -1.1,   -0.2,    1.4,    2.0,    1.1,    0.9,    1.3,    2.2,    1.2,    0.5,   -0.1,    1.7,  999.0,  999.0,  999.0,  999.0,  999.0,  999.0,  999.0,  999.0,    1.4,    1.2,    3.5,    2.4,    2.0,  999.0,    4.2,    4.1,    1.7,   -1.6,  999.0,  999.0,  999.0,  999.0,  999.0,  999.0,  999.0,  999.0,  999.0,  999.0,    5.7,    4.8,    2.2,   -2.5,   -5.6,   -8.7,  999.0,  999.0,   -8.1,   -9.4,  999.0,  999.0,   -5.8,   -6.4,   -2.7,  999.0,  999.0,  999.0,  999.0,  999.0,  999.0,  999.0,  999.0,  999.0,  999.0,  999.0,  999.0
2000/08/31 18:55,    3.9,    3.0,    1.8,  999.0,    1.8,    1.7,    1.4,    1.6,    1.0,    1.6,    1.4,    0.7,    1.3,    0.9,    0.8,    0.2,   -0.5,   -0.0,    0.2,    0.1,    0.5,    1.2,    1.4,    0.8,    1.0,    0.9,    1.1,    1.0,    0.8,    1.0,    1.0,    0.5,   -1.0,   -1.1,   -1.0,   -0.3,   -0.3,   -0.4,   -0.1,    0.7,    1.5,    1.3,    2.1,    2.6,    1.9,   -0.2,   -1.5,   -0.6,   -0.1,   -0.8,   -1.0,   -0.2,   -0.4,    0.3,    1.1,    1.7,    2.1,    1.4,    1.5,    1.8,    1.4,    0.3,   -0.3,    0.2,    2.3,  999.0,  999.0,  999.0,   -0.7,  999.0,  999.0,  999.0,  999.0,    2.4,    2.5,    2.4,    1.7,    2.2,    3.1,    3.2,  999.0,  999.0,  999.0,  999.0,  999.0,  999.0,  999.0,  999.0,  999.0,  999.0,  999.0,  999.0,  999.0,  999.0,  999.0,    2.6,   -0.9,   -4.4,   -6.5,  999.0,  999.0,  999.0,  999.0,  999.0,   -3.6,   -6.8,   -5.5,   -3.5,  999.0,  999.0,  999.0,  999.0,  999.0,  999.0,  999.0,  999.0,  999.0,  999.0,  999.0,  999.0
2000/08/31 19:05,    2.6,    3.6,    3.2,    2.7,    2.5,    2.9,    1.8,    3.0,    1.1,    1.0,    1.1,    0.9,    1.3,    1.1,    1.2,    0.3,   -0.3,   -0.3,   -0.0,    0.3,    0.8,    1.0,    1.1,    1.2,    0.8,    0.5,    0.4,    0.4,    1.2,    1.2,    0.8,    0.4,   -0.6,   -0.7,   -0.4,   -0.0,    0.5,    1.0,    1.2,    1.1,    2.0,    2.0,    1.5,    1.8,    2.4,    0.6,   -0.9,   -1.5,   -1.2,   -1.9,   -2.5,   -1.4,   -1.2,   -1.0,   -1.0,   -0.2,   -0.3,    0.4,    1.1,    1.2,    0.6,   -0.2,   -0.2,    1.0,    1.7,  999.0,  999.0,    1.6,  999.0,  999.0,  999.0,  999.0,    1.9,    2.6,    2.6,    1.4,    1.3,    3.7,    3.6,  999.0,  999.0,  999.0,  999.0,   -1.5,  999.0,  999.0,  999.0,  999.0,  999.0,  999.0,  999.0,  999.0,  999.0,  999.0,  999.0,    4.0,  999.0,   -2.8,   -7.1,  999.0,  999.0,  999.0,  999.0,  999.0,  999.0,   -7.4,  999.0,   -5.0,   -5.1,  999.0,  999.0,  999.0,  999.0,  999.0,  999.0,  999.0,  999.0,  999.0,  999.0,  999.0
2000/08/31 19:15,    5.1,    4.8,    4.3,    3.9,    2.8,    1.8,    1.3,    1.2,    0.9,    0.3,    0.8,    1.8,    3.4,    3.3,    2.7,    0.8,    0.7,    1.0,    0.9,    0.2,    0.5,    0.4,    1.2,    0.6,    0.6,    0.4,    0.2,    0.6,    1.0,    1.8,    1.9,    0.9,    1.2,    1.0,    0.6,    0.1,    0.1,    0.2,    0.9,    0.1,   -0.4,    0.1,    1.0,    2.1,    2.8,    1.2,    0.8,    0.2,    0.7,    0.5,   -0.2,    0.2,    0.3,    0.1,    1.2,    1.5,    1.1,    1.1,    1.0,    1.4,    1.2,    0.4,   -0.1,    0.8,    1.1,    0.0,   -0.4,   -0.9,  999.0,  999.0,  999.0,  999.0,    0.5,    1.0,    0.6,    0.5,    0.2,    2.0,  999.0,  999.0,  999.0,  999.0,  999.0,  999.0,  999.0,  999.0,  999.0,  999.0,  999.0,  999.0,  999.0,  999.0,  999.0,  999.0,    4.6,    2.6,  999.0,   -2.7,   -5.5,  999.0,  999.0,  999.0,   -9.5,  999.0,  999.0,   -8.9,   -8.1,  999.0,   -5.4,  999.0,  999.0,  999.0,  999.0,  999.0,  999.0,  999.0,  999.0,  999.0,  999.0,  999.0
2000/08/31 19:25,    5.8,    5.3,    5.3,    4.8,    3.9,    3.5,    2.3,    1.8,    1.4,    0.3,    0.2,    0.9,    2.1,    2.3,    1.7,   -0.2,   -0.9,    1.1,    2.3,    2.2,    2.5,    1.1,    1.0,    1.1,    0.9,    0.3,    0.3,    0.7,    1.2,    1.6,    1.4,    1.6,    1.4,    0.3,   -0.2,   -0.3,    0.2,    1.1,    1.8,    1.9,    1.5,    1.5,    1.7,    1.9,    1.8,    1.8,    2.1,    1.9,    1.5,    0.4,   -0.6,   -0.6,   -0.9,   -0.8,   -0.5,    0.6,    0.9,    0.2,    0.7,    0.3,    0.1,    0.5,   -0.1,    0.1,    0.2,    0.1,   -0.8,   -1.4,  999.0,   -1.9,  999.0,  999.0,    0.2,    1.0,   -0.5,   -1.5,   -2.3,  999.0,  999.0,  999.0,    0.9,   -0.7,   -1.9,  999.0,  999.0,  999.0,  999.0,  999.0,  999.0,  999.0,  999.0,  999.0,  999.0,  999.0,  999.0,  999.0,  999.0,   -1.3,   -4.5,  999.0,  999.0,  999.0,   -8.7,  999.0,  999.0,  999.0,  999.0,   -5.6,   -5.0,  999.0,  999.0,   28.8,   -3.5,   -6.1,  999.0,  999.0,  999.0,  999.0,  999.0,  999.0
2000/08/31 19:35,    6.7,    6.1,    5.2,    5.5,    4.9,    3.8,    2.2,    1.6,    1.0,   -0.1,   -0.8,    0.8,    2.0,    1.7,    1.3,    1.3,    1.0,    1.0,    2.2,    2.5,    2.8,    2.5,    0.7,    0.5,    0.2,   -0.9,   -1.0,   -0.8,    0.3,    1.0,    0.9,    0.6,    0.2,    0.1,   -0.1,   -0.2,    0.1,    0.6,    1.3,    1.2,    0.8,    1.2,    1.2,    1.5,    2.4,    2.9,    2.9,    2.3,    2.4,    1.8,    0.1,    0.4,   -0.6,   -1.5,   -1.3,   -0.3,    0.3,    0.1,    0.3,    0.2,    0.5,    1.0,    0.3,    0.4,    0.8,    0.1,   -0.9,   -2.2,  999.0,   -2.7,  999.0,  999.0,    0.3,    1.2,   -0.3,   -0.8,   -0.4,    0.9,    2.2,    3.0,    2.6,   -0.4,   -1.3,   -1.5,   -1.6,   -2.6,   -2.8,  999.0,  999.0,  999.0,  999.0,  999.0,  999.0,  999.0,  999.0,  999.0,  999.0,   -1.6,  999.0,  999.0,  999.0,   -9.0,  999.0,  999.0,  999.0,  999.0,  999.0,   -6.2,  999.0,  999.0,  999.0,  999.0,  999.0,  999.0,  999.0,  999.0,  999.0,  999.0,  999.0,  999.0
2000/08/31 19:45,    8.4,    8.9,    7.9,    6.0,    5.0,    3.9,    3.2,    1.6,    1.1,    0.4,   -0.4,    0.8,    1.5,    1.0,    1.1,    0.7,    0.8,    1.1,    1.5,    2.2,    1.9,    1.3,   -0.0,    0.2,    0.9,    0.9,    0.6,    0.5,   -0.6,    0.6,    1.4,    0.6,   -0.1,   -0.3,   -0.6,   -0.3,   -0.4,   -0.4,   -0.2,    0.1,    0.9,    1.2,    1.9,    1.4,    2.3,    2.5,    2.8,    2.3,    1.7,    1.2,    0.5,   -0.1,   -0.9,   -0.7,   -0.7,    0.3,    0.7,    1.0,    0.5,    0.9,    1.4,    0.8,    1.0,    1.0,    1.1,    1.2,    0.4,    0.0,   -0.3,   -0.7,  999.0,   -0.6,    0.4,    0.4,    1.0,    0.4,   -0.7,    0.2,  999.0,    3.0,  999.0,  999.0,    0.2,   -0.1,  999.0,   -1.2,   -1.9,  999.0,  999.0,  999.0,  999.0,  999.0,  999.0,  999.0,  999.0,  999.0,  999.0,  999.0,  999.0,  999.0,  999.0,   -8.6,  999.0,  999.0,  999.0,  999.0,  999.0,   -1.9,  999.0,  999.0,  999.0,  999.0,  999.0,  999.0,  999.0,  999.0,  999.0,  999.0,  999.0,  999.0
2000/08/31 19:55,    9.3,    8.6,    8.4,    7.4,    5.8,    4.9,    4.7,    3.6,    2.6,    1.4,    0.8,    1.0,    1.7,    1.0,    0.8,    0.7,    0.4,    1.1,    0.8,    0.7,    1.0,    0.6,    0.2,   -0.2,    0.2,    0.6,    0.7,    0.0,   -0.1,    0.3,    0.5,   -0.1,   -0.4,   -0.4,   -2.0,   -1.3,   -0.5,   -1.3,   -1.5,   -0.4,    1.0,    1.4,    2.0,    1.9,    2.0,    1.9,    1.6,    1.5,    2.0,    1.2,    0.2,    0.1,   -0.6,    0.6,    1.3,    1.9,    1.3,    1.7,    1.1,    1.4,    1.0,    0.8,    0.5,    0.7,    0.9,    0.8,    0.6,   -0.7,   -2.5,   -2.4,   -6.3,   -1.6,   -0.9,   -0.7,   -0.2,    0.0,   -0.7,   -1.8,   -0.0,  999.0,    3.1,    1.1,  999.0,    0.1,   -3.9,   -1.9,  999.0,  999.0,  999.0,  999.0,  999.0,  999.0,  999.0,    2.4,    3.4,    2.9,   -2.9,   -7.2,  999.0,  999.0,  999.0,   -9.0,  -10.0,  999.0,  999.0,   -6.5,   -3.5,   -1.8,  999.0,  999.0,  999.0,  999.0,  999.0,   -9.6,  -10.1,  999.0,  999.0,  999.0,  -11.0,  999.0
2000/08/31 20:05,    9.4,   10.4,   10.2,    9.3,    8.7,    7.6,    5.0,    4.0,    3.0,    2.2,    1.4,    1.4,    1.7,    2.6,    1.3,    1.4,    0.3,    0.6,    0.9,    0.9,    0.8,    1.3,    0.6,    0.5,   -0.5,   -0.7,   -0.7,   -0.8,   -0.1,    0.1,    0.1,   -0.4,   -0.1,   -0.3,   -0.9,    0.1,    0.3,    0.1,   -0.6,    0.4,    1.2,    1.7,    2.3,    2.3,    3.0,    1.6,    1.7,    2.2,    2.3,    2.4,    1.5,    1.1,    0.6,    0.2,    0.4,    1.9,    0.9,    0.7,    0.9,    0.9,    0.6,    0.5,    0.8,    1.4,    1.5,    1.4,    1.0,    0.0,   -1.0,   -1.8,   -0.6,  999.0,    0.2,    1.0,    0.8,    1.1,    0.7,   -0.7,   -1.1,    0.0,    3.1,    3.3,    2.7,    2.2,  999.0,   -3.2,  999.0,  999.0,  999.0,  999.0,  999.0,  999.0,  999.0,  999.0,  999.0,  999.0,   -3.5,   -7.3,  999.0,  999.0,   -8.4,   -9.4,  999.0,  999.0,  999.0,   -7.0,   -3.2,  999.0,  999.0,  999.0,  999.0,  999.0,  999.0,  999.0,  999.0,  999.0,  999.0,  999.0,  999.0,  999.0
2000/08/31 20:15,    9.5,    9.7,    9.1,    8.8,    7.2,    5.4,    5.5,    3.0,    1.9,    1.3,    1.1,    0.9,    2.4,    3.5,    2.8,    1.1,    0.6,    0.9,    1.4,    1.6,    2.1,    2.3,    2.2,    1.5,    0.4,   -0.1,   -0.1,   -0.3,    0.2,    0.4,   -0.5,   -0.9,   -0.5,   -1.0,   -1.9,   -0.8,   -0.1,    0.1,    0.3,    0.9,    1.9,    2.2,    2.6,    3.1,    3.3,    2.7,    2.2,    2.7,    2.7,    2.4,    1.6,    0.7,    0.2,   -1.0,   -0.4,    0.3,   -0.0,   -0.8,    0.0,    1.4,    1.5,    2.2,    3.1,    3.0,    2.7,    1.4,    0.8,    0.1,  999.0,  999.0,    1.2,  999.0,    0.8,    1.6,    1.4,    1.8,    2.2,    1.6,    0.1,   -0.6,  999.0,  999.0,    2.3,    2.4,    0.8,   -0.5,  999.0,  999.0,  999.0,  999.0,  999.0,   -0.1,  999.0,    3.2,    4.1,    2.4,   -2.8,   -5.5,   -7.6,  999.0,   -8.1,   -8.5,  999.0,  999.0,  999.0,   -7.7,   -2.7,   -2.4,  999.0,  999.0,  999.0,  999.0,  999.0,  999.0,  999.0,  999.0,  999.0,  999.0,  999.0,  999.0
2000/08/31 20:25,    8.2,    8.9,    8.7,    8.8,    8.4,    6.9,    5.3,    5.2,    4.4,    2.9,    2.1,    2.9,    3.6,    2.6,    1.8,    1.5,    1.5,    1.6,    1.5,    1.7,    1.6,    2.1,    1.6,    1.0,    0.9,    0.8,    0.1,    0.3,    0.3,    0.2,   -0.2,   -0.3,    0.6,    0.8,    0.3,    1.3,    1.3,    0.7,    0.4,    0.2,    1.2,    1.9,    2.1,    2.7,    3.1,    2.9,    2.4,    1.8,    2.8,    3.4,    2.5,    1.1,    1.0,    1.3,   -0.1,    0.1,   -0.5,   -1.4,   -1.0,    0.5,    0.7,    1.3,    0.9,    0.8,    0.4,    0.1,   -0.3,   -1.1,   -1.6,    0.4,   -0.2,    1.4,  999.0,  999.0,    1.3,    1.1,    0.7,    0.0,   -0.8,   -1.2,  999.0,  999.0,    2.8,    4.5,  999.0,  999.0,  999.0,  999.0,  999.0,  999.0,  999.0,   -1.1,  999.0,    2.7,    3.5,    0.2,   -4.3,   -7.4,  999.0,  999.0,   -7.5,   -7.0,  999.0,  999.0,  999.0,  999.0,  999.0,  999.0,  999.0,  999.0,  999.0,  999.0,  999.0,  999.0,  999.0,  999.0,  999.0,  999.0,  999.0,  999.0
2000/08/31 20:35,    8.6,    9.0,    9.3,    8.8,    9.2,    7.9,    6.4,    6.7,    5.9,    4.1,    1.9,    2.0,    4.7,    4.5,    1.8,    1.9,    2.4,    1.1,    0.7,    1.5,    1.4,    0.5,    0.4,    0.1,    0.5,    0.9,    0.9,    1.0,    0.0,   -0.4,   -0.5,   -0.4,    0.5,    0.3,    1.0,    2.3,    1.8,    1.3,    0.9,    0.9,    2.0,    3.0,    3.1,    3.4,    3.4,    3.3,    3.4,    2.9,    2.9,    3.6,    2.9,    1.7,    1.1,   -0.2,    0.3,    1.3,    0.8,   -1.2,   -1.8,    0.3,    1.0,    1.2,    0.4,    0.2,   -0.1,   -0.5,  999.0,   -1.9,    0.2,    0.1,    0.2,  999.0,   -0.5,   -1.4,   -0.1,   -0.1,   -0.8,   -1.9,   -0.9,  999.0,  999.0,    1.8,    2.9,  999.0,  999.0,  999.0,  999.0,  999.0,  999.0,  999.0,  999.0,  999.0,  999.0,    3.5,    3.9,    0.2,   -2.7,   -6.3,  999.0,  999.0,  999.0,   -8.2,   -6.3,  999.0,  999.0,   -3.6,   -6.1,  999.0,  999.0,  999.0,  999.0,  999.0,  999.0,  999.0,  999.0,  999.0,  999.0,  999.0,  999.0,  999.0
2000/08/31 20:45,    7.6,    8.5,    8.2,    8.7,    9.5,    9.1,    6.5,    6.4,    5.9,    4.0,    4.0,    3.8,    3.5,    2.4,    2.0,    1.9,    2.6,    2.5,    2.8,    2.4,    2.6,    1.8,    0.7,    0.9,    0.7,    0.8,    0.6,    0.9,    0.4,    0.4,    0.2,    0.6,    0.9,    1.5,    2.0,    3.1,    2.6,    2.0,    1.0,    1.3,    2.6,    3.5,    3.6,    3.5,    2.8,    2.7,    2.8,    2.8,    2.0,    3.0,    2.6,    1.8,    0.8,   -0.4,   -0.9,   -0.2,    0.4,    0.0,   -1.2,   -0.8,    0.4,   -0.0,   -0.7,   -0.5,   -0.1,   -0.2,   -0.4,  999.0,   -0.8,   -0.6,    0.5,   -0.8,  999.0,   -1.4,  999.0,   -1.1,   -1.8,   -1.9,  999.0,  999.0,    0.7,    1.4,  999.0,   -1.6,  999.0,   -3.9,   -3.9,  999.0,  999.0,  999.0,  999.0,  999.0,  999.0,    5.3,    5.0,    1.5,   -2.8,  999.0,  999.0,  999.0,  999.0,   -6.7,   -6.0,  999.0,  999.0,  999.0,  999.0,  999.0,  999.0,  999.0,  999.0,  999.0,  999.0,  999.0,  999.0,  999.0,  999.0,  999.0,  999.0,  999.0
2000/08/31 20:55,    8.2,    8.7,    8.8,    9.0,    9.2,    8.4,    7.6,    7.7,    7.1,    5.8,    4.0,    3.7,    3.9,    2.6,    2.5,    3.1,    3.3,    3.1,    3.0,    2.2,    2.4,    2.8,    3.5,    3.1,    2.3,    2.7,    2.4,    2.7,    2.2,    1.7,    1.4,    1.0,    1.2,    1.3,    2.6,    3.0,    1.7,    0.7,    1.4,    1.6,    2.8,    4.2,    5.4,    4.0,    2.8,    2.3,    2.2,    2.8,    2.6,    2.6,    2.4,    1.7,    1.4,    0.7,   -0.1,   -0.2,    0.6,   -0.0,   -1.1,   -1.5,   -0.8,   -1.0,   -1.5,   -1.1,   -0.5,   -0.2,   -0.5,  999.0,   -0.3,    1.5,   -0.7,   -0.6,   -0.2,   -1.2,   -0.7,   -1.5,   -1.4,   -2.8,    1.0,  999.0,    1.5,    4.4,  999.0,    0.2,   -1.6,  999.0,  999.0,   -2.0,  999.0,  999.0,  999.0,  999.0,  999.0,  999.0,  999.0,   -2.7,   -4.0,   -7.9,  999.0,  999.0,  999.0,  999.0,  999.0,  999.0,  999.0,  999.0,   -1.6,  999.0,  999.0,  999.0,  999.0,  999.0,  999.0,   56.4,  999.0,  999.0,  999.0,  999.0,  999.0,   -9.1
2000/08/31 21:05,    8.0,    8.4,    8.1,    7.6,    8.2,    8.6,    8.1,    7.7,    6.9,    6.2,    4.7,    3.7,    3.6,    3.6,    2.4,    3.4,    3.8,    3.5,    3.1,    2.4,  999.0,  999.0,    3.4,    3.8,    3.6,    3.6,    3.8,    3.8,    3.0,    3.6,    4.0,    4.9,    5.2,    4.6,    4.8,    4.6,    3.3,    2.1,    2.4,    2.4,    3.0,    3.4,    3.8,    3.0,    2.6,    2.5,    2.0,    2.3,    2.2,    2.2,    2.6,    2.3,    1.9,    1.2,   -0.1,    0.2,    0.2,   -0.2,   -1.0,   -0.8,    0.4,    0.0,   -0.6,    0.1,    1.0,    0.8,    0.4,   -0.1,    0.5,    0.4,   -0.5,   -1.2,   -0.8,   -1.3,   -2.0,   -3.0,   -3.4,   -2.9,   -1.6,    0.1,  999.0,  999.0,  999.0,    0.0,   -2.6,   -4.2,  999.0,  999.0,  999.0,  999.0,  999.0,  999.0,  999.0,    3.4,  999.0,  999.0,   -4.1,   -7.3,  999.0,  999.0,  999.0,  999.0,  999.0,  999.0,  999.0,  999.0,   -3.6,   -3.1,  999.0,  999.0,  999.0,  999.0,  999.0,  -10.6,  999.0,  999.0,  999.0,  999.0,   -9.0,  -10.2
2000/08/31 21:15,    6.8,    7.3,    8.4,    7.8,    6.9,    7.7,    7.1,    7.0,    6.6,    5.8,    4.4,    3.6,    4.2,    3.4,    3.2,    2.9,    3.7,    3.8,    3.5,    3.2,    3.0,    3.0,    2.4,    2.4,    2.5,    3.1,    3.4,    3.7,    3.4,    3.6,    3.8,    3.5,    4.0,    3.9,    4.4,    4.7,    4.8,    5.0,    4.6,    4.1,    4.0,    3.1,    2.5,    2.1,    1.7,    1.3,    1.9,    2.3,    2.6,    2.3,    2.2,    2.0,    1.7,    1.0,   -0.1,    0.3,    0.6,   -0.4,   -1.6,   -0.9,   -0.7,   -1.3,   -0.9,    0.0,    0.4,   -0.1,   -0.5,   -1.0,    0.4,    0.4,   -2.1,   -0.6,   -0.8,   -1.8,   -2.1,   -2.3,   -3.2,   -2.1,   -1.2,   -0.0,  999.0,  999.0,    1.0,    0.3,   -1.7,  999.0,  999.0,  999.0,  999.0,  999.0,  999.0,  999.0,  999.0,    5.0,    5.5,  999.0,   -2.8,   -5.5,  999.0,  999.0,  999.0,  999.0,  999.0,  999.0,  999.0,   -4.2,   -4.7,   -3.4,  999.0,  999.0,  999.0,  999.0,  999.0,  999.0,  999.0,  999.0,  999.0,  999.0,  999.0,  999.0
2000/08/31 21:25,    7.0,    6.5,    8.1,    8.8,    7.9,    8.3,    7.7,    7.0,    6.9,    6.6,    5.5,    5.0,    4.6,    4.2,    3.3,    3.8,    3.6,    3.9,    3.0,    3.2,    3.1,    6.2,    3.4,    3.5,    3.3,    3.4,    4.5,    4.6,    4.0,    2.6,    1.3,    1.6,    2.5,    3.7,    4.9,    5.5,    5.1,    4.9,    4.7,    4.8,    4.5,    3.8,    2.2,    1.8,    1.1,    0.3,    0.4,    1.0,    1.4,    1.1,    1.4,    0.6,   -0.0,   -0.4,   -1.0,   -0.2,    0.6,    0.1,   -1.4,   -0.5,    0.5,    0.7,    1.3,    1.0,    1.1,    0.7,   -0.4,   -0.7,    0.8,    1.6,   -0.1,   -0.6,   -1.4,   -0.6,   -1.4,   -1.8,   -1.8,  999.0,    0.5,  999.0,    1.9,  999.0,    0.6,  999.0,   -1.8,  999.0,  999.0,  999.0,  999.0,  999.0,  999.0,  999.0,  999.0,    3.9,    4.9,    4.2,   -1.7,   -5.1,  999.0,  999.0,  999.0,  999.0,   -4.1,   -4.3,  999.0,   -2.9,  999.0,  999.0,  999.0,  999.0,  999.0,  999.0,  999.0,  999.0,  999.0,  999.0,  999.0,  999.0,  999.0,  999.0
2000/08/31 21:35,    6.6,    6.4,    6.7,    8.1,    7.7,    7.9,    7.2,    6.6,    6.2,    6.9,    5.8,    5.3,    5.7,    5.1,    3.3,    3.1,    3.8,    4.5,    3.8,    3.2,  999.0,  999.0,    3.7,    4.0,    3.8,    4.4,    4.0,    3.6,    3.4,    3.0,    2.7,    2.3,    2.3,    2.9,    3.7,    4.5,    4.6,    4.2,    3.9,    3.8,    3.8,    3.3,    2.3,    2.7,    2.4,    1.6,    1.0,    1.2,    1.2,    1.6,    1.8,    1.6,    0.6,    0.0,   -0.4,   -0.4,    0.7,    1.2,   -0.1,   -0.9,    0.3,    0.8,    0.9,    1.3,    1.5,    1.2,    0.6,   -0.4,    0.7,    0.4,   -0.4,   -0.8,  999.0,   -1.0,   -1.5,   -0.2,   -0.9,   -0.6,  999.0,    2.3,    2.9,    2.8,    0.8,    0.1,  999.0,  999.0,  999.0,  999.0,  999.0,   -3.7,   -3.7,  999.0,  999.0,    2.9,    4.7,    1.4,   -4.5,   -6.9,   -7.6,  999.0,   -3.7,  999.0,   -5.2,  999.0,   -2.9,   -3.1,   -3.5,  999.0,  999.0,  999.0,  999.0,  999.0,  999.0,   -8.5,  -10.2,  999.0,  999.0,  999.0,  999.0,  999.0
2000/08/31 21:45,    6.2,    5.8,    6.6,    7.2,    6.9,    6.9,    7.6,    7.5,    6.7,    7.0,    7.3,    5.7,    5.6,    5.6,    3.5,    3.4,    4.6,    4.4,    3.7,    4.0,    4.7,    4.4,    3.2,    2.5,    3.8,    3.9,    3.8,    2.8,    2.3,    2.2,    2.4,    2.9,    3.0,    2.3,    3.0,    4.0,    4.6,    4.0,    3.1,    2.6,    3.2,    2.5,    1.3,    1.5,    2.2,    1.6,    0.6,    1.1,    1.9,    2.8,    2.2,    1.5,    0.5,   -0.4,   -0.4,   -0.3,    0.2,    0.9,   -0.7,   -1.3,    0.7,    0.3,   -0.2,    0.4,    0.6,   -0.3,   -0.7,    0.3,    0.5,   -0.3,  999.0,  999.0,   -0.8,   -2.8,   -2.0,   -1.6,   -1.3,   -1.0,  999.0,  999.0,  999.0,  999.0,  999.0,   -0.6,   -1.7,  999.0,  999.0,  999.0,  999.0,  999.0,  999.0,  999.0,  999.0,  999.0,  999.0,    3.6,   -2.7,   -5.2,   -7.7,  999.0,  999.0,  999.0,  999.0,  999.0,  999.0,  999.0,   -4.2,   -3.8,  999.0,  999.0,  999.0,  999.0,  999.0,  -10.8,  999.0,  999.0,  999.0,  999.0,  999.0,  999.0
2000/08/31 21:55,    6.9,    5.8,    6.1,    7.2,    7.6,    7.0,    7.5,    7.3,    7.4,    8.1,    7.9,    6.8,    6.2,    5.5,    4.6,    3.8,    4.2,    4.4,    4.2,    3.8,    4.3,    4.0,    2.7,    2.2,    2.7,    3.6,    4.4,    3.3,    2.1,    1.5,    1.8,    1.9,    2.0,    2.2,    2.7,    3.1,    4.0,    3.5,    2.3,    2.1,    1.9,    1.4,    0.8,    1.8,    3.2,    2.4,    2.0,    2.4,    2.9,    3.3,    2.9,    2.0,    0.7,    0.2,    0.6,    0.3,    0.8,    0.4,   -0.7,   -0.2,    1.0,    1.3,    1.3,    1.1,    1.0,   -0.1,    0.2,    1.4,    1.5,    0.5,  999.0,  999.0,  999.0,  999.0,   -0.8,   -0.8,   -2.3,  999.0,  999.0,  999.0,  999.0,  999.0,    0.3,    0.7,   -1.9,  999.0,  999.0,  999.0,  999.0,  999.0,  999.0,  999.0,  999.0,  999.0,  999.0,    2.1,   -3.6,   -5.5,  999.0,  999.0,  999.0,  999.0,  999.0,   -4.5,  999.0,   -3.3,  999.0,  999.0,  999.0,  999.0,  999.0,  999.0,  999.0,   -9.2,  999.0,  999.0,  999.0,  999.0,  999.0,  999.0
2000/08/31 22:05,    8.5,    5.7,    6.4,    6.7,    7.6,    6.9,    7.5,    6.6,    7.0,    7.8,    7.7,    6.5,    6.3,    6.0,    5.1,    4.5,    4.4,    4.9,    4.2,    3.4,    4.2,    3.4,    3.0,    2.9,    3.6,    3.9,    4.7,    4.9,    2.3,    1.2,    1.2,    1.6,    1.1,    1.9,    2.2,    3.2,    4.1,    4.6,    3.0,    2.8,    2.2,    1.7,    1.2,    1.7,    3.1,    2.7,    1.9,    2.3,    2.4,    2.8,    2.7,    1.3,    0.5,   -0.1,    0.4,    0.9,    1.4,    1.3,    0.9,    1.7,    1.9,    1.3,    1.2,    1.1,    0.6,   -0.3,   -0.1,    1.0,    0.2,   -0.3,  999.0,  999.0,  999.0,   -1.9,   -1.8,   -1.4,   -2.0,   -1.8,   -0.2,    0.8,    1.8,  999.0,  999.0,    0.4,   -0.6,   -3.2,  999.0,  999.0,  999.0,  999.0,  999.0,  999.0,  999.0,  999.0,  999.0,  999.0,  999.0,   -6.1,   -4.9,  999.0,   -7.5,  999.0,  999.0,  999.0,  999.0,   -2.8,  999.0,  999.0,  999.0,  999.0,  999.0,  999.0,  999.0,  -13.3,  999.0,  999.0,  999.0,  999.0,  999.0,  999.0
2000/08/31 22:15,    8.3,    6.6,    5.9,    6.2,    6.7,    7.0,    7.7,    6.8,    7.6,    8.4,    8.6,    6.9,    6.9,    6.9,    5.9,    5.2,    4.8,    5.0,    4.4,    3.5,    4.4,    4.1,    3.5,    3.9,    4.4,    4.2,    4.6,    3.5,    1.8,    1.2,    1.3,    1.5,    1.5,    2.4,    2.1,    2.2,    2.7,    3.6,    1.8,    1.4,    0.9,    0.8,    0.9,    2.6,    3.4,    3.2,    3.2,    3.7,    3.2,    3.5,    3.6,    1.9,    0.7,    0.6,    0.8,    0.7,    1.5,    1.1,    0.1,    1.6,    2.5,    1.8,    1.6,    1.0,    0.8,    0.5,   -0.5,    1.0,   -0.3,  999.0,  999.0,  999.0,   -1.4,   -1.8,  999.0,  999.0,   -1.3,   -1.7,   -0.3,    1.2,    1.1,  999.0,    1.9,    0.4,   -2.0,   -1.4,  999.0,  999.0,  999.0,  999.0,  999.0,  999.0,  999.0,  999.0,  999.0,  999.0,   -3.6,   -5.9,  999.0,  999.0,   -6.8,  999.0,  999.0,  999.0,  999.0,  999.0,  999.0,  999.0,  999.0,  999.0,  999.0,   -5.9,   -4.5,  -12.0,  999.0,  999.0,  999.0,  999.0,  999.0,  999.0
2000/08/31 22:25,    7.3,    6.4,    6.1,    6.5,    6.7,    6.5,    6.3,    6.5,    7.1,    8.0,    8.3,    6.8,    6.8,    7.1,    6.3,    6.2,    5.4,    4.5,    4.3,    3.4,    4.1,    3.9,    3.1,    3.2,    3.8,    4.0,    4.0,    3.3,    2.2,    1.6,    1.5,    1.9,    3.2,    3.2,    3.5,    3.6,    4.1,    4.4,    2.7,    2.5,    2.1,    1.7,    2.0,    3.4,    4.1,    3.9,    2.9,    2.6,    3.3,    3.8,    4.0,    3.4,    1.1,    0.9,    0.8,    0.8,    1.4,    1.3,    0.8,    1.7,    2.9,    2.5,    1.8,    1.3,    1.2,    1.4,    1.1,    0.8,    0.9,  999.0,  999.0,  999.0,  999.0,  999.0,   -0.6,   -0.5,   -0.5,   -0.8,   -1.0,  999.0,  999.0,  999.0,  999.0,  999.0,    0.5,    0.4,  999.0,  999.0,  999.0,  999.0,  999.0,   -0.9,  999.0,    4.5,    5.9,    0.1,   -3.2,   -5.3,  999.0,  999.0,  999.0,  999.0,  999.0,  999.0,  999.0,  999.0,  999.0,  999.0,  999.0,  999.0,  999.0,  999.0,   -7.9,  -11.2,  999.0,  999.0,  999.0,  999.0,  999.0,  999.0
2000/08/31 22:35,    7.1,    6.8,    6.0,    5.6,    5.6,    6.5,    5.8,    5.6,    5.7,    6.7,    7.3,    6.7,    6.9,    7.1,    6.7,    6.2,    6.0,    4.8,    4.2,    4.0,    3.7,    2.9,    2.2,    2.6,    3.8,    3.4,    3.1,    2.9,    1.9,    1.3,    1.7,    2.3,    3.5,    3.8,    3.3,    3.5,    4.0,    3.3,    2.0,    1.3,    1.0,    0.9,    2.5,    3.8,    3.7,    3.9,    3.4,    4.3,    4.4,    4.1,    3.3,    2.9,    0.9,    0.5,    0.7,    1.5,    1.9,    1.4,    1.1,    1.7,    4.1,    3.8,    2.6,    1.6,    1.1,    0.9,    1.2,    1.1,    1.1,  999.0,   -0.3,  999.0,  999.0,   -1.0,   -0.8,   -1.0,   -1.9,   -1.3,  999.0,  999.0,  999.0,  999.0,  999.0,  999.0,  999.0,   -0.8,  999.0,   -1.8,  999.0,  999.0,  999.0,  999.0,  999.0,    4.7,    7.1,   -1.2,   -4.1,   -5.7,  999.0,  999.0,  999.0,  999.0,  999.0,  999.0,  999.0,  999.0,  999.0,  999.0,  999.0,  999.0,  999.0,  999.0,  999.0,  -10.3,  999.0,  999.0,  999.0,  999.0,  999.0,  999.0
2000/08/31 22:45,    7.8,    7.3,    6.7,    6.5,    6.2,    6.2,    5.5,    5.8,    6.2,    7.1,    7.3,    7.8,    7.3,    7.9,    6.2,    6.8,    6.0,    5.6,    4.5,    4.4,    4.4,    3.4,    3.4,    4.0,    4.4,    4.0,    3.4,    3.4,    3.3,    2.0,    1.4,    1.9,    2.2,    3.2,    3.3,    3.4,    3.6,    3.6,    3.4,    1.9,    1.3,    0.9,    2.2,    2.5,    3.0,    3.3,    3.5,    4.4,    4.7,    4.7,    4.4,    3.6,    2.4,    1.1,    0.7,    1.7,    2.4,    2.8,    2.6,    2.5,    4.2,    3.8,    3.3,    2.5,    0.9,    0.8,    1.1,    1.4,    1.0,  999.0,  999.0,  999.0,  999.0,   -0.6,   -0.3,  999.0,   -2.2,  999.0,  999.0,  999.0,  999.0,  999.0,  999.0,    3.0,    2.7,   -0.3,   -2.6,  999.0,  999.0,  999.0,  999.0,  999.0,  999.0,  999.0,  999.0,  999.0,   -4.6,   -6.1,  999.0,  999.0,   -5.2,  999.0,  999.0,  999.0,  999.0,  999.0,  999.0,  999.0,  999.0,  999.0,  999.0,  999.0,  999.0,  -11.6,  -13.3,  999.0,  999.0,  999.0,  999.0,  999.0
2000/08/31 22:55,    8.3,    6.5,    6.0,    5.8,    6.0,    6.4,    6.1,    6.7,    6.8,    6.6,    7.2,    7.6,    8.0,    8.9,    7.5,    8.8,    7.9,    6.3,    6.5,    6.2,    5.5,    3.4,    3.7,    4.0,    3.7,    2.9,    2.3,    2.4,    3.3,    2.1,    1.7,    1.6,    2.1,    2.7,    3.0,    3.2,    3.4,    4.0,    3.5,    3.0,    1.3,    1.1,    3.1,    3.1,    3.6,    3.8,    4.4,    4.4,    5.9,    5.8,    4.8,    3.7,    2.0,    1.6,    2.3,    3.1,    3.2,    2.4,    2.3,    3.3,    3.9,    3.3,    2.8,    1.9,    1.3,    1.2,    1.3,    1.5,    0.9,  999.0,  999.0,  999.0,  999.0,  999.0,   -0.1,   -0.6,   -1.5,    0.3,  999.0,  999.0,  999.0,  999.0,  999.0,  999.0,    3.4,  999.0,  999.0,  999.0,  999.0,  999.0,  999.0,  999.0,  999.0,  999.0,  999.0,  999.0,   -5.5,   -6.3,  999.0,  999.0,   -4.0,  999.0,  999.0,  999.0,  999.0,  999.0,  999.0,  999.0,  999.0,  999.0,  999.0,  999.0,  999.0,  -10.6,  -12.5,  -10.5,  999.0,  999.0,  -10.5,  999.0
2000/08/31 23:05,    8.6,    7.4,    7.4,    7.1,    6.9,    6.5,    6.3,    6.2,    6.6,    6.6,    7.1,    8.0,    8.3,    8.4,    8.2,    8.6,    7.9,    6.0,    6.6,    5.9,    5.8,    4.4,    3.9,    4.4,    4.7,    3.5,    2.8,    2.7,    3.3,    2.1,    0.9,    1.5,    2.4,    3.2,    3.6,    3.9,    4.4,    4.2,    3.3,    2.0,    0.7,    0.5,    1.8,    2.2,    2.6,    2.9,    3.9,    4.3,    5.3,    5.4,    4.5,    3.2,    1.6,    1.2,    1.8,    2.6,    2.7,    2.4,    3.1,    3.9,    3.8,    3.7,    3.0,    1.9,    1.3,    1.3,    1.2,    1.3,  999.0,  999.0,  999.0,  999.0,  999.0,   -1.1,   -0.7,   -0.6,   -1.0,  999.0,  999.0,  999.0,  999.0,  999.0,  999.0,  999.0,    4.8,  999.0,  999.0,  999.0,  999.0,  999.0,  999.0,  999.0,  999.0,  999.0,    5.6,   -3.0,   -4.3,   -5.3,  999.0,  999.0,   -3.4,  999.0,  999.0,  999.0,  999.0,  999.0,  999.0,  999.0,  999.0,  999.0,  999.0,  999.0,  999.0,   -9.6,  -10.9,  999.0,  999.0,  999.0,  -11.0,   -7.8
2000/08/31 23:15,    7.7,    7.3,    7.1,    7.4,    7.0,    7.1,    6.4,    5.5,    6.2,    6.0,    6.5,    7.4,    7.8,    7.7,    7.4,    6.9,    6.8,    5.4,    4.8,    4.4,    4.8,    4.7,    4.9,    4.5,    4.9,    4.1,    3.3,    3.6,    3.5,    3.9,    1.3,    1.2,    1.8,    2.7,    3.3,    4.2,    4.4,    3.0,    2.2,    1.5,    1.4,    0.8,    1.3,    2.3,    2.6,    2.6,    2.5,    3.4,    3.9,    4.2,    3.6,    2.4,    1.9,    1.4,    2.3,    2.6,    2.3,    3.2,    4.1,    4.3,    4.8,    4.4,    3.6,    2.2,    1.4,    1.4,    1.3,    1.3,   -0.6,  999.0,  999.0,  999.0,  999.0,   -2.0,   -1.1,   -1.3,   -1.7,  999.0,  999.0,  999.0,  999.0,  999.0,  999.0,    3.5,  999.0,  999.0,  999.0,  999.0,  999.0,  999.0,  999.0,  999.0,  999.0,    6.5,    6.9,   -0.9,   -3.4,   -4.6,  999.0,  999.0,  999.0,  999.0,  999.0,  999.0,  999.0,  999.0,  999.0,  999.0,  999.0,  999.0,  999.0,  999.0,  999.0,  -10.2,  -12.0,  999.0,  999.0,  999.0,  999.0,  999.0
2000/08/31 23:25,    8.0,    7.6,    8.2,    6.5,    6.6,    6.1,    6.2,    5.8,    6.4,    5.7,    5.7,    6.5,    7.5,    7.1,    6.9,    7.0,    7.0,    6.5,    5.2,    5.5,    5.1,    4.9,    5.0,    5.6,    6.3,    5.6,    3.5,    3.8,    3.8,    4.8,    1.8,    1.9,    2.2,    3.2,    4.3,    5.2,    5.4,    4.4,    3.1,    2.3,    2.6,    0.8,    0.8,    1.2,    1.8,    2.2,    2.1,    2.5,    3.4,    4.1,    3.5,    3.1,    3.2,    4.0,    4.1,    4.1,    3.9,    4.7,    4.7,    5.3,    5.7,    5.4,    5.0,    4.0,    2.9,    1.9,    1.6,    1.1,   -0.7,  999.0,  999.0,  999.0,  999.0,   -2.4,   -2.8,   -3.4,  999.0,  999.0,  999.0,  999.0,  999.0,  999.0,  999.0,  999.0,  999.0,  999.0,  999.0,  999.0,  999.0,  999.0,  999.0,  999.0,  999.0,    3.2,    5.8,   -2.2,   -3.9,   -5.1,  999.0,  999.0,  999.0,  999.0,  999.0,  999.0,  999.0,  999.0,  999.0,  999.0,  999.0,  999.0,  999.0,  999.0,  999.0,   -9.1,  999.0,  999.0,  999.0,  999.0,  999.0,  999.0
2000/08/31 23:35,    7.8,    7.9,    7.8,    7.1,    6.8,    5.9,    5.5,    5.0,    5.1,    5.4,    5.3,    6.0,    6.7,    7.1,    6.8,    7.0,    6.6,    5.6,    4.7,    5.2,    4.7,    4.6,    4.8,    5.6,    6.0,    4.8,    3.7,    3.2,    3.1,    3.9,    1.9,    1.7,    1.8,    2.4,    3.3,    4.5,    4.6,    4.6,    3.1,    1.9,    1.7,    1.1,    0.6,    0.7,    1.2,    1.4,    1.0,    1.8,    1.9,    2.7,    3.4,    3.6,    3.9,    4.6,    5.2,    5.3,    5.2,    5.4,    5.1,    5.5,    5.7,    4.9,    3.9,    3.6,    2.1,    1.2,    0.9,   -0.4,   -1.1,   -0.4,   -1.1,   -1.6,  999.0,   -2.3,   -3.7,   -2.6,  999.0,  999.0,  999.0,  999.0,  999.0,  999.0,  999.0,  999.0,  999.0,  999.0,  999.0,  999.0,  999.0,  999.0,  999.0,  999.0,  999.0,    6.0,    5.1,  999.0,   -4.1,   -4.6,   -5.2,  999.0,   -3.7,  999.0,  999.0,  999.0,  999.0,  999.0,  999.0,  999.0,  999.0,  999.0,  999.0,  999.0,  999.0,  999.0,  999.0,  999.0,  999.0,  999.0,  -11.2,   -8.1
2000/08/31 23:45,    8.6,    8.2,    7.8,    7.2,    7.3,    6.6,    5.7,    5.1,    5.3,    5.4,    5.2,    5.8,    6.5,    6.4,    6.1,    6.7,    6.8,    6.2,    5.3,    5.4,    4.8,    5.0,    5.0,    5.7,    6.4,    6.0,    4.8,    3.3,    3.7,    4.2,    2.5,    1.2,    1.3,    1.8,    2.8,    3.8,    4.2,    3.9,    2.8,    1.7,    1.5,    1.7,    1.3,    1.0,    1.7,    2.1,    2.2,    2.3,    2.2,    2.9,    4.1,    3.9,    3.7,    3.8,    4.5,    5.6,    6.0,    6.2,    4.8,    4.3,    4.0,    3.6,    3.4,    2.2,    1.6,    1.2,  999.0,   -0.3,   -1.3,   -2.4,  999.0,  999.0,  999.0,   -2.4,   -3.2,   -2.7,   -1.4,  999.0,  999.0,  999.0,  999.0,  999.0,  999.0,  999.0,  999.0,  999.0,  999.0,  999.0,  999.0,  999.0,  999.0,  999.0,  999.0,  999.0,  999.0,   -2.5,   -3.5,   -4.4,   -4.3,  999.0,   -0.6,   -3.0,  999.0,  999.0,  999.0,  999.0,  999.0,  999.0,  999.0,  999.0,  999.0,  999.0,  999.0,  999.0,  999.0,  999.0,  999.0,  999.0,  999.0,   -8.2
2000/08/31 23:55,    9.0,    8.4,    8.2,    7.9,    7.5,    7.2,    6.1,    5.4,    5.3,    5.0,    5.1,    5.4,    6.5,    6.3,    6.2,    6.1,    6.7,    6.7,    6.3,    5.7,    4.7,    5.0,    5.4,    5.8,    6.2,    6.5,    4.4,    3.7,    4.2,    4.7,    3.0,    2.5,    2.3,    2.9,    3.2,    4.1,    4.4,    3.4,    2.1,    1.3,    0.6,    1.0,    2.2,    1.5,    2.0,    2.8,    2.8,    1.9,    1.9,    2.6,    3.3,    4.0,    3.9,    4.1,    4.4,    4.4,    5.4,    6.0,    4.6,    3.5,    3.0,    2.4,    2.3,    1.8,    1.3,    0.8,    0.3,   -0.8,   -2.5,   -2.0,  999.0,  999.0,   -1.9,   -3.4,   -4.2,   -3.7,   -3.9,  999.0,  999.0,  999.0,  999.0,  999.0,  999.0,  999.0,    5.3,  999.0,  999.0,  999.0,  999.0,  999.0,  999.0,  999.0,  999.0,    7.0,    6.2,  999.0,   -3.4,   -4.9,   -3.3,   -1.5,   -1.9,   -2.8,   -3.2,  999.0,  999.0,  999.0,  999.0,  999.0,  999.0,  999.0,  999.0,  999.0,  999.0,  999.0,  999.0,  999.0,  999.0,  999.0,  999.0,  999.0
